[[{"header":{"parameterUnit":"m.s-1","parameterCategory":1,"la1":30.6,"la2":29.2853,"lo1":-89.7004,"lo2":-87.6739,"dy":0.0162,"dx":0.0183,"nx":112,"ny":82,"refTime":"2026-04-01T00:00:00:Z","depth":0,"parameterNumber":2,"parameterNumberName":"U-component_of_WINDS"},"data":[0.0,0.0,0.0,0.0,0.0,0.0,0.0,0.0,0.0,0.0,0.0,0.0,0.0,0.0,0.0,0.0,0.0,0.0,0.0,0.0,0.0,0.0,0.0,0.0,0.0,0.0,0.0,0.0,0.0,0.0,0.0,0.0,0.0,0.0,0.0,0.0,0.0,0.0,0.0,0.0,0.0,0.0,0.0,0.0,0.0,0.0,0.0,0.0,0.0,0.0,0.0,0.0,0.0,0.0,0.0,0.0,0.0,0.0,0.0,0.0,0.0,0.0,0.0,0.0,0.0,0.0,0.0,0.0,0.0,0.0,0.0,0.0,0.0,0.0,0.0,0.0,0.0,0.0,0.0,0.0,0.0,0.0,0.0,0.0,0.0,0.0,0.0,0.0,0.0,0.0,4.7981,5.1523,5.6588,5.87,5.6215,5.4473,5.1767,4.7579,0.0,0.0,0.0,0.0,0.0,0.0,0.0,0.0,0.0,0.0,0.0,0.0,0.0,0.0,0.0,0.0,0.0,0.0,0.0,0.0,0.0,0.0,0.0,0.0,0.0,0.0,0.0,0.0,0.0,0.0,0.0,0.0,0.0,0.0,0.0,0.0,0.0,0.0,0.0,0.0,0.0,0.0,0.0,0.0,0.0,0.0,0.0,0.0,0.0,0.0,0.0,0.0,0.0,0.0,0.0,0.0,0.0,0.0,0.0,0.0,0.0,0.0,0.0,0.0,0.0,0.0,0.0,0.0,0.0,0.0,0.0,0.0,0.0,0.0,0.0,0.0,0.0,0.0,0.0,0.0,0.0,0.0,0.0,0.0,0.0,0.0,0.0,0.0,0.0,0.0,0.0,0.0,0.0,0.0,0.0,0.0,0.0,0.0,0.0,0.0,0.0,0.0,0.0,0.0,4.9197,5.4452,5.7041,5.7632,5.5747,5.4453,5.2075,4.8129,0.0,0.0,0.0,0.0,0.0,0.0,0.0,0.0,0.0,0.0,0.0,0.0,0.0,0.0,0.0,0.0,0.0,0.0,0.0,0.0,0.0,0.0,0.0,0.0,0.0,0.0,0.0,0.0,0.0,0.0,0.0,0.0,0.0,0.0,0.0,0.0,0.0,0.0,0.0,0.0,0.0,0.0,0.0,0.0,0.0,0.0,0.0,0.0,0.0,0.0,0.0,0.0,0.0,0.0,0.0,0.0,0.0,0.0,0.0,0.0,0.0,0.0,0.0,0.0,0.0,0.0,0.0,0.0,0.0,0.0,0.0,0.0,0.0,0.0,0.0,0.0,0.0,0.0,0.0,0.0,0.0,0.0,0.0,0.0,0.0,0.0,0.0,0.0,0.0,0.0,0.0,0.0,0.0,0.0,0.0,0.0,0.0,0.0,0.0,0.0,0.0,0.0,0.0,4.8056,5.1787,5.5726,5.7597,5.7866,5.6029,5.454,5.2224,4.8766,4.5713,0.0,0.0,0.0,0.0,0.0,0.0,0.0,0.0,0.0,0.0,0.0,0.0,0.0,0.0,0.0,0.0,0.0,0.0,0.0,0.0,0.0,0.0,0.0,0.0,0.0,0.0,0.0,0.0,0.0,0.0,0.0,0.0,0.0,0.0,0.0,0.0,0.0,0.0,0.0,0.0,0.0,0.0,0.0,0.0,0.0,0.0,0.0,0.0,0.0,0.0,0.0,0.0,0.0,0.0,0.0,0.0,0.0,0.0,0.0,0.0,0.0,0.0,0.0,0.0,0.0,0.0,0.0,0.0,0.0,0.0,0.0,0.0,0.0,0.0,0.0,0.0,0.0,0.0,0.0,0.0,0.0,0.0,0.0,0.0,0.0,0.0,0.0,0.0,0.0,0.0,0.0,0.0,0.0,0.0,0.0,0.0,0.0,0.0,0.0,0.0,0.0,0.0,5.0957,5.3753,5.6037,5.7759,5.7959,5.594,5.4197,5.1824,4.8599,4.5514,0.0,0.0,0.0,0.0,0.0,0.0,0.0,0.0,0.0,0.0,0.0,0.0,0.0,0.0,0.0,0.0,0.0,0.0,0.0,0.0,0.0,0.0,0.0,0.0,0.0,0.0,0.0,0.0,0.0,0.0,0.0,0.0,0.0,0.0,0.0,0.0,0.0,0.0,0.0,0.0,0.0,0.0,0.0,0.0,0.0,0.0,0.0,0.0,0.0,0.0,0.0,0.0,0.0,0.0,0.0,0.0,0.0,0.0,0.0,0.0,0.0,0.0,0.0,0.0,0.0,0.0,0.0,0.0,0.0,0.0,0.0,0.0,0.0,0.0,0.0,0.0,0.0,0.0,0.0,0.0,0.0,0.0,0.0,0.0,0.0,0.0,0.0,0.0,0.0,0.0,0.0,0.0,0.0,0.0,0.0,0.0,0.0,0.0,0.0,0.0,0.0,0.0,5.1288,5.3802,5.5472,5.7127,5.7115,5.4742,5.3052,5.0544,4.6809,4.3796,0.0,0.0,0.0,0.0,0.0,0.0,0.0,0.0,0.0,0.0,0.0,0.0,0.0,0.0,0.0,0.0,0.0,0.0,0.0,0.0,0.0,0.0,0.0,0.0,0.0,0.0,0.0,0.0,0.0,0.0,0.0,0.0,0.0,0.0,0.0,0.0,0.0,0.0,0.0,0.0,0.0,0.0,0.0,0.0,0.0,0.0,0.0,0.0,0.0,0.0,0.0,0.0,0.0,0.0,0.0,0.0,0.0,0.0,0.0,0.0,0.0,0.0,0.0,0.0,0.0,0.0,0.0,0.0,0.0,0.0,0.0,0.0,0.0,0.0,0.0,0.0,0.0,0.0,0.0,0.0,0.0,0.0,0.0,0.0,0.0,0.0,0.0,0.0,0.0,0.0,0.0,0.0,0.0,0.0,0.0,0.0,0.0,0.0,0.0,0.0,0.0,0.0,5.1265,5.3807,5.5438,5.7048,5.7005,5.462,5.2936,5.0606,4.7292,0.0,0.0,0.0,0.0,0.0,0.0,0.0,0.0,0.0,0.0,0.0,0.0,0.0,0.0,0.0,0.0,0.0,0.0,0.0,0.0,0.0,0.0,0.0,0.0,0.0,0.0,0.0,0.0,0.0,0.0,0.0,0.0,0.0,0.0,0.0,0.0,0.0,0.0,0.0,0.0,0.0,0.0,0.0,0.0,0.0,0.0,0.0,0.0,0.0,0.0,0.0,0.0,0.0,0.0,0.0,0.0,0.0,0.0,0.0,0.0,0.0,0.0,0.0,0.0,0.0,0.0,0.0,0.0,0.0,0.0,0.0,0.0,0.0,0.0,0.0,0.0,0.0,0.0,0.0,0.0,0.0,0.0,0.0,0.0,0.0,0.0,0.0,0.0,0.0,0.0,0.0,0.0,0.0,0.0,0.0,0.0,0.0,0.0,0.0,0.0,0.0,0.0,4.7827,5.1199,5.3807,5.5438,5.7048,5.7005,5.462,5.2674,5.0319,4.7246,0.0,0.0,0.0,0.0,0.0,0.0,0.0,0.0,0.0,0.0,0.0,0.0,0.0,0.0,0.0,0.0,0.0,0.0,0.0,0.0,0.0,0.0,0.0,0.0,0.0,0.0,0.0,0.0,0.0,0.0,0.0,0.0,0.0,0.0,0.0,0.0,0.0,0.0,0.0,0.0,0.0,0.0,0.0,0.0,0.0,0.0,0.0,0.0,0.0,0.0,0.0,0.0,0.0,0.0,0.0,0.0,0.0,0.0,0.0,0.0,0.0,0.0,0.0,0.0,0.0,0.0,0.0,0.0,0.0,0.0,0.0,0.0,0.0,0.0,0.0,0.0,0.0,0.0,0.0,0.0,0.0,0.0,0.0,0.0,0.0,0.0,0.0,0.0,0.0,0.0,0.0,0.0,0.0,0.0,0.0,0.0,0.0,0.0,0.0,0.0,0.0,0.0,4.7672,5.1159,5.3807,5.5401,5.7011,5.7005,5.4583,5.2197,4.9475,0.0,0.0,0.0,0.0,0.0,0.0,0.0,0.0,0.0,0.0,0.0,0.0,0.0,0.0,0.0,0.0,0.0,0.0,0.0,0.0,0.0,0.0,0.0,0.0,0.0,0.0,0.0,0.0,0.0,0.0,0.0,0.0,0.0,0.0,0.0,0.0,0.0,0.0,0.0,0.0,0.0,0.0,0.0,0.0,0.0,0.0,0.0,0.0,0.0,0.0,0.0,0.0,0.0,0.0,0.0,0.0,0.0,0.0,0.0,0.0,0.0,0.0,0.0,0.0,0.0,0.0,0.0,0.0,0.0,0.0,0.0,0.0,0.0,0.0,0.0,0.0,0.0,0.0,0.0,0.0,0.0,0.0,0.0,0.0,0.0,0.0,0.0,0.0,0.0,0.0,0.0,0.0,0.0,0.0,0.0,0.0,0.0,0.0,0.0,0.0,0.0,0.0,0.0,4.7672,5.0655,5.2973,5.4583,5.569,5.5579,5.3697,5.1861,4.9708,4.7104,0.0,0.0,0.0,0.0,0.0,0.0,0.0,0.0,0.0,0.0,0.0,0.0,0.0,0.0,0.0,0.0,0.0,0.0,0.0,0.0,0.0,0.0,0.0,0.0,0.0,0.0,0.0,0.0,0.0,0.0,0.0,0.0,0.0,0.0,0.0,0.0,0.0,0.0,0.0,0.0,0.0,0.0,0.0,0.0,0.0,0.0,0.0,0.0,0.0,0.0,0.0,0.0,0.0,0.0,0.0,0.0,0.0,0.0,0.0,0.0,0.0,0.0,0.0,0.0,0.0,0.0,0.0,0.0,0.0,0.0,0.0,0.0,0.0,0.0,0.0,0.0,0.0,0.0,0.0,0.0,0.0,0.0,0.0,0.0,0.0,0.0,0.0,0.0,0.0,0.0,0.0,0.0,0.0,0.0,0.0,0.0,0.0,0.0,0.0,0.0,0.0,0.0,4.7672,5.0477,5.2606,5.4216,5.5102,5.4955,5.3324,5.2013,4.9983,4.6916,0.0,0.0,0.0,0.0,0.0,0.0,0.0,0.0,0.0,0.0,0.0,0.0,0.0,0.0,0.0,0.0,0.0,0.0,0.0,0.0,0.0,0.0,0.0,0.0,0.0,0.0,0.0,0.0,0.0,0.0,0.0,0.0,0.0,0.0,0.0,0.0,0.0,0.0,0.0,0.0,0.0,0.0,0.0,0.0,0.0,0.0,0.0,0.0,0.0,0.0,0.0,0.0,0.0,0.0,0.0,0.0,0.0,0.0,0.0,0.0,0.0,0.0,0.0,0.0,0.0,0.0,0.0,0.0,0.0,0.0,0.0,0.0,0.0,0.0,0.0,0.0,0.0,0.0,0.0,0.0,0.0,0.0,0.0,0.0,0.0,0.0,0.0,0.0,0.0,0.0,0.0,0.0,0.0,0.0,0.0,0.0,0.0,0.0,0.0,0.0,0.0,0.0,4.7672,5.0398,5.2496,5.4106,5.4955,5.4772,5.3214,5.2344,5.022,4.625,0.0,0.0,0.0,0.0,0.0,0.0,0.0,0.0,0.0,0.0,0.0,0.0,0.0,0.0,0.0,0.0,0.0,0.0,0.0,0.0,0.0,0.0,0.0,0.0,0.0,0.0,0.0,0.0,0.0,0.0,0.0,0.0,0.0,0.0,0.0,0.0,0.0,0.0,0.0,0.0,0.0,0.0,0.0,0.0,0.0,0.0,0.0,0.0,0.0,0.0,0.0,0.0,0.0,0.0,0.0,0.0,0.0,0.0,0.0,0.0,3.8248,3.8154,0.0,0.0,0.0,0.0,0.0,0.0,0.0,0.0,0.0,0.0,0.0,0.0,0.0,0.0,0.0,0.0,0.0,0.0,0.0,0.0,0.0,0.0,0.0,0.0,0.0,0.0,0.0,0.0,0.0,0.0,0.0,0.0,0.0,0.0,0.0,0.0,0.0,0.0,0.0,0.0,4.7672,4.9916,5.1678,5.3287,5.3618,5.3329,5.2349,5.1536,4.9843,4.7007,4.3819,0.0,0.0,0.0,0.0,0.0,0.0,0.0,0.0,0.0,0.0,0.0,0.0,0.0,0.0,0.0,0.0,0.0,0.0,0.0,0.0,0.0,0.0,0.0,0.0,0.0,0.0,0.0,0.0,0.0,0.0,0.0,0.0,0.0,0.0,0.0,0.0,0.0,0.0,0.0,0.0,0.0,0.0,0.0,0.0,0.0,0.0,0.0,0.0,0.0,0.0,0.0,0.0,0.0,0.0,0.0,0.0,0.0,0.0,0.0,4.0794,3.9986,0.0,0.0,0.0,0.0,0.0,0.0,0.0,0.0,0.0,0.0,0.0,0.0,0.0,0.0,0.0,0.0,0.0,0.0,0.0,0.0,0.0,0.0,0.0,0.0,0.0,0.0,0.0,0.0,0.0,0.0,0.0,0.0,0.0,0.0,0.0,0.0,0.0,0.0,0.0,0.0,4.7154,4.9187,5.0844,5.2449,5.2637,5.2307,5.1505,5.1059,4.9586,4.6682,4.4232,0.0,0.0,0.0,0.0,0.0,0.0,0.0,0.0,0.0,0.0,0.0,0.0,0.0,0.0,0.0,0.0,0.0,0.0,0.0,0.0,0.0,0.0,0.0,0.0,0.0,0.0,0.0,0.0,0.0,0.0,0.0,0.0,0.0,0.0,0.0,0.0,0.0,0.0,0.0,0.0,0.0,0.0,0.0,0.0,0.0,0.0,0.0,0.0,0.0,0.0,0.0,0.0,0.0,4.415,4.4812,4.5414,4.5854,4.6302,4.6575,4.429,4.2873,4.2184,4.2174,0.0,0.0,0.0,0.0,0.0,0.0,0.0,0.0,0.0,0.0,0.0,0.0,0.0,0.0,0.0,0.0,0.0,0.0,0.0,0.0,0.0,0.0,4.5218,4.4681,4.508,4.503,4.3195,0.0,0.0,0.0,0.0,0.0,0.0,0.0,0.0,0.0,0.0,0.0,4.6599,4.8563,5.023,5.184,5.1987,5.1725,5.1059,5.087,4.9517,4.6507,4.4676,4.2694,0.0,0.0,0.0,0.0,0.0,0.0,0.0,0.0,0.0,0.0,0.0,0.0,0.0,0.0,0.0,0.0,0.0,0.0,0.0,0.0,0.0,0.0,0.0,0.0,0.0,0.0,0.0,0.0,0.0,0.0,0.0,0.0,3.9287,3.9316,0.0,0.0,0.0,0.0,0.0,0.0,0.0,0.0,0.0,0.0,0.0,0.0,0.0,4.2746,4.3655,4.4678,4.5528,4.6271,4.7023,4.7641,4.8203,4.8756,4.8941,4.8727,4.7633,0.0,4.5254,4.364,0.0,0.0,0.0,0.0,0.0,0.0,0.0,0.0,0.0,0.0,0.0,0.0,0.0,0.0,0.0,0.0,0.0,0.0,0.0,0.0,0.0,0.0,4.8008,4.8646,4.8871,4.905,4.9444,4.665,4.3636,4.2249,4.1254,4.0149,0.0,0.0,0.0,0.0,0.0,0.0,4.6672,4.8563,5.023,5.184,5.1987,5.1945,5.1835,5.1206,4.999,4.8118,4.5801,4.3787,4.2066,3.968,0.0,0.0,0.0,0.0,0.0,0.0,0.0,0.0,0.0,0.0,0.0,0.0,0.0,0.0,0.0,0.0,0.0,0.0,0.0,0.0,0.0,0.0,0.0,0.0,0.0,0.0,0.0,0.0,0.0,3.9176,3.9801,4.0235,4.0605,4.0552,0.0,0.0,0.0,0.0,0.0,0.0,0.0,0.0,0.0,4.3139,4.4422,4.5485,4.6256,4.7147,4.7923,4.8656,4.9393,5.0078,5.0748,5.1469,5.1467,5.0899,5.0117,4.9208,4.8131,4.5788,4.4655,4.4339,0.0,0.0,0.0,0.0,4.3983,4.4253,4.3605,4.3068,4.2509,4.1428,0.0,0.0,0.0,0.0,0.0,0.0,0.0,4.4352,4.5918,4.7775,4.9346,4.9721,4.983,4.9956,5.0378,4.9121,4.7451,4.5966,4.3938,4.2066,4.0924,3.8656,0.0,0.0,0.0,4.331,4.6058,4.7865,4.9481,5.1132,5.1316,5.1505,5.1945,5.1242,5.0288,4.9123,4.7163,4.5544,4.4378,4.1992,4.012,0.0,0.0,0.0,0.0,0.0,0.0,0.0,0.0,0.0,0.0,0.0,0.0,0.0,0.0,0.0,0.0,0.0,0.0,0.0,0.0,0.0,0.0,0.0,0.0,0.0,0.0,0.0,0.0,4.0013,4.0577,4.1528,4.1847,4.1664,0.0,0.0,0.0,0.0,0.0,0.0,4.255,4.3139,4.4161,4.5684,4.6969,4.7909,4.8469,4.918,4.983,5.0379,5.1141,5.1784,5.2334,5.3137,5.3171,5.2562,5.1607,5.0905,5.02,4.7678,4.6433,4.605,4.5832,4.5821,4.5959,4.6003,4.6397,4.6878,4.6649,4.6155,4.5528,4.4805,4.3812,4.2742,4.179,0.0,0.0,0.0,0.0,4.5917,4.7474,4.9201,5.0496,5.0291,5.0405,5.0559,5.054,5.0549,5.008,4.8571,4.6191,4.4085,4.3094,4.0602,0.0,4.169,4.2535,4.3713,4.592,4.7645,4.9187,5.065,5.0986,5.1426,5.2239,5.1389,5.0545,4.9931,4.8154,4.6824,4.6246,4.408,4.2249,4.0863,0.0,0.0,0.0,0.0,0.0,0.0,0.0,0.0,0.0,0.0,0.0,0.0,0.0,0.0,0.0,0.0,0.0,0.0,0.0,0.0,0.0,0.0,0.0,0.0,0.0,0.0,0.0,0.0,0.0,4.3479,4.4378,0.0,0.0,0.0,0.0,4.3374,4.3274,4.4167,4.6387,4.6556,4.7267,4.8748,4.9534,4.994,4.9973,5.0736,5.11,5.1167,5.1886,5.2266,5.2334,5.3137,5.3475,5.3374,5.1844,5.1167,5.0964,4.8755,4.7546,4.7066,4.6631,4.6965,4.7664,4.7554,4.8313,4.9353,4.8954,4.8801,4.8666,4.7913,4.606,4.4023,4.3517,4.2519,0.0,0.0,4.5,4.66,4.8143,5.0246,5.1821,5.1124,5.1533,5.1986,5.1612,5.1185,5.0351,4.8563,4.7523,4.642,4.4842,0.0,4.2612,4.4259,4.4549,4.5172,4.6819,4.8489,4.9858,5.0729,5.1463,5.2275,5.3067,5.1715,5.0765,5.0724,4.8443,4.7076,4.7039,4.5471,4.419,4.3327,4.0936,0.0,0.0,0.0,0.0,0.0,0.0,0.0,0.0,0.0,0.0,0.0,0.0,0.0,0.0,0.0,0.0,0.0,0.0,0.0,0.0,0.0,0.0,0.0,0.0,0.0,0.0,0.0,0.0,4.4862,4.5719,0.0,4.5093,4.4401,4.4469,4.5586,4.563,4.6549,4.8789,4.9838,5.0574,5.1116,5.2334,5.2782,5.23,5.2562,5.2697,5.2697,5.3416,5.3797,5.3797,5.4558,5.4389,5.3484,5.2934,5.2114,5.1133,5.0356,4.9431,4.8522,4.9032,4.9352,4.9603,4.96,5.0111,5.0774,5.0526,5.0423,5.0244,4.9084,4.7573,4.6089,4.5525,4.4849,4.4452,4.5476,4.6879,4.8358,4.9432,5.1067,5.2242,5.1501,5.1542,5.15,5.0508,5.0361,5.0026,4.8557,4.8493,4.8347,4.72,4.5695,4.4819,4.5402,4.5911,4.664,4.7741,4.9334,5.0697,5.1505,5.184,5.2344,5.3141,5.1715,5.0797,5.0797,4.8962,4.7856,4.7856,4.6824,4.5613,4.4305,4.1911,3.9643,0.0,0.0,0.0,0.0,0.0,0.0,0.0,0.0,0.0,0.0,0.0,0.0,0.0,0.0,0.0,0.0,0.0,0.0,0.0,0.0,0.0,0.0,0.0,0.0,0.0,4.2554,4.4444,4.623,4.709,4.7462,4.7225,4.6522,4.6597,4.7808,4.7909,4.8755,5.0752,5.1758,5.2435,5.2706,5.3687,5.3991,5.3509,5.3509,5.3611,5.389,5.4372,5.4744,5.5006,5.5471,5.5166,5.4219,5.3712,5.2934,5.1945,5.1674,5.1062,5.03,5.0698,5.0994,5.117,5.1222,5.1655,5.2158,5.2028,5.1979,5.1792,5.0618,4.9517,4.8482,4.7833,4.727,4.6962,4.7699,4.8835,4.9978,5.0757,5.1916,5.2655,5.1629,5.1395,5.0993,4.9521,4.9313,4.9167,4.8441,4.9084,4.9506,4.8685,4.7475,4.6703,4.7034,4.7319,4.7783,4.8636,5.0178,5.1394,5.195,5.2239,5.2527,5.2779,5.1568,5.0692,5.0398,4.8815,4.7893,4.7893,4.7117,4.6058,4.4737,4.2028,3.973,3.7813,0.0,0.0,0.0,0.0,0.0,0.0,0.0,0.0,0.0,0.0,0.0,0.0,0.0,0.0,0.0,0.0,0.0,0.0,0.0,0.0,0.0,0.0,0.0,4.1325,4.3315,4.5481,4.7684,4.8605,4.9357,5.0109,4.956,4.9458,5.0176,5.0244,5.0853,5.23,5.2367,5.2706,5.3475,5.3509,5.3543,5.3543,5.3551,5.3923,5.4642,5.4642,5.504,5.5733,5.5767,5.5767,5.5665,5.4219,5.3577,5.3509,5.2739,5.2401,5.2334,5.1581,5.1716,5.2334,5.2334,5.2841,5.3509,5.3509,5.3509,5.3382,5.257,5.1818,5.11,5.0338,4.9593,4.9187,4.9872,5.0608,5.1336,5.2063,5.2833,5.3069,5.1573,5.1201,5.068,4.8782,4.8057,4.7854,4.8166,4.9186,4.9836,4.9126,4.8468,4.8356,4.9245,4.8815,0.0,4.9532,5.1032,5.2055,5.2055,5.2742,5.2852,5.2055,5.1242,5.044,4.9605,4.8008,4.7076,4.7076,4.6319,4.5516,4.4663,4.1493,3.9358,3.8401,0.0,0.0,0.0,0.0,0.0,0.0,0.0,0.0,0.0,0.0,0.0,0.0,0.0,0.0,0.0,0.0,0.0,0.0,0.0,0.0,0.0,4.073,4.1968,4.2726,4.4777,4.6827,4.8503,4.9822,5.0871,5.1623,5.2029,5.257,5.3289,5.3357,5.3526,5.3966,5.3966,5.3822,5.3509,5.4025,5.4304,5.4304,5.4828,5.5192,5.5403,5.5953,5.6292,5.6528,5.7036,5.7002,5.6452,5.6089,5.5572,5.5099,5.4862,5.4761,5.4651,5.3374,5.3002,5.3171,5.3171,5.3306,5.3509,5.3509,5.3509,5.3382,5.257,5.2156,5.1758,5.0481,4.9973,4.9737,4.939,4.983,5.0439,5.065,5.1657,5.2393,5.1438,5.1201,5.0648,4.861,4.7814,4.7245,4.6355,4.7528,4.877,4.9084,4.9189,4.9184,4.9133,4.9667,5.021,5.044,5.1861,5.2852,5.2852,5.3067,5.2852,5.2055,5.1242,5.0178,4.8746,4.7672,4.6824,4.6246,4.603,4.5264,4.3869,4.1653,3.9953,0.0,0.0,0.0,0.0,0.0,0.0,0.0,0.0,0.0,0.0,0.0,0.0,0.0,0.0,0.0,0.0,0.0,0.0,0.0,0.0,0.0,0.0,4.2293,4.3748,4.508,4.644,4.78,4.9289,5.0769,5.2089,5.3145,5.3983,5.4591,5.504,5.5074,5.4938,5.4609,5.4609,5.4262,5.3509,5.4236,5.4609,5.4609,5.5336,5.5877,5.6181,5.6587,5.6968,5.7282,5.7688,5.7654,5.7239,5.6934,5.6553,5.6147,5.5834,5.5699,5.5597,0.0,0.0,0.0,0.0,5.3957,5.3923,5.3619,5.3509,5.3408,5.2942,5.2807,5.257,5.1386,5.0811,5.0405,4.9661,4.956,4.9703,5.0007,5.098,5.1716,5.1302,5.1438,5.1098,4.8949,4.802,4.7295,4.6212,4.6859,0.0,4.885,4.9595,5.0036,4.9941,5.0702,5.1316,5.1316,5.2407,5.3214,5.3214,5.3214,5.2852,5.2055,5.1242,0.0,0.0,0.0,4.6209,4.532,4.5603,0.0,0.0,0.0,0.0,0.0,0.0,0.0,0.0,3.6529,3.5938,0.0,0.0,0.0,0.0,0.0,0.0,0.0,0.0,0.0,0.0,0.0,0.0,0.0,0.0,0.0,0.0,4.3789,4.5473,4.7616,4.7981,4.8563,5.0041,5.1522,5.3044,5.4575,5.5471,5.5936,5.5936,5.5936,5.564,5.4879,5.4778,0.0,0.0,0.0,5.4778,5.4846,5.5572,5.6283,5.6934,5.6934,5.7282,5.7891,5.7891,5.7891,5.7857,5.7205,5.6934,5.6867,5.6215,5.5936,5.5936,5.5767,5.5699,5.5631,5.4972,5.471,5.4642,5.3991,0.0,0.0,5.3653,5.3611,5.345,5.2469,5.1716,5.104,5.0202,4.9492,4.9154,4.9804,5.0574,5.1201,5.1201,5.175,5.1725,4.9593,4.8537,4.7785,4.6962,4.6861,4.733,4.8559,4.9753,5.0659,5.1104,5.1634,5.1987,5.1987,5.2706,5.3214,5.3214,5.3214,0.0,5.2055,5.1358,5.0508,4.9532,4.7191,4.5462,4.4503,4.5176,4.5581,4.5678,4.4764,4.416,4.3824,4.2769,4.1988,4.1433,3.8524,3.7387,0.0,0.0,0.0,0.0,0.0,0.0,0.0,0.0,0.0,0.0,0.0,0.0,0.0,0.0,0.0,4.366,4.4898,4.6034,4.7684,4.8394,4.9315,5.0803,5.2325,5.3847,5.5336,5.6697,5.7476,5.7476,5.7476,5.7137,5.6427,5.5809,5.5428,5.5293,5.5403,5.5775,5.6359,5.7112,5.7552,5.7688,5.7688,0.0,5.7891,5.7891,5.7891,5.7891,5.7755,5.7688,5.7688,5.7518,5.7476,5.7349,5.6147,5.5699,5.5665,5.553,5.5505,5.5471,5.5327,5.5259,5.5192,5.4566,5.4406,5.4025,5.2021,5.1302,0.0,4.9586,4.912,4.9044,4.9187,5.0194,5.1201,5.1201,5.175,5.186,5.0244,4.9323,4.8402,4.7064,4.7286,4.789,4.8526,4.9415,5.024,5.079,5.1532,5.1987,5.1987,5.2706,5.3214,5.3214,5.3214,5.2852,5.2055,5.1877,5.0844,4.8705,4.6724,4.5435,4.4908,4.51,4.5461,4.605,4.5743,4.5661,4.5851,4.5308,4.4646,4.3878,4.1213,3.9991,0.0,0.0,0.0,0.0,0.0,0.0,0.0,0.0,0.0,0.0,0.0,3.8888,4.0371,0.0,4.2489,4.4797,4.5771,4.6786,4.8225,4.8774,4.9552,5.1032,5.2562,5.4084,5.5564,5.7036,5.7891,5.7891,5.7891,5.7586,5.6833,5.6452,5.6071,5.5699,5.6071,5.6418,5.6799,5.7518,5.7891,5.7891,5.7891,5.7891,5.7891,5.7891,5.7891,5.7891,5.7891,5.7891,5.7891,5.7891,5.7891,5.7823,5.7103,5.6799,5.6765,5.6384,5.6249,5.6215,5.5834,5.5699,5.5631,5.5268,5.4905,5.4304,5.2799,5.181,5.0964,4.9864,4.9289,4.9078,4.9458,5.0364,5.1302,5.1649,5.2325,5.2604,5.1454,5.0913,5.0338,4.9221,4.9315,4.9574,4.9591,4.9791,5.02,5.0982,5.1723,5.2202,5.2304,5.2723,5.3028,5.3092,5.3518,5.3455,5.2564,5.2013,5.0634,4.8128,4.7322,4.6455,4.5319,4.5999,4.6612,4.7054,4.7221,4.7316,4.7384,4.6921,4.6364,4.5657,4.4395,4.3154,0.0,0.0,0.0,0.0,0.0,0.0,0.0,3.6879,3.7636,3.8396,3.9715,4.098,4.1711,4.2956,4.4336,4.5865,4.6752,4.7699,4.9018,4.9349,4.9924,5.1277,5.2664,5.4084,5.5564,5.7036,5.7891,5.7891,5.7891,5.7654,5.7036,5.7002,5.6722,5.6147,5.6689,5.7002,5.7002,5.7586,5.7891,5.7891,5.7891,5.7891,5.7891,5.7891,5.7891,5.7891,5.7891,5.7891,5.7891,5.7891,5.7891,5.7891,5.7891,5.7891,5.7823,5.7239,5.7002,5.6934,5.6316,5.6147,5.6105,5.5969,5.5403,5.4642,5.3788,5.2528,5.1277,5.0507,4.9898,4.9552,5.0176,5.0879,5.1573,5.2164,5.29,5.3281,5.2469,5.23,5.2089,5.1336,5.1201,5.106,5.0619,5.0358,5.0355,5.0928,5.153,5.1997,5.216,5.2453,5.2786,5.3118,5.3898,5.4025,5.3127,5.207,5.0468,4.8196,4.82,4.7595,4.6,4.7081,4.7846,4.8081,4.8521,4.8728,4.8708,4.8225,4.7753,4.7233,4.7233,4.6075,3.5819,3.5893,3.6451,3.6519,3.7116,3.7815,0.0,3.9186,3.9937,4.0696,4.2009,4.3261,4.4059,4.4891,4.5933,4.7413,4.8266,4.9052,4.9872,5.0533,5.1277,5.2089,5.2968,5.4084,5.5564,5.7036,5.7891,5.7891,5.7891,5.7857,5.7789,5.7789,5.7721,5.7654,5.7721,5.7789,5.7789,5.7857,5.7891,5.7891,5.7891,5.7891,5.7891,5.7891,5.7891,5.7891,5.7891,5.7891,5.7891,5.7891,5.7891,5.7891,5.7891,5.7891,5.79,5.7823,5.7789,5.7755,5.7688,5.7654,5.7552,5.69,5.6181,5.5327,5.3915,5.2866,5.2021,5.1269,5.1032,5.0964,5.1066,5.1615,5.2198,5.2266,5.29,5.3281,5.2469,5.23,5.2089,5.1336,5.1201,5.1028,5.0514,5.0591,5.0461,4.9716,4.9992,5.0365,5.0623,5.1544,5.2584,5.3589,5.4129,5.4081,5.3314,5.227,5.1081,4.9735,4.8796,4.8063,4.7487,4.7682,4.809,4.8777,4.8903,4.925,4.9833,4.9574,4.9231,4.8748,4.8748,4.7902,3.6626,3.6846,3.7556,3.7968,3.8971,3.9912,4.0223,4.117,4.2252,4.3003,4.4012,4.4986,4.5751,4.6116,4.6819,4.83,4.9154,4.9906,5.0634,5.1378,5.1784,5.1674,5.2325,5.3416,5.4905,5.6393,5.7273,5.7273,5.7654,5.7891,5.7891,5.7891,5.7891,5.7891,5.7891,5.7891,5.7891,5.7891,5.7891,5.7891,5.7891,5.7891,5.7891,5.7891,5.7891,5.7891,5.7891,5.7891,5.7891,5.7891,5.7891,5.7891,5.7891,5.7891,5.7891,5.7891,5.7891,5.7891,5.7891,5.7891,5.7857,5.7552,5.6934,5.6215,5.5606,5.4896,5.4118,5.3382,5.3179,5.3078,5.2664,5.2765,5.3002,5.3002,5.3272,5.3408,5.3069,5.3002,5.29,5.2596,5.2528,5.2316,5.1619,5.0898,5.0275,4.987,5.0042,5.0316,5.0606,5.1245,5.2365,5.4182,5.4291,5.4223,5.4245,5.3127,5.1784,5.0232,4.9555,4.8716,4.7562,4.7932,4.8331,4.8727,4.911,4.9467,4.9815,4.9533,4.9267,4.9011,4.9011,4.868,3.719,3.7658,3.839,3.9106,4.0257,4.1299,4.1705,4.2645,4.3633,4.4432,4.5203,4.594,4.6658,4.7131,4.7808,4.9086,5.0278,5.1217,5.175,5.2469,5.2739,5.219,5.2435,5.3078,5.4203,5.5615,5.6587,5.6799,5.7485,5.7891,5.7891,5.7891,5.7891,5.7891,5.7891,5.7891,5.7891,5.7891,5.7891,5.7891,5.7891,5.7891,5.7891,5.7891,5.7891,5.7891,5.7891,5.7891,5.7891,5.7891,5.7891,5.7891,5.7891,5.7891,5.7891,5.7891,5.7891,5.7891,5.7891,5.7891,5.7891,5.7891,5.7408,5.6799,5.6799,5.6283,5.5597,5.504,5.4778,5.4473,5.3923,5.3653,5.3509,5.3509,5.3509,5.3509,5.3509,5.3509,5.3509,5.3509,5.3509,5.3239,5.2435,5.142,5.065,5.0439,5.0526,5.0661,5.0732,5.1517,5.2756,5.4541,5.4568,5.445,5.4514,5.3581,5.233,5.0634,5.0187,4.9406,4.8187,4.8406,4.8618,4.8709,4.9138,4.9403,4.9508,4.926,4.9084,4.9011,4.9011,4.9011,3.7686,3.8396,3.9146,3.9872,4.065,4.1569,4.3017,4.3382,4.3633,4.4432,4.5203,4.594,4.6658,4.797,4.9187,4.994,5.1928,5.3416,5.3441,5.4059,5.4507,5.4507,5.389,5.3475,5.3543,5.4853,5.6037,5.6765,5.7485,5.7891,5.7891,5.7891,5.7891,5.7891,5.7891,5.7891,5.7891,5.7891,5.7891,5.7891,5.7891,5.7891,5.7891,5.7891,5.7891,5.7891,5.7891,5.7891,5.7891,5.7891,5.7891,5.7891,5.7891,5.7891,5.7891,5.7891,5.7891,5.7891,5.7891,5.7891,5.7891,5.7891,5.7408,5.6799,5.6799,5.6283,5.5699,5.5665,5.5141,5.4575,5.4575,5.4033,5.3509,5.3509,5.3509,5.3509,5.3509,5.3509,5.3509,5.3509,5.3509,5.3239,5.2435,5.2266,5.1987,5.1269,5.1158,5.103,5.0643,5.2508,5.3982,5.4443,5.4951,5.4791,5.3638,5.3287,5.2556,5.124,5.0471,5.0072,5.0031,4.9338,4.8966,4.9,4.9,4.9034,4.9034,4.9026,4.8984,4.9011,4.9011,4.9011,3.9017,3.9891,4.0629,4.1373,4.2111,4.278,4.3288,4.3802,4.4255,4.454,4.4804,4.521,4.594,4.7286,4.8672,4.9906,5.2409,5.4228,5.4228,5.5285,5.5683,5.471,5.4372,5.4033,5.3543,5.4397,5.5074,5.531,5.6461,5.7171,5.7171,5.762,5.7891,5.7891,5.7891,5.7891,5.7891,5.7891,5.7891,5.7891,5.7891,5.7891,5.7891,5.7891,5.7891,5.7891,5.7891,5.7891,5.7891,5.7891,5.7891,5.7891,5.7891,5.7891,5.7891,5.7891,5.7891,5.7891,5.7891,5.7891,5.7891,5.7891,5.7721,5.7518,5.7518,5.7349,5.707,5.6562,5.6258,5.5953,5.5471,5.5133,5.4964,5.4964,5.4964,5.4828,5.4329,5.4228,5.4093,5.3577,5.3509,5.3408,5.3145,5.2664,5.2232,5.1953,5.1619,5.1403,5.1469,5.2651,5.3653,5.4011,5.4477,5.4541,5.3999,5.3683,5.3052,5.2012,5.1691,5.1352,5.0837,5.06,5.0465,5.0465,5.0465,5.0465,5.0465,5.0465,5.0194,4.9737,4.9737,4.9458,4.0506,4.1217,4.1779,4.2523,4.3051,4.349,4.3768,4.4228,4.4506,4.4222,4.4188,4.437,4.5057,4.6563,4.8176,4.969,5.2649,5.4798,5.4877,5.5977,5.6461,5.5488,5.5141,5.4803,5.4321,5.4465,5.4609,5.4609,5.5716,5.6519,5.6799,5.7485,5.7891,5.7891,5.7891,5.7891,5.7891,5.7891,5.7891,5.7891,5.7891,5.7891,5.7891,5.7891,5.7891,5.7891,5.7891,5.7891,5.7891,5.7891,5.7891,5.7891,5.7891,5.7891,5.7891,5.7891,5.7891,5.7891,5.7891,5.7891,5.7891,5.7891,5.7891,5.7891,5.7891,5.7891,5.7789,5.734,5.7002,5.6697,5.6215,5.5902,5.5699,5.5699,5.5699,5.5564,5.5108,5.5006,5.4837,5.4389,5.405,5.389,5.389,5.3247,5.2739,5.2739,5.2432,5.2273,5.2466,5.3003,5.3531,5.402,5.4342,5.4489,5.4348,5.4158,5.3643,5.2782,5.2469,5.2097,5.1607,5.1336,5.1201,5.1201,5.1201,5.1201,5.1201,5.1201,5.0972,5.0473,5.0473,5.0236,4.1988,4.2401,4.2597,4.3288,4.3457,4.3666,4.4438,4.4608,4.4364,4.3531,4.3355,4.351,4.4072,4.5809,4.7645,4.9238,5.2601,5.5082,5.5322,5.6235,5.6867,5.69,5.6274,5.5868,5.58,5.5141,5.471,5.4676,5.5302,5.6003,5.6697,5.7485,5.7891,5.7891,5.7891,5.7891,5.7891,5.7891,5.7924,5.7958,5.7924,5.7891,5.7891,5.7891,5.7891,5.7891,5.7891,5.7891,5.7891,5.7891,5.7891,5.7891,5.7891,5.7891,5.7891,5.7891,5.7891,5.7891,5.7891,5.7891,5.7891,5.7891,5.7891,5.7891,5.7891,5.7891,5.7891,5.7891,5.7408,5.6867,5.6867,5.635,5.58,5.58,5.58,5.58,5.5767,5.5767,5.5733,5.5699,5.5133,5.4676,5.4676,5.4093,5.3611,5.3611,5.3577,5.3551,5.3509,5.3509,5.3788,5.4473,5.4541,5.4541,5.4541,5.4541,5.427,5.3551,5.2773,5.2359,5.2359,5.1683,5.1336,5.1336,5.1336,5.1336,5.1336,5.1336,5.1302,5.1269,5.1269,5.1235,4.2855,4.3579,4.4059,4.4262,4.4289,4.4364,4.454,4.4608,4.4235,4.2868,4.2591,4.2544,4.2473,4.3876,4.5763,4.7828,5.1289,5.3996,5.4834,5.6486,5.7814,5.838,5.8269,5.794,5.7374,5.6664,5.6021,5.5471,5.5597,5.5767,5.5969,5.7205,5.7891,5.7891,5.7891,5.7891,5.7891,5.7891,5.8186,5.8718,5.8152,5.7891,5.7891,5.7891,5.7891,5.7891,5.7891,5.7891,5.7891,5.7891,5.7891,5.7891,5.7891,5.7891,5.7891,5.7891,5.7891,5.7891,5.7891,5.7891,5.7891,5.7891,5.7891,5.7891,5.7891,5.7891,5.7891,5.7891,5.7755,5.762,5.762,5.7485,5.7349,5.7349,5.7349,5.7171,5.663,5.6519,5.635,5.58,5.5539,5.5437,5.5437,5.5259,5.5124,5.5124,5.4668,5.4126,5.3577,5.3509,5.3577,5.3754,5.3788,5.3788,5.3788,5.3788,5.3687,5.3509,5.3306,5.3171,5.3171,5.3002,5.29,5.29,5.29,5.29,5.29,5.29,5.2596,5.2021,5.2021,5.1716,4.3707,4.4485,4.5007,4.4675,4.4838,4.5007,4.4668,4.433,4.3727,4.2483,4.1916,4.1601,4.1434,4.274,4.4585,4.6835,5.0421,5.33,5.4389,5.6041,5.7441,5.8163,5.8265,5.8268,5.8251,5.7962,5.7602,5.7187,5.624,5.5834,5.6181,5.7273,5.7891,5.7891,5.7891,5.806,5.8389,5.8693,5.8896,5.9013,5.8592,5.822,5.7891,5.7891,5.7891,5.7891,5.7891,5.7891,5.7891,5.7891,5.8094,5.8389,5.8389,5.8592,5.8872,5.8872,5.8872,5.8872,5.8872,5.8872,5.877,5.8094,5.7891,5.7891,5.7891,5.7891,5.7891,5.7891,5.7891,5.7891,5.7891,5.7891,5.7891,5.7891,5.7891,5.7789,5.7383,5.7282,5.707,5.6316,5.6181,5.6071,5.5767,5.5699,5.5699,5.5699,5.5336,5.4803,5.4093,5.3687,5.3611,5.3957,5.3991,5.3991,5.3991,5.3991,5.3856,5.3509,5.3509,5.3509,5.3509,5.3509,5.3509,5.3509,5.3509,5.3509,5.3509,5.3509,5.3281,5.2841,5.2841,5.2596,4.4533,4.5203,4.5561,4.5041,4.5304,4.55,4.477,4.3978,4.3105,4.2139,4.1265,4.0712,4.0783,4.1961,4.3701,4.6072,4.9746,5.2721,5.379,5.5097,5.6244,5.7086,5.7272,5.7758,5.8796,5.9345,5.952,5.9327,5.7525,5.6612,5.7061,5.7789,5.8195,5.8195,5.8195,5.8558,5.9284,5.9834,5.9834,5.9284,5.9191,5.8819,5.8195,5.8195,5.8195,5.8195,5.8195,5.8127,5.806,5.8161,5.8524,5.9013,5.9115,5.953,6.0114,6.0114,6.0114,6.0114,6.0114,6.0114,5.9877,5.8601,5.8195,5.8161,5.8094,5.806,5.8026,5.7924,5.7891,5.7891,5.7891,5.7891,5.7891,5.7891,5.7891,5.7891,5.7891,5.7891,5.7721,5.707,5.6934,5.6722,5.6105,5.6003,5.6003,5.6003,5.5911,5.5606,5.4981,5.4262,5.3991,5.4541,5.4676,5.4744,5.4744,5.4744,5.4465,5.3814,5.378,5.378,5.378,5.378,5.378,5.378,5.378,5.378,5.378,5.3678,5.3653,5.3644,5.3551,5.3509,4.5304,4.5594,4.5838,4.6285,4.6075,4.55,4.477,4.3978,4.2942,4.1345,4.0613,4.0217,4.0241,4.0696,4.2088,4.5191,4.8654,5.1312,5.2408,5.3752,5.5104,5.6394,5.7144,5.8215,5.9847,6.166,6.2202,6.0984,6.0544,5.9834,5.8684,5.9327,5.9708,5.9708,5.9708,6.0114,6.0883,6.0385,6.0385,6.0883,6.0216,5.9844,5.9708,5.9708,5.9708,5.9708,5.9708,5.9361,5.8853,5.9471,5.9428,5.9056,5.9665,5.9979,6.0114,6.0114,6.0114,6.0114,6.0114,6.0114,6.0047,5.981,5.9708,5.9607,5.8989,5.8819,5.8684,5.806,5.7891,5.7891,5.7891,5.7891,5.7891,5.7891,5.7891,5.7891,5.7891,5.7891,5.7857,5.7721,5.7721,5.7654,5.7552,5.7518,5.7518,5.7518,5.7002,5.6553,5.6427,5.5775,5.5133,5.4642,5.5141,5.5496,5.5496,5.5496,5.5462,5.5327,5.5327,5.5327,5.5327,5.5327,5.5327,5.5327,5.5327,5.5327,5.5327,5.4702,5.4406,5.4406,5.3788,5.3509,4.6041,4.6357,4.6477,4.5951,4.5507,4.4893,4.3769,4.2624,4.1543,4.0446,3.9591,3.9127,3.9404,3.9686,4.104,4.4655,4.796,5.0567,5.1999,5.3081,5.4194,5.5504,5.6264,5.7545,5.9781,6.2238,6.3464,6.2902,6.2616,6.1593,5.9665,5.9902,6.0114,6.0114,6.052,6.0926,6.1298,6.1308,6.1308,6.1298,6.0926,6.052,6.0114,6.0114,6.0114,6.0114,6.0114,5.9911,5.9597,5.9945,6.0148,6.024,6.0588,6.096,6.1308,6.1308,6.1308,6.1308,6.1308,6.1308,6.1308,6.1308,6.0757,5.9945,5.9225,5.9013,5.8853,5.8094,5.7891,5.7891,5.7891,5.8186,5.8457,5.8457,5.877,5.9032,5.9032,5.9032,5.9032,5.9032,5.8727,5.8457,5.8457,5.8161,5.7891,5.7891,5.7586,5.7239,5.6867,5.6833,5.6427,5.5277,5.5496,5.5699,5.5699,5.5699,5.5868,5.6249,5.5902,5.5868,5.6249,5.5902,5.5699,5.5699,5.5699,5.5699,5.5699,5.5336,5.5175,5.5166,5.4828,5.4651,4.6986,4.7193,4.706,4.5553,4.4756,4.3976,4.2495,4.1079,3.9907,3.9332,3.8466,3.7936,3.8441,3.8814,4.0235,4.3898,4.7372,5.0102,5.1537,5.2431,5.3376,5.455,5.5177,5.6631,5.9433,6.2374,6.4182,6.4344,6.3981,6.2811,6.0689,6.0588,6.0588,6.0588,6.1197,6.1535,6.1535,6.212,6.212,6.1535,6.1535,6.1197,6.0588,6.0588,6.0588,6.0588,6.0588,6.0486,6.0385,6.052,6.0858,6.1332,6.1467,6.1883,6.2391,6.2391,6.2391,6.2391,6.2391,6.2391,6.2391,6.2391,6.1579,6.0452,5.9733,5.9487,5.9327,5.8601,5.8364,5.8364,5.8364,5.8795,5.9259,5.9259,5.9665,6.0114,6.0114,6.0114,6.0114,6.0114,5.9631,5.9191,5.9022,5.8524,5.8094,5.7924,5.7891,5.7688,5.7103,5.7552,5.7451,5.6283,5.6181,5.6181,5.6181,5.6308,5.6646,5.723,5.6722,5.668,5.7264,5.6553,5.6181,5.6181,5.6181,5.6181,5.6181,5.6003,5.5936,5.5936,5.5767,5.5699,4.8409,4.7963,4.7325,4.6241,4.4602,4.2872,4.1466,4.0059,3.8781,3.7797,3.7139,3.6855,3.728,3.7958,3.9436,4.2355,4.6633,4.9747,5.0237,5.1336,5.2507,5.3534,5.4279,5.6015,5.9383,6.2814,6.473,6.4569,6.4524,6.3835,6.2255,6.2188,6.2188,6.2188,6.2255,6.2289,6.2289,6.2357,6.2357,6.2289,6.2289,6.2255,6.2188,6.2188,6.2188,6.2188,6.2188,6.1815,6.1231,6.1917,6.1849,6.1366,6.2052,6.2357,6.2391,6.2391,6.2391,6.2391,6.2391,6.2391,6.2391,6.2391,6.2289,6.2052,6.1298,6.1095,6.0926,6.0114,5.9911,5.9911,5.9911,5.9945,6.0013,6.0013,6.0047,6.0114,6.0114,6.0114,6.0114,6.0114,6.0047,5.981,5.9124,5.8955,5.8684,5.7992,5.7891,5.7891,5.7823,5.7857,5.7857,5.7721,5.7688,5.7688,5.7688,5.8312,5.8709,5.8776,5.8743,5.8709,5.8776,5.8084,5.7688,5.7688,5.7688,5.7688,5.7688,5.7036,5.6697,5.6689,5.6003,5.5699,4.8473,4.8313,4.7728,4.5736,4.3828,4.1971,4.0213,3.8707,3.7544,3.696,3.6577,3.6505,3.6983,3.7667,3.9165,4.2283,4.5923,4.8753,4.9946,5.1237,5.2304,5.3015,5.3862,5.5403,5.7958,6.1512,6.3956,6.4554,6.5011,6.4613,6.3149,6.3463,6.37,6.37,6.37,6.37,6.37,6.3294,6.3047,6.3047,6.2627,6.2391,6.2391,6.2391,6.2391,6.2391,6.2391,6.2221,6.1985,6.2289,6.2221,6.1975,6.2289,6.2391,6.2391,6.2391,6.2391,6.2391,6.2391,6.2391,6.2391,6.2391,6.2391,6.2255,6.1535,6.1298,6.1129,6.0317,6.0114,6.0114,6.0114,6.0452,6.0926,6.1376,6.1477,6.1477,6.1477,6.1477,6.1477,6.1477,6.1129,6.0723,6.0443,5.9622,5.8912,5.8616,5.8186,5.7891,5.7891,5.8287,5.8558,5.8558,5.8152,5.7891,5.7891,5.8592,5.9191,5.9631,5.9259,5.9191,5.9631,5.8533,5.7891,5.7891,5.7891,5.7891,5.7891,5.762,5.7451,5.7451,5.7171,5.7036,4.8219,4.8256,4.7736,4.5189,4.3166,4.1353,3.9526,3.8048,3.6999,3.6799,3.6655,3.6718,3.7218,3.7944,3.9378,4.2039,4.4934,4.7382,4.8951,5.0469,5.1652,5.2196,5.3152,5.4626,5.6706,6.044,6.3283,6.4508,6.5097,6.4918,6.3893,6.4333,6.4613,6.4613,6.4613,6.4512,6.4275,6.3758,6.3386,6.3183,6.2651,6.2391,6.2391,6.2391,6.2391,6.2391,6.2391,6.2391,6.2391,6.2391,6.2391,6.2391,6.2391,6.2391,6.2391,6.2391,6.2391,6.2391,6.2391,6.2391,6.2391,6.2391,6.2391,6.2289,6.1772,6.1637,6.1501,6.0926,6.08,6.08,6.08,6.1197,6.1772,6.2289,6.2391,6.2391,6.2391,6.2391,6.2391,6.2391,6.1985,6.1569,6.1332,6.0409,5.9597,5.9361,5.8896,5.8533,5.8533,5.8998,5.9327,5.9327,5.9066,5.8804,5.8567,5.9235,5.9902,6.0419,5.9969,5.98,6.008,5.9109,5.8466,5.822,5.8432,5.8533,5.8533,5.8533,5.8533,5.8533,5.8533,5.8533,4.7784,4.7697,4.7233,4.4801,4.2792,4.1053,3.9709,3.8362,3.7383,3.7375,3.7375,3.7524,3.7913,3.8911,4.0065,4.1229,4.3604,4.5707,4.6789,4.8644,5.0165,5.0849,5.1915,5.3563,5.5991,5.997,6.301,6.4495,6.4613,6.4613,6.458,6.4613,6.4613,6.4613,6.4613,6.4231,6.3511,6.3511,6.3115,6.2424,6.2391,6.2391,6.2391,6.2391,6.2391,6.2391,6.2391,6.2391,6.2391,6.2391,6.2391,6.2391,6.2391,6.2391,6.2391,6.2391,6.2391,6.2391,6.2391,6.2391,6.2391,6.2391,6.2391,6.2391,6.2391,6.2391,6.2391,6.2391,6.2391,6.2391,6.2391,6.2391,6.2391,6.2391,6.2391,6.2391,6.2391,6.2391,6.2391,6.2391,6.2391,6.2154,6.1434,6.1298,6.1028,6.0216,6.008,6.008,6.008,6.008,6.008,6.008,6.0791,6.0926,6.0148,6.0815,6.1298,6.1298,6.1298,6.0926,6.0148,6.008,5.9733,5.9013,5.9708,6.008,6.008,6.008,6.008,6.008,6.008,6.008,4.6236,4.6547,4.6189,4.3774,4.229,4.0924,3.9119,3.8024,3.7396,3.7396,3.7396,3.755,3.8047,3.9224,4.0475,4.1552,4.352,4.5629,4.77,4.9536,5.1131,5.2455,5.371,5.522,5.725,5.9447,6.1493,6.3234,6.4024,6.4234,6.3883,6.4343,6.4613,6.4613,6.4613,6.4478,6.4231,6.3758,6.3376,6.3159,6.2627,6.2391,6.2391,6.2391,6.2391,6.2391,6.2391,6.2391,6.2391,6.2391,6.2391,6.2391,6.2391,6.2391,6.2391,6.2391,6.2391,6.2391,6.2391,6.2391,6.2391,6.2391,6.2391,6.2391,6.2391,6.2391,6.2391,6.2391,6.2391,6.2391,6.2391,6.2391,6.2391,6.2391,6.2391,6.2391,6.2391,6.2391,6.2391,6.2391,6.2391,6.2323,6.2086,6.1637,6.1231,6.096,6.0452,6.0114,6.0114,6.0588,6.0926,6.0926,6.1603,6.1738,6.0994,6.2067,6.2811,6.2811,6.2347,6.1704,6.096,6.0385,5.9733,5.9013,5.9733,6.0114,6.0114,6.0114,6.0385,6.0917,6.1443,6.168,4.4471,4.4918,4.4738,4.3012,4.1997,4.1014,3.9508,3.8631,3.8135,3.8135,3.8135,3.8327,3.8952,4.0104,4.1206,4.2021,4.3533,4.5359,4.7471,4.9648,5.1792,5.3779,5.4828,5.5819,5.6921,5.8464,6.0121,6.1844,6.2709,6.3137,6.3105,6.3531,6.3768,6.3768,6.4309,6.4478,6.4197,6.3714,6.3352,6.3091,6.2627,6.2391,6.2391,6.2391,6.2391,6.2391,6.2391,6.2391,0.0,6.2391,6.256,6.2821,6.2821,6.299,6.3236,6.3236,6.3236,6.3203,6.2922,6.2821,6.2753,6.2492,6.2391,6.2391,6.2391,6.2391,6.2391,6.2391,6.2391,6.2391,6.2391,6.2391,6.2391,6.2391,6.2391,6.2391,6.2391,6.2391,6.2391,6.2391,6.2391,6.2391,6.2391,6.2018,6.1704,6.1704,6.1298,6.096,6.096,6.14,6.1704,6.1704,6.2381,6.2618,6.2168,6.298,6.3511,6.3511,6.3081,6.2482,6.1748,6.1231,6.0622,5.9868,6.0588,6.096,6.096,6.1264,6.1762,6.255,6.3033,6.3236,0.0,4.298,4.301,4.2421,4.1802,4.1164,4.0487,3.9849,0.0,3.9391,3.9391,3.9616,4.0357,4.1294,4.2094,4.2571,4.3617,4.4929,4.6593,4.9469,5.2344,5.4853,5.542,5.5571,5.5484,5.7259,5.8993,6.0458,6.0995,6.1615,6.2361,6.2391,6.2391,6.2391,6.3734,6.4096,6.3419,6.3419,6.3091,6.2391,6.2391,6.2391,6.2391,6.2391,6.2391,6.2391,6.2391,6.2391,6.2391,6.2458,6.2888,6.3521,6.3555,6.3994,6.4613,6.4613,6.4613,6.4512,6.3825,6.3589,6.3487,6.2797,6.256,6.256,6.256,6.2492,6.2391,6.2391,6.2424,6.2492,6.2492,6.2526,6.256,6.256,6.256,6.256,6.256,6.256,6.256,6.256,6.256,6.256,6.256,6.256,6.256,6.256,6.256,6.256,6.256,6.256,6.256,6.256,6.3115,6.3511,6.3511,6.3545,6.3589,6.3589,6.3511,6.3183,6.2424,6.2391,6.2052,6.1322,6.2009,6.2424,6.2492,6.3217,6.3961,6.4681,6.4749,6.4749,4.0878,0.0,4.1693,4.1035,4.0765,4.0457,0.0,3.9511,3.9391,3.9391,3.9391,3.958,4.017,4.1001,4.1945,4.2895,4.3605,4.5146,4.8437,5.2011,5.4852,5.6354,5.6604,5.6486,5.6102,5.7546,5.894,5.9978,6.0692,6.1462,6.2351,6.2391,6.2391,6.2391,6.2729,6.283,6.2651,6.2661,6.256,6.2391,6.2391,6.2391,6.2391,6.2391,6.2391,6.2391,6.2391,6.2391,6.2424,6.3024,6.3352,6.3555,6.413,6.4444,6.4613,6.4613,6.4613,6.458,6.441,6.4333,6.4309,6.414,6.4072,6.4072,6.4072,6.3294,6.2391,6.2391,6.2821,6.325,6.325,6.3666,6.4072,6.4072,6.4072,6.4072,6.4072,6.4072,6.4072,6.4072,6.4072,6.4072,6.4072,6.4072,6.4072,6.4072,6.4072,6.4072,6.4072,6.4072,6.4072,6.4072,6.3724,6.3511,6.3511,6.4028,6.4333,6.4333,6.3825,6.3183,6.2424,6.2391,6.2052,6.1322,6.2009,6.2685,6.325,6.3994,6.4715,6.5469,6.6024,6.6294,4.0043,4.0218,4.0397,4.0029,3.9939,3.9849,3.9481,3.9391,3.9391,3.9391,3.9391,3.9544,4.0033,4.0914,4.1926,4.3015,4.4151,4.639,5.0764,5.3811,5.6047,5.7306,5.7524,5.7229,5.6323,5.7404,5.8484,5.9335,6.0204,6.1196,6.2341,6.2391,6.2391,6.2391,6.2391,6.2391,6.2391,6.2391,6.2391,6.2391,6.2391,6.2391,6.2391,6.2391,6.2391,6.2424,6.2753,6.2888,6.2956,6.369,6.4197,6.4546,6.4952,6.5324,6.5618,6.5618,6.5618,6.555,6.5222,6.4884,6.4613,6.4613,6.4613,6.4613,6.4613,6.4038,6.3396,6.3396,6.37,6.3994,6.3994,6.4299,6.4681,6.5019,6.5087,6.5199,6.5561,6.5618,6.5618,6.5618,6.5618,6.5618,6.5618,6.5618,6.5618,6.5618,6.5618,6.5493,6.5165,6.5087,6.4996,6.4647,6.3927,6.3511,6.3511,6.3565,6.3734,6.4062,6.3724,6.3318,6.2922,6.2594,6.2221,6.1806,6.2188,6.2932,6.3994,6.441,6.5155,6.6203,6.6599,6.6802,3.972,3.9586,3.9541,3.9541,3.972,3.9819,3.9729,3.978,3.9819,3.9729,3.9631,3.9709,4.0168,4.1176,4.2297,4.3377,4.5448,4.8532,5.3107,5.5103,5.6611,5.8131,5.8453,5.8065,5.6873,5.7606,5.8434,5.9083,6.0032,6.1194,6.256,6.266,6.2689,6.2729,6.2729,6.2729,6.2729,6.2526,6.2391,6.2391,6.2391,6.2391,6.2391,6.2391,6.2458,6.2594,6.3217,6.3555,6.3724,6.4468,6.5131,6.5706,6.5808,6.6237,6.6802,6.6802,6.6802,6.67,6.6068,6.5469,6.4952,6.4952,6.4952,6.4952,6.4952,6.4952,6.4952,6.4952,6.485,6.4783,6.4783,6.485,6.5087,6.574,6.5943,6.6214,6.6836,6.7072,6.714,6.714,6.714,6.714,6.714,6.714,6.714,6.714,6.714,6.6869,6.6146,6.6045,6.574,6.5019,6.4265,6.3792,6.369,6.299,6.2787,6.3284,6.3318,6.3318,6.3318,6.2719,6.2391,6.2391,6.2391,6.3135,6.4613,6.4715,6.5527,6.6971,6.7106,6.7106,3.9454,3.9846,4.0247,4.0247,4.1094,4.1802,4.1214,4.1523,4.1772,4.1224,4.0645,4.0491,4.1285,4.2292,4.3443,4.4899,4.858,5.211,5.4597,5.6023,5.7566,5.9538,5.9646,5.9491,5.9285,5.9785,6.0291,6.0651,6.1378,6.2377,6.3592,6.3897,6.4082,6.4275,6.4275,6.4275,6.4275,6.3033,6.2391,6.2391,6.2391,6.2391,6.2391,6.2391,6.2753,6.3352,6.3443,6.3859,6.4478,6.5233,6.5605,6.5774,6.6406,6.67,6.6802,6.6802,6.6802,6.6768,6.6667,6.6565,6.6464,6.6464,6.6464,6.6464,6.6464,6.6464,6.6464,6.6464,6.6,6.5537,6.5537,6.6,6.6497,6.6599,6.7117,6.759,6.7692,6.8267,6.8741,6.8741,6.8741,6.8741,6.8741,6.8741,6.8741,6.8741,6.8741,6.847,6.7658,6.7557,6.7286,6.6531,6.5797,6.5121,6.4468,6.3758,6.3115,6.2594,6.256,6.256,6.256,6.2458,6.2391,6.2391,6.2391,6.3135,6.4613,6.5233,6.6282,6.776,6.8436,6.8368,3.9391,4.0148,4.0945,4.0945,4.1942,4.296,4.297,4.3489,4.3768,4.31,4.2422,4.2202,4.2958,4.4068,4.5817,4.8652,5.1459,5.3727,5.5006,5.6543,5.817,5.9898,6.0595,6.0965,6.1003,6.1204,6.1245,6.0965,6.1553,6.2493,6.3768,6.4221,6.4869,6.5777,6.5392,6.5199,6.5199,6.415,6.3609,6.3565,6.3193,6.298,6.298,6.298,6.3183,6.3545,6.4333,6.4884,6.5266,6.6,6.6305,6.6339,6.6667,6.6802,6.6802,6.6802,6.6802,6.6802,6.6802,6.6802,6.6802,6.6802,6.6802,6.6802,6.6802,6.6802,6.6802,6.6802,6.6576,6.6305,6.6305,6.6531,6.6903,6.7309,6.7658,6.803,6.8436,6.9147,6.9699,6.9699,7.0026,7.0286,7.0286,7.0286,7.0286,7.0286,7.0286,7.0026,6.9259,6.8774,6.8267,6.7489,6.6383,6.5571,6.5233,6.4512,6.3792,6.3047,6.298,6.3159,6.3575,6.3609,6.3609,6.3609,6.3609,6.4106,6.5199,6.5537,6.6451,6.7895,6.8267,6.8504,3.9391,4.0277,4.1194,4.1373,4.2621,4.3968,4.4436,4.5304,4.5813,4.5144,4.4596,4.4376,4.4905,4.6211,4.8424,5.2067,5.3641,5.479,5.5748,5.7238,5.8754,6.0195,6.1277,6.2024,6.2264,6.2185,6.1846,6.1272,6.1895,6.2809,6.4084,6.4862,6.5898,6.7288,6.6609,6.6214,6.6214,6.5493,6.4952,6.458,6.4028,6.3758,6.3758,6.3758,6.3859,6.4096,6.5199,6.5808,6.6011,6.6565,6.6802,6.6802,6.6802,6.6802,6.6802,6.6802,6.6802,6.6802,6.6802,6.6802,6.6802,6.6802,6.6802,6.6802,6.6802,6.6802,6.6802,6.6802,6.6802,6.6802,6.6802,6.6802,6.6937,6.7512,6.776,6.8064,6.8707,6.9428,7.0003,7.0172,7.0669,7.1097,7.1267,7.13,7.13,7.13,7.1165,7.077,7.0037,6.9282,6.8504,6.7726,6.6609,6.5876,6.5706,6.5019,6.4444,6.4028,6.3859,6.3994,6.458,6.4783,6.4783,6.4613,6.4783,6.5131,6.5706,6.5876,6.6711,6.8199,6.8368,6.8774,3.9391,3.9909,4.0606,4.1244,4.3309,4.5165,4.5225,4.6721,4.7889,4.7219,4.707,4.704,4.707,4.8633,5.0847,5.3611,5.467,5.5777,5.7636,5.8493,5.9456,6.0956,6.1627,6.2296,6.3036,6.2663,6.2362,6.2299,6.3159,6.4122,6.5129,6.6537,6.7813,6.8911,6.8166,6.7726,6.7726,6.7005,6.5956,6.4613,6.4546,6.4512,6.4512,6.4512,6.4884,6.5537,6.5639,6.6102,6.6734,6.6768,6.6802,6.6802,6.6802,6.6802,6.6802,6.6802,6.6802,6.6802,6.6802,6.6802,6.6802,6.6802,6.6802,6.6802,6.6802,6.6802,6.6802,6.6802,6.6802,6.6802,6.6802,6.6802,6.6791,6.6869,6.7411,6.7929,6.7963,6.8605,6.9383,7.0071,7.024,7.0511,7.1165,7.13,7.13,7.13,7.0737,7.0003,6.9282,6.847,6.7692,6.6971,6.6768,6.644,6.5774,6.5019,6.4884,6.5503,6.4884,6.4546,6.4613,6.5266,6.53,6.4613,6.5266,6.5639,6.5706,6.6406,6.7512,6.9045,6.9733,7.0071,3.9391,3.9879,4.0546,4.1214,4.304,4.4995,4.6262,4.8386,5.0152,5.0301,5.0672,5.069,4.9871,5.1008,5.2665,5.4521,5.5688,5.6915,5.8487,5.9204,5.9949,6.0961,6.1596,6.2233,6.2984,6.2639,6.2102,6.1558,6.2613,6.389,6.5158,6.6817,6.858,7.0421,6.9722,6.9113,6.8639,6.7861,6.6971,6.5956,6.5493,6.5266,6.5266,6.5266,6.5436,6.574,6.617,6.6531,6.6802,6.6802,6.6802,6.6802,6.6802,6.6802,6.6802,6.6802,6.6802,6.6802,6.6802,6.6802,6.6802,6.6802,6.6802,6.6802,6.6802,6.6802,6.6802,6.6802,6.714,6.7377,6.6903,6.6802,6.6802,6.6802,6.7005,6.7208,6.7208,6.7827,6.8436,6.8718,6.918,6.9586,6.988,6.9914,6.9914,6.9914,6.9688,6.9417,6.9147,6.8402,6.7793,6.7512,6.7072,6.67,6.6406,6.6125,6.6092,6.6373,6.5696,6.5493,6.5956,6.6237,6.6271,6.5956,6.6227,6.6609,6.706,6.7354,6.8267,6.98,7.0071,7.0443,3.9391,3.9879,4.0546,4.1214,4.2851,4.4875,4.71,4.9643,5.1708,5.2366,5.3067,5.3186,5.2025,5.2755,5.3875,5.5012,5.6269,5.7573,5.8919,5.9486,6.001,6.0704,6.1235,6.1822,6.2478,6.2115,6.1539,6.0833,6.2131,6.3543,6.4885,6.6779,6.8762,7.0767,7.0153,6.9491,6.8849,6.815,6.7482,6.6791,6.6305,6.6045,6.6045,6.6045,6.6045,6.6068,6.6565,6.6802,6.6802,6.6802,6.6802,6.6802,6.6802,6.6802,6.6802,6.6802,6.6802,6.6802,6.6802,6.6802,6.6802,6.6802,6.6802,6.6802,6.6802,6.6802,6.6869,6.7072,6.7512,6.7827,6.758,6.7512,6.7512,6.7512,6.7512,6.7444,6.7208,6.776,6.8267,6.8267,6.891,6.9519,6.9755,6.9778,6.9778,6.9778,6.9586,6.9451,6.9451,6.8774,6.8166,6.7929,6.7455,6.7039,6.6836,6.6802,6.6802,6.6802,6.6339,6.6271,6.6768,6.7005,6.7039,6.6802,6.7275,6.7658,6.7895,6.8166,6.8944,7.0206,7.0206,7.0601,3.9421,3.9909,4.0576,4.1254,4.288,4.5025,4.7709,5.0343,5.2396,5.3097,5.3773,5.4012,5.3336,5.3743,5.4431,5.5102,5.6269,5.7573,5.8919,5.9328,5.9686,6.0224,6.0568,6.0957,6.1418,6.1059,6.0664,6.0303,6.1835,6.3246,6.4323,6.6499,6.8311,6.9739,6.9259,6.8769,6.8294,6.7856,6.7321,6.6791,6.6802,6.6802,6.6802,6.6802,6.6802,6.6802,6.6802,6.6802,6.6802,6.6802,6.6802,6.6802,6.6802,6.6802,6.6802,6.6802,6.6802,6.6802,6.6802,6.6791,6.6791,6.6836,6.6836,6.6791,6.6791,6.6791,6.6971,6.7692,6.7895,6.8098,6.891,6.9113,6.9113,6.9113,6.9113,6.8876,6.8064,6.8538,6.9113,6.9113,6.9699,7.0432,7.1165,7.13,7.13,7.13,7.0669,7.0206,7.0172,6.9553,6.8808,6.7996,6.7895,6.7624,6.6859,6.6836,6.6836,6.6836,6.6836,6.6836,6.6791,6.7512,6.7557,6.6836,6.8324,6.8707,6.7929,6.8707,6.9485,7.0206,7.0206,7.0601,3.9969,4.0576,4.1484,4.306,4.4935,4.6969,4.9142,5.1349,5.3755,5.6735,5.6765,5.591,5.4803,5.4773,5.4982,5.5162,5.6269,5.7573,5.8919,5.9167,5.9288,5.9419,5.9556,5.9676,5.9806,5.9703,5.957,5.9446,6.0758,6.2108,6.3428,6.4975,6.6479,6.7939,6.8237,6.8292,6.8148,6.7922,6.7724,6.7557,6.7039,6.6802,6.6802,6.6802,6.6802,6.6802,6.6802,6.6802,6.6802,6.6802,6.6802,6.6802,6.6802,6.6802,6.6802,6.6802,6.6802,6.6869,6.7377,6.7557,6.7658,6.8222,6.8019,6.7557,6.7557,6.7557,6.7624,6.7827,6.8673,6.9563,6.98,7.0263,7.0387,6.935,6.9113,6.8876,6.8064,6.8538,6.9113,6.9113,6.9699,7.0432,7.1165,7.13,7.1131,7.0601,7.0342,7.0003,6.9485,6.9248,6.9011,6.8774,6.8741,6.8673,6.8436,6.8436,6.8436,6.8436,6.8436,6.8155,6.759,6.7793,6.8064,6.8392,6.8876,6.9248,6.953,6.9766,7.0263,7.0962,7.0962,7.1097,4.0546,4.1444,4.2701,4.4935,4.6969,4.9183,5.1965,5.3503,5.5281,5.8441,5.8261,5.7184,5.6149,5.5957,5.5957,5.5957,5.6825,5.7872,5.8949,5.9099,5.9099,5.9099,5.9099,5.9099,5.9099,5.9099,5.9099,5.9099,6.019,6.1433,6.2747,6.3893,6.515,6.6522,6.7157,6.7485,6.7492,6.7457,6.75,6.7615,6.6993,6.6717,6.6802,6.6802,6.6802,6.6802,6.6802,6.6802,6.6802,6.6802,6.6802,6.6802,6.6802,6.6802,6.6802,6.6802,6.7005,6.7309,6.776,6.8098,6.847,6.8944,6.8774,6.8368,6.8368,6.8368,6.8436,6.8741,6.9496,7.0274,7.0567,7.0962,7.1097,7.0184,6.9981,6.9744,6.8977,6.9417,6.9891,6.9586,7.0128,7.077,7.1233,7.13,7.1131,7.0703,7.0635,7.0466,7.0015,6.9981,6.9846,6.9553,6.9553,6.9417,6.9113,6.9113,6.9113,6.9113,6.9113,6.9011,6.8819,6.8538,6.8741,6.9519,6.9823,7.0331,7.1075,7.1357,7.1729,7.2191,7.2191,7.2191,4.1094,4.2432,4.4047,4.68,4.9082,5.1654,5.5431,5.6342,5.6898,5.871,5.8607,5.7995,5.7393,5.7287,5.7287,5.7287,5.7799,5.8397,5.8996,5.9099,5.9099,5.9099,5.9099,5.9099,5.9099,5.9099,5.9099,5.9099,5.9956,6.0967,6.213,6.3061,6.409,6.5229,6.5929,6.6332,6.6446,6.6501,6.6721,6.719,6.6683,6.6571,6.6802,6.6802,6.6802,6.6802,6.6802,6.6802,6.6802,6.6802,6.6802,6.6802,6.6869,6.6903,6.6903,6.6971,6.7444,6.803,6.8098,6.8605,6.9214,6.9282,6.9248,6.9214,6.9214,6.9214,6.935,7.0003,7.024,7.0443,7.1131,7.13,7.13,7.13,7.13,7.1097,7.0375,7.077,7.1097,7.0432,7.0906,7.1436,7.1503,7.1503,7.147,7.1402,7.1334,7.13,7.13,7.13,7.103,7.0375,7.0308,7.0026,6.935,6.9316,6.9316,6.9316,6.9316,6.9586,7.0274,6.9586,6.9586,7.0375,7.1064,7.174,7.2496,7.3184,7.3488,7.3488,7.3488,7.3488,4.1682,4.31,4.4845,4.8079,5.151,5.461,5.6479,5.7304,5.7949,5.8919,5.9009,5.8846,5.871,5.868,5.868,5.868,5.88,5.8949,5.9069,5.9099,5.9099,5.9099,5.9099,5.9099,5.9099,5.9099,5.9099,5.9099,5.9303,5.9771,6.0538,6.1285,6.2031,6.2821,6.3881,6.4755,6.5406,6.5243,6.5764,6.7042,6.6235,6.6193,6.6802,6.6802,6.6802,6.6802,6.6802,6.6802,6.6802,6.6802,6.6802,6.6869,6.7444,6.7658,6.776,6.8368,6.8707,6.891,6.9496,6.9834,7.0071,7.0624,7.0432,6.9969,6.9969,6.9969,7.0003,7.0172,7.0635,7.1097,7.1267,7.13,7.13,7.13,7.13,7.1097,7.0375,7.077,7.1267,7.1097,7.1672,7.236,7.2947,7.3015,7.2845,7.2259,7.1672,7.13,7.13,7.13,7.1233,7.1064,7.1064,7.0996,7.0827,7.0827,7.0827,7.0827,7.0827,7.0894,7.1064,7.0364,7.0578,7.1887,7.209,7.2529,7.3251,7.3421,7.3488,7.3488,7.3488,7.3488,4.2222,4.4007,4.6281,5.0582,5.3905,5.6376,5.735,5.8351,5.9249,5.9923,5.9787,5.9668,5.9983,6.0057,6.0057,6.0057,6.0057,6.0057,6.0057,6.0057,6.0057,6.0057,6.0057,5.9937,5.9608,5.9877,5.9937,5.9608,5.9877,6.0356,6.1014,6.1403,6.1882,6.2555,6.3313,6.3877,6.4286,6.4301,6.4951,6.6176,6.5765,6.5987,6.6802,6.6802,6.6802,6.6802,6.6802,6.6802,6.6802,6.6802,6.7005,6.7343,6.776,6.8132,6.8538,6.8944,6.9316,6.9688,7.0071,7.0432,7.0804,7.1165,7.103,7.0737,7.0737,7.0737,7.0737,7.0737,7.0996,7.13,7.13,7.13,7.13,7.13,7.13,7.1199,7.0804,7.103,7.13,7.13,7.1605,7.1988,7.2394,7.2462,7.2326,7.1921,7.1537,7.13,7.13,7.13,7.13,7.13,7.13,7.13,7.13,7.13,7.13,7.13,7.13,7.13,7.13,7.0928,7.1413,7.2913,7.2947,7.3443,7.4537,7.4537,7.4537,7.4537,7.4537,7.4537,4.2582,4.5183,4.8274,5.3012,5.5658,5.7274,5.7949,5.9129,6.034,6.1104,6.0745,6.0446,6.1,6.109,6.115,6.1239,6.1269,6.1269,6.1269,6.1269,6.1269,6.1269,6.118,6.088,6.034,6.0761,6.0864,6.031,6.0894,6.1583,6.2255,6.2271,6.2465,6.2914,6.3143,6.3181,6.3,6.3375,6.407,6.51,6.5476,6.6064,6.6802,6.6802,6.6802,6.6802,6.6937,6.7005,6.7005,6.714,6.7546,6.8132,6.8233,6.8707,6.9316,6.9417,6.9857,7.0409,7.0409,7.0804,7.13,7.13,7.13,7.13,7.13,7.13,7.13,7.13,7.13,7.13,7.13,7.13,7.13,7.13,7.13,7.13,7.13,7.13,7.13,7.13,7.13,7.13,7.13,7.13,7.13,7.13,7.13,7.13,7.13,7.13,7.13,7.13,7.13,7.13,7.13,7.13,7.13,7.13,7.13,7.13,7.13,7.13,7.1943,7.3285,7.3432,7.4233,7.5709,7.5709,7.5709,7.5709,7.5709,7.5709,4.2582,4.6839,5.1116,5.3581,5.5658,5.7274,5.7949,5.9129,6.0459,6.1702,6.1433,6.1,6.109,6.109,6.1299,6.1882,6.1972,6.1972,6.1972,6.1972,6.1972,6.1972,6.1449,6.106,6.097,6.106,6.106,6.097,6.1583,6.2241,6.2928,6.2988,6.2734,6.2241,6.2254,6.2011,6.1421,6.1844,6.2784,6.4174,6.5825,6.6686,6.6802,6.6802,6.6802,6.6836,6.7489,6.776,6.7793,6.8504,6.8842,6.9011,6.9631,6.9969,7.0139,7.0759,7.1064,7.1165,7.1165,7.1233,7.13,7.13,7.13,7.13,7.13,7.13,7.13,7.13,7.13,7.13,7.13,7.13,7.13,7.13,7.13,7.13,7.13,7.13,7.13,7.13,7.13,7.13,7.13,7.13,7.13,7.13,7.13,7.13,7.13,7.13,7.13,7.13,7.13,7.13,7.13,7.13,7.13,7.13,7.13,7.13,7.13,7.13,7.1672,7.2529,7.3184,7.4233,7.5709,7.5709,7.5709,7.5709,7.5709,7.5709,4.4416,4.8315,5.1786,5.4162,5.5927,5.7363,5.8427,5.9684,6.1044,6.2375,6.2435,6.2211,6.2211,6.2211,6.2435,6.3049,6.3169,6.3288,6.3663,6.3723,6.3723,6.3723,6.3124,6.26,6.2241,6.2211,6.2211,6.2211,6.281,6.3468,6.4126,6.3797,6.3482,6.3169,6.248,6.1792,6.112,6.1561,6.2656,6.4365,6.6411,6.7411,6.7444,6.7884,6.785,6.7444,6.776,6.8166,6.8605,6.8944,6.935,6.9766,7.0071,7.0443,7.0872,7.1165,7.13,7.13,7.13,7.13,7.13,7.13,7.13,7.13,7.13,7.13,7.13,7.13,7.13,7.13,7.13,7.13,7.13,7.13,7.13,7.13,7.13,7.13,7.13,7.13,7.13,7.13,7.13,7.13,7.13,7.13,7.13,7.13,7.13,7.13,7.13,7.13,7.13,7.13,7.13,7.13,7.13,7.13,7.13,7.13,7.13,7.13,7.1639,7.2394,7.271,7.3421,7.4469,7.4469,7.4469,7.4469,7.4469,7.4469,4.5563,4.8596,5.1098,5.3773,5.5401,5.6765,5.8261,5.9744,6.1224,6.2555,6.2974,6.3108,6.3108,6.3108,6.3363,6.4126,6.4231,6.447,6.5159,6.5233,6.5233,6.5233,6.465,6.4066,6.3632,6.3572,6.3572,6.3572,6.4156,6.48,6.5488,6.4859,6.4366,6.4006,6.2929,6.1882,6.0864,6.1682,6.3057,6.491,6.6932,6.7996,6.8233,6.8842,6.8876,6.847,6.847,6.8842,6.9383,6.9586,6.9992,7.0466,7.0466,7.0804,7.13,7.13,7.13,7.13,7.13,7.13,7.13,7.13,7.13,7.13,7.13,7.13,7.13,7.13,7.13,7.13,7.13,7.13,7.13,7.13,7.13,7.13,7.13,7.13,7.13,7.13,7.13,7.13,7.13,7.13,7.13,7.13,7.13,7.13,7.13,7.13,7.13,7.13,7.13,7.13,7.13,7.13,7.13,7.13,7.13,7.13,7.13,7.13,7.1571,7.2124,7.2124,7.2563,7.3488,7.3488,7.3488,7.3488,7.3488,7.359,4.4836,4.6901,4.9086,5.1708,5.3354,5.4837,5.6765,5.8723,6.0519,6.1882,6.2674,6.3108,6.3108,6.3108,6.3512,6.474,6.4934,6.5174,6.5847,6.5936,6.5936,6.5936,6.5368,6.4934,6.4904,6.4904,6.4904,6.4904,6.5518,6.6191,6.6849,6.6251,6.5308,6.4036,6.3393,6.212,6.016,6.1997,6.3845,6.5666,6.7166,6.8301,6.9045,6.9079,6.9462,7.0071,7.0071,7.0105,7.0206,7.0894,7.1199,7.1233,7.1233,7.1267,7.13,7.13,7.13,7.13,7.13,7.13,7.13,7.13,7.13,7.13,7.13,7.13,7.13,7.13,7.13,7.13,7.13,7.13,7.13,7.13,7.13,7.13,7.13,7.13,7.13,7.13,7.13,7.13,7.13,7.13,7.13,7.13,7.13,7.13,7.13,7.13,7.13,7.13,7.13,7.13,7.13,7.13,7.13,7.13,7.13,7.13,7.13,7.13,7.1334,7.1368,7.1368,7.2045,7.3488,7.3488,7.3488,7.3488,7.3488,7.3883,4.3619,4.5185,4.6901,4.9146,5.099,5.2923,5.5329,5.7393,5.9444,6.1642,6.2285,6.2584,6.3003,6.3108,6.3512,6.48,6.4994,6.5383,6.649,6.664,6.664,6.664,6.6056,6.5637,6.5637,6.5233,6.5174,6.5607,6.5847,6.6281,6.6954,6.637,6.5577,6.468,6.3632,6.2389,6.093,6.2447,6.3905,6.5272,6.7721,6.911,6.9569,7.0219,7.0658,7.0906,7.0906,7.0906,7.0939,7.1199,7.13,7.13,7.13,7.13,7.13,7.13,7.13,7.13,7.13,7.13,7.13,7.13,7.13,7.13,7.13,7.13,7.13,7.13,7.13,7.1402,7.1875,7.2011,7.2124,7.2597,7.2699,7.2699,7.2699,7.2326,7.2157,7.2631,7.2699,7.2699,7.2699,7.2699,7.2699,7.2699,7.2699,7.2699,7.2699,7.2699,7.2699,7.2699,7.2699,7.2699,7.2699,7.2699,7.2699,7.2699,7.2699,7.2699,7.2699,7.2699,7.2699,7.2699,7.2699,7.2496,7.209,7.209,7.209,7.209,7.209,7.2484,4.2362,4.3479,4.4816,4.6781,4.8596,5.0589,5.3264,5.5555,5.7829,6.0266,6.1283,6.1972,6.2644,6.2944,6.3512,6.48,6.4994,6.5458,6.6819,6.7014,6.7014,6.7014,6.661,6.6251,6.6026,6.5787,6.5757,6.5966,6.6221,6.652,6.6984,6.658,6.5936,6.5024,6.3348,6.2277,6.191,6.253,6.3678,6.5298,6.7791,6.9305,6.9938,7.0884,7.13,7.13,7.13,7.13,7.13,7.13,7.13,7.13,7.13,7.13,7.13,7.13,7.13,7.13,7.13,7.13,7.13,7.13,7.13,7.1368,7.1605,7.1672,7.1672,7.1672,7.1842,7.209,7.2326,7.2563,7.2868,7.3387,7.3488,7.3556,7.3827,7.3285,7.2913,7.3387,7.3488,7.3488,7.3488,7.3488,7.3488,7.3488,7.3488,7.3488,7.3488,7.3488,7.3488,7.3488,7.3488,7.3488,7.3488,7.3488,7.3488,7.3488,7.3488,7.3488,7.3488,7.3488,7.3488,7.3488,7.3488,7.3015,7.2056,7.2056,7.2056,7.2056,7.2056,7.2428,0.0,0.0,0.0,4.4716,4.6202,4.7867,5.0499,5.3174,5.5658,5.7636,5.9654,6.1239,6.1972,6.2644,6.3512,6.48,6.4994,6.5458,6.6819,6.7014,6.7014,6.7014,6.7014,6.6729,6.6101,6.661,6.6729,6.6071,6.664,6.7014,6.7014,6.6954,6.634,6.5069,6.251,6.1741,6.2917,6.2354,6.3334,6.5842,6.7395,6.8829,7.0133,7.0939,7.13,7.13,7.13,7.13,7.13,7.13,7.13,7.13,7.13,7.13,7.13,7.13,7.13,7.13,7.13,7.13,7.13,7.13,7.1289,7.147,7.2191,7.2428,7.2428,7.2428,7.2947,7.3353,7.2665,7.3003,7.3556,7.3556,7.3556,7.3759,7.448,7.4052,7.3556,7.3556,7.3556,7.3556,7.3556,7.3556,7.3556,7.3556,7.3556,7.3556,7.3556,7.3556,7.3556,7.3556,7.3556,7.3556,7.3556,7.3556,7.3556,7.3556,7.3556,7.3556,7.3556,7.3556,7.3556,7.3556,7.3556,7.3556,7.3556,7.3522,7.3488,7.3488,7.3522,7.3928,3.9909,0.0,0.0,0.0,0.0,0.0,4.7777,5.041,5.3144,5.6119,5.8291,6.0133,6.1792,6.2644,6.3512,6.48,6.4994,6.5458,6.6819,6.7014,6.7014,6.7014,6.7014,6.6924,6.6729,6.6894,6.6909,6.6729,6.6894,6.7014,6.7014,6.6071,6.5503,6.538,6.3501,6.2804,6.3537,6.3995,6.5004,6.6527,6.8177,6.9464,7.0411,7.1007,7.13,7.13,7.13,7.13,7.13,7.13,7.13,7.13,7.13,7.13,7.13,7.13,7.13,7.13,7.13,7.13,7.13,7.13,7.1672,7.2124,7.2326,7.2778,7.3184,7.3184,7.3353,7.359,7.3916,7.4525,7.51,7.51,7.51,7.5134,7.5337,7.5236,7.51,7.51,7.51,7.51,7.51,7.51,7.51,7.51,7.51,7.51,7.51,7.51,7.51,7.51,7.51,7.51,7.51,7.51,7.51,7.51,7.51,7.51,7.51,7.51,7.51,7.51,7.51,7.51,7.51,7.403,7.3488,7.3522,7.4052,7.4412,3.9391,0.0,3.966,4.0705,0.0,0.0,4.5563,4.8076,5.078,5.3533,5.591,5.7992,5.9697,6.0789,6.1776,6.281,6.3423,6.453,6.6715,6.7014,6.7014,6.7014,6.7014,6.6894,6.661,6.6819,6.6775,6.6221,6.667,6.7014,6.7014,6.5727,6.5202,6.5644,6.4228,6.3858,6.4709,6.5287,6.6167,6.7366,6.8638,6.9651,7.0365,7.0996,7.13,7.13,7.13,7.13,7.13,7.13,7.13,7.13,7.13,7.1503,7.174,7.174,7.1943,7.2225,7.2225,7.2225,7.2225,7.2225,7.2496,7.2902,7.3206,7.3612,7.395,7.395,7.395,7.4119,7.4852,7.5371,7.5709,7.5709,7.5709,7.5709,7.5709,7.5709,7.5709,7.5709,7.5709,7.5709,7.5709,7.5709,7.5709,7.5709,7.5709,7.5709,7.5709,7.5709,7.5709,7.5709,7.5709,7.5709,7.5709,7.5709,7.5709,7.5709,7.5709,7.5709,7.5709,7.5709,7.5709,7.5709,7.5709,7.5709,7.5709,7.4842,7.4436,7.4436,7.4864,7.5055,3.9391,3.9391,0.0,4.0238,4.1313,0.0,4.3808,4.6052,4.8416,5.035,5.2905,5.5162,5.6436,5.7752,5.889,5.9561,6.0789,6.2839,6.6191,6.6805,6.6924,6.6984,6.7014,6.6775,6.6176,6.664,6.652,6.5293,6.634,6.7014,6.7014,6.5787,6.5396,6.6041,6.5018,6.5032,6.6258,6.6416,6.7093,6.8304,6.8951,6.9618,7.0191,7.095,7.13,7.13,7.13,7.13,7.13,7.13,7.13,7.13,7.13,7.174,7.2394,7.2394,7.2879,7.3488,7.3488,7.3488,7.3488,7.3488,7.3556,7.3759,7.4378,7.4649,7.4717,7.4717,7.4717,7.4852,7.554,7.5709,7.5709,7.5709,7.5709,7.5709,7.5709,7.5709,7.5709,7.5709,7.5709,7.5709,7.5709,7.5709,7.5709,7.5709,7.5709,7.5709,7.5709,7.5709,7.5709,7.5709,7.5709,7.5709,7.5709,7.5709,7.5709,7.5709,7.5709,7.5709,7.5709,7.5709,7.5709,7.5709,7.5709,7.5709,7.5709,7.5709,7.5709,7.5709,7.5709,7.5709,3.9391,3.9391,3.9571,4.0238,4.0606,0.0,4.2461,4.3968,4.5653,4.7657,5.014,5.2396,5.3725,5.5072,5.6179,5.6851,5.8052,6.0222,6.4036,6.5503,6.64,6.6954,6.7014,6.6954,6.6835,6.6909,6.6894,6.664,6.6849,6.7014,6.7014,6.6251,6.6207,6.7077,6.6665,6.6928,6.7908,6.8241,6.8716,6.9388,6.9746,7.0215,7.0767,7.1143,7.13,7.13,7.13,7.13,7.13,7.13,7.13,7.13,7.13,7.174,7.2394,7.2394,7.2879,7.3488,7.3488,7.3488,7.3488,7.3488,7.3883,7.4412,7.4547,7.5021,7.5473,7.5473,7.5473,7.5506,7.5676,7.5709,7.5709,7.5709,7.5709,7.5709,7.5709,7.5709,7.5709,7.5709,7.5709,7.5709,7.5709,7.5709,7.5709,7.5709,7.5709,7.5709,7.5709,7.5709,7.5709,7.5709,7.5709,7.5709,7.5709,7.5709,7.5709,7.5709,7.5709,7.5709,7.5709,7.5709,7.5709,7.5709,7.5709,7.5709,7.5709,7.5709,7.5709,7.5709,7.5709,7.5709,4.0397,4.0397,4.0397,4.0397,4.0636,0.0,0.0,4.2641,4.4177,4.5533,4.7627,4.9673,5.1013,5.2037,5.2923,5.3593,5.5077,5.7081,5.9741,6.2929,6.5503,6.6819,6.7014,6.7014,6.7014,6.7014,6.7014,6.7014,6.637,6.6295,6.6954,6.6056,6.6145,6.7553,6.7584,6.8106,6.918,6.982,7.0215,7.0492,7.0619,7.0848,7.1086,7.1244,7.13,7.13,7.13,7.13,7.13,7.13,7.1537,7.1842,7.1842,7.2518,7.3499,7.3499,7.395,7.4605,7.4605,7.4605,7.4605,7.4605,7.4864,7.5168,7.5168,7.5405,7.5709,7.5709,7.5709,7.5709,7.5709,7.5709,7.5709,7.5709,7.5709,7.5709,7.5709,7.5709,7.5709,7.5709,7.5709,7.5709,7.5709,7.5709,7.5709,7.5709,7.5709,7.5709,7.5709,7.5709,7.5709,7.5709,7.5709,7.5709,7.5709,7.5709,7.5709,7.5709,7.5709,7.5709,7.5709,7.5709,7.5709,7.5709,7.5709,7.5709,7.5709,7.5709,7.5709,7.5709,7.5709,7.5709,4.1403,4.1403,4.1254,4.0586,4.0825,4.1074,0.0,0.0,0.0,4.3808,4.5424,4.704,4.8139,4.8835,4.9441,4.9991,5.1756,5.3563,5.5012,5.9202,6.3079,6.5742,6.6176,6.6356,6.658,6.6729,6.6819,6.6819,6.5787,6.5667,6.6759,6.5906,6.6189,6.7971,6.8391,6.9182,7.0398,7.1295,7.1706,7.1706,7.1571,7.1503,7.1503,7.1357,7.1368,7.1503,7.1503,7.1605,7.1706,7.1706,7.2146,7.28,7.2529,7.3308,7.4615,7.4615,7.5067,7.5709,7.5709,7.5709,7.5709,7.5709,7.5709,7.5709,7.5709,7.5709,7.5709,7.5709,7.5709,7.5709,7.5709,7.5709,7.5709,7.5709,7.5709,7.5709,7.5709,7.5709,7.5709,7.5709,7.5709,7.5709,7.5709,7.5709,7.5709,7.5709,7.5709,7.5709,7.5709,7.5709,7.5709,7.5709,7.5709,7.5709,7.5709,7.5709,7.5709,7.5709,7.5709,7.5709,7.5709,7.5709,7.5709,7.5709,7.5709,7.5709,7.5709,7.5709,7.5709,7.5709,7.5709,7.5709,4.1403,4.1403,4.1254,4.0586,4.0457,4.0487,4.0427,0.0,4.1822,4.2491,0.0,4.4696,4.4845,0.0,0.0,4.5963,4.7649,4.9625,5.1487,5.382,5.7141,6.2061,6.3183,6.3991,6.5129,6.5757,6.6116,6.6116,6.5966,6.5936,6.6101,6.652,6.7397,6.8737,6.96,7.0645,7.1858,7.278,7.3251,7.3251,7.2597,7.2293,7.2259,7.1605,7.1672,7.2293,7.2293,7.2642,7.3251,7.3251,7.368,7.4209,7.2902,7.3308,7.4615,7.4615,7.5067,7.5709,7.5709,7.5709,7.5709,7.5709,7.5709,7.5709,7.5709,7.5709,7.5709,7.5709,7.5709,7.5709,7.5709,7.5709,7.5709,7.5709,7.5709,7.5709,7.5709,7.5709,7.5709,7.5709,7.5709,7.5709,7.5709,7.5709,7.5709,7.5709,7.5709,7.5709,7.5709,7.5709,7.5709,7.5709,7.5709,7.5709,7.5709,7.5709,7.5709,7.5709,7.5709,7.5709,7.5709,7.5709,7.5709,7.5709,7.5709,7.5709,7.5709,7.5709,7.5709,7.5709,7.5709,7.5709,4.3668,4.3399,4.291,4.2242,4.1833,4.1463,4.1064,4.1493,4.2152,4.2791,0.0,0.0,0.0,0.0,0.0,0.0,4.692,4.8147,4.9344,5.0888,5.3688,5.862,6.0489,6.2165,6.4231,6.465,6.5009,6.5398,6.4725,6.4814,6.5936,6.6281,6.7185,6.8829,6.9803,7.0871,7.2087,7.3014,7.3488,7.3488,7.2732,7.2394,7.236,7.1639,7.1706,7.2394,7.2394,7.28,7.3488,7.3488,7.3916,7.4547,7.3905,7.4322,7.5236,7.5236,7.5439,7.5709,7.5709,7.5709,7.5709,7.5709,7.5709,7.5709,7.5709,7.5709,7.5674,7.5518,7.534,7.5194,7.5036,7.4889,7.4779,7.4779,7.4779,7.4815,7.4963,7.5122,7.5267,7.5446,7.5602,7.5709,7.5709,7.5709,7.5709,7.5709,7.5709,7.5709,7.5709,7.5709,7.5709,7.5709,7.5709,7.5709,7.5709,7.5709,7.5709,7.5709,7.5709,7.5709,7.5709,7.5709,7.5709,7.5709,7.5709,7.5709,7.5709,7.5709,7.5709,7.5709,7.5709,7.5709,4.5315,4.4935,4.4366,4.3509,4.296,4.2421,4.1583,4.2062,4.2771,4.321,4.3967,0.0,0.0,0.0,4.5394,4.5702,0.0,4.7119,4.744,4.8585,5.1008,5.5239,5.7992,6.0356,6.245,6.2989,6.3334,6.3633,6.2959,6.3258,6.4844,6.5428,6.6627,6.8567,6.9912,7.1174,7.2382,7.3517,7.4097,7.4097,7.3341,7.2992,7.2969,7.2259,7.2326,7.2992,7.2992,7.3409,7.4097,7.4097,7.4424,7.4886,7.4886,7.5236,7.5709,7.5709,7.5709,7.5709,7.5709,7.5709,7.5709,7.5709,7.5709,7.5709,7.5709,7.5709,7.5638,7.5301,7.4889,7.4473,7.4109,7.3683,7.3375,7.3375,7.3375,7.3465,7.3831,7.4381,7.488,7.5045,7.5602,7.5946,7.5743,7.5709,7.5709,7.5709,7.5709,7.5709,7.5709,7.5709,7.5709,7.5709,7.5709,7.5709,7.5709,7.5709,7.5709,7.5709,7.5709,7.5709,7.5709,7.5709,7.5709,7.5709,7.5709,7.5709,7.5709,7.5709,7.5709,7.5709,7.5709,7.5709,4.5315,4.5274,4.4945,4.3638,4.33,4.2951,4.1693,4.2362,4.327,4.33,4.4366,4.5274,4.5304,0.0,0.0,0.0,0.0,0.0,0.0,4.6561,4.8626,5.1947,5.5795,5.8457,5.9189,6.0432,6.0924,6.031,6.0835,6.1479,6.2181,6.4022,6.5933,6.7859,7.0161,7.1929,7.3148,7.4789,7.5642,7.5608,7.4886,7.4547,7.4514,7.3759,7.3815,7.4547,7.4547,7.4953,7.5642,7.5642,7.5642,7.5676,7.5676,7.5676,7.5709,7.5709,7.5709,7.5709,7.5709,7.5709,7.5709,7.5709,7.5709,7.5709,7.5709,7.5709,7.5602,7.5061,7.4302,7.3515,7.2914,7.2148,7.1501,7.1501,7.1501,7.1664,7.2247,7.3607,7.4654,7.4556,7.5775,7.6623,7.5845,7.5709,7.5709,7.5709,7.5709,7.5709,7.5709,7.5709,7.5709,7.5709,7.5709,7.5709,7.5709,7.5709,7.5709,7.5709,7.5709,7.5709,7.5709,7.5709,7.5709,7.5709,7.5709,7.5709,7.5709,7.5709,7.5709,7.5709,7.5709,7.5709,4.7959,4.763,4.717,4.6711,4.5952,4.5164,4.4755,4.4636,4.4755,4.5194,4.5642,4.6102,4.6531,0.0,0.0,0.0,0.0,0.0,0.0,4.673,4.7878,4.9445,5.2336,5.482,5.6376,5.7347,5.7915,5.8095,5.7945,5.8723,6.0669,6.2674,6.4814,6.7151,6.9939,7.1961,7.3181,7.4856,7.5709,7.5676,7.4953,7.4615,7.4581,7.3827,7.3883,7.4615,7.4615,7.5021,7.5709,7.5709,7.5709,7.5709,7.5709,7.5709,7.5709,7.5709,7.5709,7.5652,7.5506,7.5303,7.5134,7.4951,7.4791,7.4643,7.4643,7.4643,7.446,7.3709,7.3005,7.2314,7.152,7.0791,7.0276,7.0276,7.0276,7.0571,7.1662,7.2792,7.3803,7.4596,7.5305,7.5677,7.541,7.4976,7.4889,7.558,7.5709,7.5709,7.5709,7.5709,7.5709,7.5709,7.5709,7.5709,7.5709,7.5709,7.5709,7.5709,7.5709,7.5709,7.5709,7.5709,7.5709,7.5709,7.5709,7.5709,7.5709,7.5709,7.5709,7.5709,7.5709,7.5709,4.9288,4.9146,4.8925,4.8697,4.8008,4.7309,4.7059,4.6681,4.6471,4.6909,4.7209,4.7489,4.7938,0.0,0.0,0.0,0.0,0.0,0.0,4.661,4.692,4.7859,5.0032,5.1995,5.3282,5.4234,5.4832,5.4999,5.4862,5.5961,5.8721,6.1066,6.3692,6.6582,6.9787,7.1985,7.3083,7.4634,7.5446,7.5446,7.4962,7.4666,7.4537,7.3949,7.398,7.4404,7.4404,7.4685,7.5134,7.5134,7.5134,7.5134,7.5134,7.5134,7.517,7.5544,7.5709,7.5662,7.5267,7.4831,7.4365,7.3988,7.3542,7.3135,7.3135,7.3135,7.2979,7.2226,7.1671,7.1111,7.0369,6.9821,6.9463,6.9463,6.9463,6.9764,7.0846,7.1938,7.2988,7.3742,7.4485,7.4863,7.4555,7.4117,7.4114,7.5005,7.5134,7.5134,7.5134,7.5134,7.5134,7.5134,7.5134,7.5207,7.5388,7.5484,7.5614,7.5709,7.5709,7.5709,7.5709,7.5709,7.5709,7.5709,7.5709,7.5709,7.5709,7.5709,7.5709,7.5709,7.5709,7.5709]},{"header":{"parameterUnit":"m.s-1","parameterCategory":1,"la1":30.6,"la2":29.2853,"lo1":-89.7004,"lo2":-87.6739,"dy":0.0162,"dx":0.0183,"nx":112,"ny":82,"refTime":"2026-04-01T00:00:00:Z","depth":0,"parameterNumber":3,"parameterNumberName":"V-component_of_WINDS"},"data":[0.0,0.0,0.0,0.0,0.0,0.0,0.0,0.0,0.0,0.0,0.0,0.0,0.0,0.0,0.0,0.0,0.0,0.0,0.0,0.0,0.0,0.0,0.0,0.0,0.0,0.0,0.0,0.0,0.0,0.0,0.0,0.0,0.0,0.0,0.0,0.0,0.0,0.0,0.0,0.0,0.0,0.0,0.0,0.0,0.0,0.0,0.0,0.0,0.0,0.0,0.0,0.0,0.0,0.0,0.0,0.0,0.0,0.0,0.0,0.0,0.0,0.0,0.0,0.0,0.0,0.0,0.0,0.0,0.0,0.0,0.0,0.0,0.0,0.0,0.0,0.0,0.0,0.0,0.0,0.0,0.0,0.0,0.0,0.0,0.0,0.0,0.0,0.0,0.0,0.0,1.0967,1.2786,1.3945,1.4517,1.4309,1.4183,1.372,1.2749,0.0,0.0,0.0,0.0,0.0,0.0,0.0,0.0,0.0,0.0,0.0,0.0,0.0,0.0,0.0,0.0,0.0,0.0,0.0,0.0,0.0,0.0,0.0,0.0,0.0,0.0,0.0,0.0,0.0,0.0,0.0,0.0,0.0,0.0,0.0,0.0,0.0,0.0,0.0,0.0,0.0,0.0,0.0,0.0,0.0,0.0,0.0,0.0,0.0,0.0,0.0,0.0,0.0,0.0,0.0,0.0,0.0,0.0,0.0,0.0,0.0,0.0,0.0,0.0,0.0,0.0,0.0,0.0,0.0,0.0,0.0,0.0,0.0,0.0,0.0,0.0,0.0,0.0,0.0,0.0,0.0,0.0,0.0,0.0,0.0,0.0,0.0,0.0,0.0,0.0,0.0,0.0,0.0,0.0,0.0,0.0,0.0,0.0,0.0,0.0,0.0,0.0,0.0,0.0,1.2266,1.4415,1.5167,1.5527,1.5607,1.6146,1.5781,1.4114,0.0,0.0,0.0,0.0,0.0,0.0,0.0,0.0,0.0,0.0,0.0,0.0,0.0,0.0,0.0,0.0,0.0,0.0,0.0,0.0,0.0,0.0,0.0,0.0,0.0,0.0,0.0,0.0,0.0,0.0,0.0,0.0,0.0,0.0,0.0,0.0,0.0,0.0,0.0,0.0,0.0,0.0,0.0,0.0,0.0,0.0,0.0,0.0,0.0,0.0,0.0,0.0,0.0,0.0,0.0,0.0,0.0,0.0,0.0,0.0,0.0,0.0,0.0,0.0,0.0,0.0,0.0,0.0,0.0,0.0,0.0,0.0,0.0,0.0,0.0,0.0,0.0,0.0,0.0,0.0,0.0,0.0,0.0,0.0,0.0,0.0,0.0,0.0,0.0,0.0,0.0,0.0,0.0,0.0,0.0,0.0,0.0,0.0,0.0,0.0,0.0,0.0,0.0,1.3228,1.4682,1.6111,1.6669,1.7003,1.7146,1.7327,1.6748,1.5113,1.2906,0.0,0.0,0.0,0.0,0.0,0.0,0.0,0.0,0.0,0.0,0.0,0.0,0.0,0.0,0.0,0.0,0.0,0.0,0.0,0.0,0.0,0.0,0.0,0.0,0.0,0.0,0.0,0.0,0.0,0.0,0.0,0.0,0.0,0.0,0.0,0.0,0.0,0.0,0.0,0.0,0.0,0.0,0.0,0.0,0.0,0.0,0.0,0.0,0.0,0.0,0.0,0.0,0.0,0.0,0.0,0.0,0.0,0.0,0.0,0.0,0.0,0.0,0.0,0.0,0.0,0.0,0.0,0.0,0.0,0.0,0.0,0.0,0.0,0.0,0.0,0.0,0.0,0.0,0.0,0.0,0.0,0.0,0.0,0.0,0.0,0.0,0.0,0.0,0.0,0.0,0.0,0.0,0.0,0.0,0.0,0.0,0.0,0.0,0.0,0.0,0.0,0.0,1.596,1.7223,1.7904,1.8419,1.8692,1.8582,1.8249,1.734,1.5644,1.3455,0.0,0.0,0.0,0.0,0.0,0.0,0.0,0.0,0.0,0.0,0.0,0.0,0.0,0.0,0.0,0.0,0.0,0.0,0.0,0.0,0.0,0.0,0.0,0.0,0.0,0.0,0.0,0.0,0.0,0.0,0.0,0.0,0.0,0.0,0.0,0.0,0.0,0.0,0.0,0.0,0.0,0.0,0.0,0.0,0.0,0.0,0.0,0.0,0.0,0.0,0.0,0.0,0.0,0.0,0.0,0.0,0.0,0.0,0.0,0.0,0.0,0.0,0.0,0.0,0.0,0.0,0.0,0.0,0.0,0.0,0.0,0.0,0.0,0.0,0.0,0.0,0.0,0.0,0.0,0.0,0.0,0.0,0.0,0.0,0.0,0.0,0.0,0.0,0.0,0.0,0.0,0.0,0.0,0.0,0.0,0.0,0.0,0.0,0.0,0.0,0.0,0.0,1.7942,1.9383,1.9934,2.0528,2.0559,1.9772,1.9162,1.7821,1.5463,1.3064,0.0,0.0,0.0,0.0,0.0,0.0,0.0,0.0,0.0,0.0,0.0,0.0,0.0,0.0,0.0,0.0,0.0,0.0,0.0,0.0,0.0,0.0,0.0,0.0,0.0,0.0,0.0,0.0,0.0,0.0,0.0,0.0,0.0,0.0,0.0,0.0,0.0,0.0,0.0,0.0,0.0,0.0,0.0,0.0,0.0,0.0,0.0,0.0,0.0,0.0,0.0,0.0,0.0,0.0,0.0,0.0,0.0,0.0,0.0,0.0,0.0,0.0,0.0,0.0,0.0,0.0,0.0,0.0,0.0,0.0,0.0,0.0,0.0,0.0,0.0,0.0,0.0,0.0,0.0,0.0,0.0,0.0,0.0,0.0,0.0,0.0,0.0,0.0,0.0,0.0,0.0,0.0,0.0,0.0,0.0,0.0,0.0,0.0,0.0,0.0,0.0,0.0,1.8359,1.9601,2.0144,2.0746,2.0748,1.988,1.9251,1.7998,1.5867,0.0,0.0,0.0,0.0,0.0,0.0,0.0,0.0,0.0,0.0,0.0,0.0,0.0,0.0,0.0,0.0,0.0,0.0,0.0,0.0,0.0,0.0,0.0,0.0,0.0,0.0,0.0,0.0,0.0,0.0,0.0,0.0,0.0,0.0,0.0,0.0,0.0,0.0,0.0,0.0,0.0,0.0,0.0,0.0,0.0,0.0,0.0,0.0,0.0,0.0,0.0,0.0,0.0,0.0,0.0,0.0,0.0,0.0,0.0,0.0,0.0,0.0,0.0,0.0,0.0,0.0,0.0,0.0,0.0,0.0,0.0,0.0,0.0,0.0,0.0,0.0,0.0,0.0,0.0,0.0,0.0,0.0,0.0,0.0,0.0,0.0,0.0,0.0,0.0,0.0,0.0,0.0,0.0,0.0,0.0,0.0,0.0,0.0,0.0,0.0,0.0,0.0,1.7069,1.854,1.9601,2.0144,2.0746,2.0748,1.988,1.9172,1.7989,1.6124,0.0,0.0,0.0,0.0,0.0,0.0,0.0,0.0,0.0,0.0,0.0,0.0,0.0,0.0,0.0,0.0,0.0,0.0,0.0,0.0,0.0,0.0,0.0,0.0,0.0,0.0,0.0,0.0,0.0,0.0,0.0,0.0,0.0,0.0,0.0,0.0,0.0,0.0,0.0,0.0,0.0,0.0,0.0,0.0,0.0,0.0,0.0,0.0,0.0,0.0,0.0,0.0,0.0,0.0,0.0,0.0,0.0,0.0,0.0,0.0,0.0,0.0,0.0,0.0,0.0,0.0,0.0,0.0,0.0,0.0,0.0,0.0,0.0,0.0,0.0,0.0,0.0,0.0,0.0,0.0,0.0,0.0,0.0,0.0,0.0,0.0,0.0,0.0,0.0,0.0,0.0,0.0,0.0,0.0,0.0,0.0,0.0,0.0,0.0,0.0,0.0,0.0,1.7381,1.8652,1.9601,2.013,2.0733,2.0748,1.9867,1.8998,1.7794,0.0,0.0,0.0,0.0,0.0,0.0,0.0,0.0,0.0,0.0,0.0,0.0,0.0,0.0,0.0,0.0,0.0,0.0,0.0,0.0,0.0,0.0,0.0,0.0,0.0,0.0,0.0,0.0,0.0,0.0,0.0,0.0,0.0,0.0,0.0,0.0,0.0,0.0,0.0,0.0,0.0,0.0,0.0,0.0,0.0,0.0,0.0,0.0,0.0,0.0,0.0,0.0,0.0,0.0,0.0,0.0,0.0,0.0,0.0,0.0,0.0,0.0,0.0,0.0,0.0,0.0,0.0,0.0,0.0,0.0,0.0,0.0,0.0,0.0,0.0,0.0,0.0,0.0,0.0,0.0,0.0,0.0,0.0,0.0,0.0,0.0,0.0,0.0,0.0,0.0,0.0,0.0,0.0,0.0,0.0,0.0,0.0,0.0,0.0,0.0,0.0,0.0,0.0,1.7381,1.8437,1.9264,1.9867,2.0252,2.0212,1.9561,1.8892,1.7954,1.6652,0.0,0.0,0.0,0.0,0.0,0.0,0.0,0.0,0.0,0.0,0.0,0.0,0.0,0.0,0.0,0.0,0.0,0.0,0.0,0.0,0.0,0.0,0.0,0.0,0.0,0.0,0.0,0.0,0.0,0.0,0.0,0.0,0.0,0.0,0.0,0.0,0.0,0.0,0.0,0.0,0.0,0.0,0.0,0.0,0.0,0.0,0.0,0.0,0.0,0.0,0.0,0.0,0.0,0.0,0.0,0.0,0.0,0.0,0.0,0.0,0.0,0.0,0.0,0.0,0.0,0.0,0.0,0.0,0.0,0.0,0.0,0.0,0.0,0.0,0.0,0.0,0.0,0.0,0.0,0.0,0.0,0.0,0.0,0.0,0.0,0.0,0.0,0.0,0.0,0.0,0.0,0.0,0.0,0.0,0.0,0.0,0.0,0.0,0.0,0.0,0.0,0.0,1.7381,1.8356,1.9131,1.9733,2.0039,1.9985,1.9441,1.8931,1.8115,1.683,0.0,0.0,0.0,0.0,0.0,0.0,0.0,0.0,0.0,0.0,0.0,0.0,0.0,0.0,0.0,0.0,0.0,0.0,0.0,0.0,0.0,0.0,0.0,0.0,0.0,0.0,0.0,0.0,0.0,0.0,0.0,0.0,0.0,0.0,0.0,0.0,0.0,0.0,0.0,0.0,0.0,0.0,0.0,0.0,0.0,0.0,0.0,0.0,0.0,0.0,0.0,0.0,0.0,0.0,0.0,0.0,0.0,0.0,0.0,0.0,0.0,0.0,0.0,0.0,0.0,0.0,0.0,0.0,0.0,0.0,0.0,0.0,0.0,0.0,0.0,0.0,0.0,0.0,0.0,0.0,0.0,0.0,0.0,0.0,0.0,0.0,0.0,0.0,0.0,0.0,0.0,0.0,0.0,0.0,0.0,0.0,0.0,0.0,0.0,0.0,0.0,0.0,1.7381,1.8343,1.9091,1.9693,1.9985,1.9918,1.9401,1.9052,1.8263,1.6834,0.0,0.0,0.0,0.0,0.0,0.0,0.0,0.0,0.0,0.0,0.0,0.0,0.0,0.0,0.0,0.0,0.0,0.0,0.0,0.0,0.0,0.0,0.0,0.0,0.0,0.0,0.0,0.0,0.0,0.0,0.0,0.0,0.0,0.0,0.0,0.0,0.0,0.0,0.0,0.0,0.0,0.0,0.0,0.0,0.0,0.0,0.0,0.0,0.0,0.0,0.0,0.0,0.0,0.0,0.0,0.0,0.0,0.0,0.0,0.0,1.7708,1.7162,0.0,0.0,0.0,0.0,0.0,0.0,0.0,0.0,0.0,0.0,0.0,0.0,0.0,0.0,0.0,0.0,0.0,0.0,0.0,0.0,0.0,0.0,0.0,0.0,0.0,0.0,0.0,0.0,0.0,0.0,0.0,0.0,0.0,0.0,0.0,0.0,0.0,0.0,0.0,0.0,1.7381,1.8183,1.8825,1.9428,1.9548,1.9427,1.9037,1.8758,1.8157,1.7153,1.5976,0.0,0.0,0.0,0.0,0.0,0.0,0.0,0.0,0.0,0.0,0.0,0.0,0.0,0.0,0.0,0.0,0.0,0.0,0.0,0.0,0.0,0.0,0.0,0.0,0.0,0.0,0.0,0.0,0.0,0.0,0.0,0.0,0.0,0.0,0.0,0.0,0.0,0.0,0.0,0.0,0.0,0.0,0.0,0.0,0.0,0.0,0.0,0.0,0.0,0.0,0.0,0.0,0.0,0.0,0.0,0.0,0.0,0.0,0.0,2.052,1.9422,0.0,0.0,0.0,0.0,0.0,0.0,0.0,0.0,0.0,0.0,0.0,0.0,0.0,0.0,0.0,0.0,0.0,0.0,0.0,0.0,0.0,0.0,0.0,0.0,0.0,0.0,0.0,0.0,0.0,0.0,0.0,0.0,0.0,0.0,0.0,0.0,0.0,0.0,0.0,0.0,1.7206,1.7903,1.849,1.9106,1.9158,1.9038,1.873,1.8584,1.8063,1.702,1.6099,0.0,0.0,0.0,0.0,0.0,0.0,0.0,0.0,0.0,0.0,0.0,0.0,0.0,0.0,0.0,0.0,0.0,0.0,0.0,0.0,0.0,0.0,0.0,0.0,0.0,0.0,0.0,0.0,0.0,0.0,0.0,0.0,0.0,0.0,0.0,0.0,0.0,0.0,0.0,0.0,0.0,0.0,0.0,0.0,0.0,0.0,0.0,0.0,0.0,0.0,0.0,0.0,0.0,2.1578,2.2266,2.3155,2.4173,2.5075,2.5717,2.3704,2.2288,2.132,2.0371,0.0,0.0,0.0,0.0,0.0,0.0,0.0,0.0,0.0,0.0,0.0,0.0,0.0,0.0,0.0,0.0,0.0,0.0,0.0,0.0,0.0,0.0,1.6472,1.6235,1.6394,1.6417,1.5748,0.0,0.0,0.0,0.0,0.0,0.0,0.0,0.0,0.0,0.0,0.0,1.7018,1.7675,1.8236,1.8836,1.889,1.881,1.8584,1.8531,1.8023,1.6927,1.6247,1.5526,0.0,0.0,0.0,0.0,0.0,0.0,0.0,0.0,0.0,0.0,0.0,0.0,0.0,0.0,0.0,0.0,0.0,0.0,0.0,0.0,0.0,0.0,0.0,0.0,0.0,0.0,0.0,0.0,0.0,0.0,0.0,0.0,1.7878,1.819,0.0,0.0,0.0,0.0,0.0,0.0,0.0,0.0,0.0,0.0,0.0,0.0,0.0,2.3028,2.3151,2.3134,2.3276,2.3624,2.404,2.4718,2.5664,2.6369,2.7007,2.7551,2.7104,0.0,2.4876,2.3097,0.0,0.0,0.0,0.0,0.0,0.0,0.0,0.0,0.0,0.0,0.0,0.0,0.0,0.0,0.0,0.0,0.0,0.0,0.0,0.0,0.0,0.0,1.7488,1.7676,1.7742,1.7822,1.7996,1.6993,1.5909,1.5378,1.5028,1.4638,0.0,0.0,0.0,0.0,0.0,0.0,1.7045,1.7675,1.8236,1.8836,1.889,1.889,1.885,1.8637,1.821,1.7528,1.6698,1.5951,1.5311,1.4442,0.0,0.0,0.0,0.0,0.0,0.0,0.0,0.0,0.0,0.0,0.0,0.0,0.0,0.0,0.0,0.0,0.0,0.0,0.0,0.0,0.0,0.0,0.0,0.0,0.0,0.0,0.0,0.0,0.0,1.8398,1.9885,2.0239,2.0286,2.0218,0.0,0.0,0.0,0.0,0.0,0.0,0.0,0.0,0.0,2.4656,2.5165,2.5587,2.5888,2.6134,2.6427,2.6797,2.7239,2.7777,2.842,2.8971,2.9212,2.9183,2.8898,2.8285,2.7335,2.512,2.3432,2.2077,0.0,0.0,0.0,0.0,2.0102,2.1093,2.1622,2.1649,2.1368,2.0825,0.0,0.0,0.0,0.0,0.0,0.0,0.0,1.722,1.7828,1.8549,1.9143,1.9257,1.93,1.9301,1.9291,1.8641,1.7756,1.6815,1.5992,1.5311,1.4908,1.4058,0.0,0.0,0.0,1.5777,1.6792,1.7422,1.8009,1.8611,1.8677,1.873,1.889,1.8651,1.8303,1.7849,1.7181,1.6605,1.6152,1.5284,1.4603,0.0,0.0,0.0,0.0,0.0,0.0,0.0,0.0,0.0,0.0,0.0,0.0,0.0,0.0,0.0,0.0,0.0,0.0,0.0,0.0,0.0,0.0,0.0,0.0,0.0,0.0,0.0,0.0,2.0333,2.1618,2.2241,2.2309,2.2153,0.0,0.0,0.0,0.0,0.0,0.0,2.4582,2.4891,2.5464,2.6342,2.7084,2.7643,2.8001,2.8412,2.8769,2.9068,2.9545,2.9916,3.0215,3.0698,3.0718,3.0366,2.9833,2.9408,2.891,2.6786,2.5244,2.4052,2.2493,2.2071,2.2323,2.2143,2.2849,2.3982,2.4592,2.4606,2.4288,2.3901,2.2853,2.1515,2.0087,0.0,0.0,0.0,0.0,1.9491,2.0121,2.0853,2.1402,2.1283,2.1315,2.125,2.0789,2.0247,1.9412,1.7994,1.6883,1.6046,1.5685,1.4765,0.0,1.52,1.5508,1.5924,1.6714,1.7341,1.7903,1.8451,1.8557,1.8718,1.8997,1.8704,1.8397,1.8143,1.7542,1.7086,1.6846,1.6058,1.5378,1.4848,0.0,0.0,0.0,0.0,0.0,0.0,0.0,0.0,0.0,0.0,0.0,0.0,0.0,0.0,0.0,0.0,0.0,0.0,0.0,0.0,0.0,0.0,0.0,0.0,0.0,0.0,0.0,0.0,0.0,2.4132,2.4362,0.0,0.0,0.0,0.0,2.4478,2.4812,2.5532,2.6765,2.6862,2.7272,2.8144,2.858,2.8814,2.8834,2.9311,2.954,2.9579,2.9975,3.0176,3.0215,3.0698,3.0893,3.0835,2.997,2.9579,2.9461,2.8131,2.702,2.6039,2.4794,2.4579,2.4928,2.497,2.579,2.6988,2.7785,2.8051,2.7973,2.7558,2.5597,2.3208,2.2233,2.091,0.0,0.0,2.1343,2.2071,2.2738,2.3681,2.4371,2.3924,2.4064,2.4017,2.3046,2.1875,2.0423,1.8459,1.7562,1.6939,1.6363,0.0,1.5523,1.6136,1.6256,1.6483,1.7099,1.7649,1.8116,1.8464,1.8731,1.9011,1.9348,1.8839,1.8477,1.8478,1.7662,1.7192,1.7179,1.6578,1.6098,1.573,1.4874,0.0,0.0,0.0,0.0,0.0,0.0,0.0,0.0,0.0,0.0,0.0,0.0,0.0,0.0,0.0,0.0,0.0,0.0,0.0,0.0,0.0,0.0,0.0,0.0,0.0,0.0,0.0,0.0,2.5576,2.5965,0.0,2.5724,2.5201,2.524,2.612,2.6278,2.6875,2.8151,2.8756,2.9199,2.9512,3.0215,3.0454,3.0195,3.0366,3.0444,3.0444,3.084,3.104,3.104,3.1519,3.1421,3.0879,3.0581,3.0126,2.9559,2.9109,2.8288,2.7278,2.6761,2.6744,2.702,2.6861,2.7474,2.8453,2.897,2.9149,2.899,2.8107,2.6574,2.4894,2.4127,2.3145,2.2375,2.286,2.3549,2.4259,2.473,2.5479,2.6011,2.5572,2.5575,2.531,2.404,2.2968,2.1801,2.0268,1.8751,1.7582,1.7194,1.6646,1.6313,1.6539,1.6739,1.7019,1.7421,1.7956,1.8437,1.873,1.8836,1.9052,1.9374,1.8839,1.8504,1.8504,1.7836,1.7448,1.7448,1.7086,1.6644,1.6126,1.528,1.4429,0.0,0.0,0.0,0.0,0.0,0.0,0.0,0.0,0.0,0.0,0.0,0.0,0.0,0.0,0.0,0.0,0.0,0.0,0.0,0.0,0.0,0.0,0.0,0.0,0.0,2.4183,2.5676,2.6724,2.7187,2.7402,2.7266,2.6843,2.6869,2.7585,2.7643,2.8131,2.9283,2.9883,3.0273,3.043,3.0996,3.1172,3.0913,3.0913,3.0972,3.1113,3.1372,3.1587,3.1758,3.2046,3.187,3.1323,3.103,3.0581,3.0028,2.9872,2.937,2.8658,2.8429,2.854,2.8785,2.8612,2.9039,2.9735,2.9963,3.0048,2.9902,2.8967,2.798,2.703,2.6429,2.5749,2.525,2.5613,2.6223,2.6819,2.7184,2.775,2.8108,2.7542,2.7399,2.6989,2.542,2.4268,2.3221,2.2188,2.0221,1.8617,1.8248,1.7691,1.7302,1.7308,1.7325,1.7421,1.7702,1.8263,1.869,1.8876,1.8997,1.9118,1.9226,1.8785,1.845,1.8343,1.7782,1.7461,1.7461,1.7193,1.6792,1.631,1.5414,1.4645,1.3973,0.0,0.0,0.0,0.0,0.0,0.0,0.0,0.0,0.0,0.0,0.0,0.0,0.0,0.0,0.0,0.0,0.0,0.0,0.0,0.0,0.0,0.0,0.0,2.35,2.4819,2.6225,2.7565,2.808,2.8496,2.8912,2.8613,2.8555,2.8951,2.899,2.9342,3.0195,3.0234,3.043,3.0893,3.0913,3.0932,3.0932,3.0918,3.1133,3.1528,3.1528,3.1777,3.2218,3.2237,3.2237,3.2179,3.1323,3.0952,3.0913,3.0449,3.0254,3.0215,2.9799,2.9877,3.0215,3.0215,3.0508,3.0913,3.0913,3.0913,3.082,3.0351,2.9936,2.954,2.9062,2.8633,2.8398,2.8775,2.9219,2.9676,3.0059,3.0522,3.0659,2.9813,2.9598,2.9094,2.7214,2.5771,2.4646,2.4031,2.1963,2.0135,1.9491,1.8924,1.8562,1.8534,1.8009,0.0,1.7982,1.8543,1.893,1.893,1.9213,1.9253,1.893,1.8651,1.8343,1.8009,1.7488,1.7192,1.7192,1.6873,1.6567,1.6284,1.5398,1.4862,1.4741,0.0,0.0,0.0,0.0,0.0,0.0,0.0,0.0,0.0,0.0,0.0,0.0,0.0,0.0,0.0,0.0,0.0,0.0,0.0,0.0,0.0,2.3516,2.4184,2.459,2.5803,2.7018,2.8021,2.8783,2.9389,2.9805,3.0039,3.0351,3.0747,3.0786,3.0884,3.1138,3.1138,3.1074,3.0913,3.1191,3.1333,3.1333,3.1675,3.1905,3.2007,3.2305,3.25,3.2637,3.293,3.291,3.2613,3.2383,3.2105,3.1831,3.1695,3.1636,3.1592,3.0835,3.062,3.0718,3.0718,3.0796,3.0913,3.0913,3.0913,3.082,3.0351,3.0131,2.9883,2.9127,2.8834,2.8697,2.8516,2.8769,2.9121,2.9224,2.9824,3.0268,2.9735,2.9598,2.915,2.752,2.63,2.522,2.4227,2.3648,2.2872,2.1422,2.0579,1.9872,1.9261,1.8632,1.829,1.8343,1.8892,1.9253,1.9253,1.9348,1.9253,1.893,1.8651,1.8263,1.7742,1.7381,1.7086,1.6846,1.6754,1.6461,1.5953,1.5638,1.56,0.0,0.0,0.0,0.0,0.0,0.0,0.0,0.0,0.0,0.0,0.0,0.0,0.0,0.0,0.0,0.0,0.0,0.0,0.0,0.0,0.0,0.0,2.4402,2.5242,2.606,2.6829,2.7598,2.8457,2.933,3.0092,3.0684,3.1187,3.1538,3.1777,3.1797,3.1719,3.1508,3.1508,3.1328,3.0913,3.1294,3.1508,3.1508,3.1968,3.2281,3.2457,3.2691,3.2891,3.3051,3.3285,3.3265,3.3047,3.2871,3.2672,3.2437,3.2276,3.2198,3.214,0.0,0.0,0.0,0.0,3.1152,3.1133,3.0957,3.0913,3.0854,3.0566,3.0488,3.0351,2.9668,2.9336,2.9101,2.8672,2.8613,2.8678,2.8853,2.9434,2.9877,2.9657,2.9735,2.9464,2.803,2.7134,2.6351,2.5484,2.5442,0.0,2.3793,2.2292,2.0982,2.0083,1.9209,1.8677,1.8677,1.9107,1.9401,1.9401,1.9401,1.9253,1.893,1.8651,0.0,0.0,0.0,1.6947,1.6874,1.7008,0.0,0.0,0.0,0.0,0.0,0.0,0.0,0.0,1.6864,1.7022,0.0,0.0,0.0,0.0,0.0,0.0,0.0,0.0,0.0,0.0,0.0,0.0,0.0,0.0,0.0,0.0,2.5249,2.6238,2.7526,2.7754,2.8073,2.8873,2.9746,3.0625,3.1489,3.2046,3.2335,3.2335,3.2335,3.2144,3.1665,3.1606,0.0,0.0,0.0,3.1606,3.1645,3.2105,3.2515,3.2871,3.2871,3.3051,3.3402,3.3402,3.3402,3.3383,3.3027,3.2871,3.2832,3.2476,3.2335,3.2335,3.2237,3.2198,3.2159,3.1738,3.1567,3.1528,3.1172,0.0,0.0,3.0976,3.0972,3.0859,3.0293,2.9877,2.9487,2.8984,2.8574,2.8379,2.8736,2.9199,2.9598,2.9598,2.9897,2.9863,2.8633,2.8041,2.7624,2.7097,2.7038,2.6846,2.6075,2.3898,2.1912,2.0956,1.9724,1.889,1.889,1.92,1.9401,1.9401,1.9401,0.0,1.893,1.8677,1.8384,1.7982,1.722,1.6941,1.7264,1.7582,1.7725,1.7691,1.7986,1.8532,1.9312,1.9844,2.0663,2.1669,1.9642,1.9204,0.0,0.0,0.0,0.0,0.0,0.0,0.0,0.0,0.0,0.0,0.0,0.0,0.0,0.0,0.0,2.516,2.5906,2.6595,2.7565,2.7976,2.849,2.935,3.0229,3.1108,3.1968,3.2734,3.3184,3.3184,3.3184,3.2988,3.2578,3.2242,3.2042,3.1964,3.2007,3.2222,3.2539,3.2953,3.3207,3.3285,3.3285,0.0,3.3402,3.3402,3.3402,3.3402,3.3324,3.3285,3.3285,3.3187,3.3184,3.309,3.2437,3.2198,3.2179,3.2101,3.2066,3.2046,3.1983,3.1944,3.1905,3.1504,3.1391,3.1191,3.0053,2.9657,0.0,2.8646,2.8359,2.8334,2.8398,2.8998,2.9598,2.9598,2.9897,2.9941,2.899,2.8476,2.7962,2.7155,2.7318,2.7285,2.6382,2.4503,2.2763,2.1608,1.9991,1.889,1.889,1.92,1.9401,1.9401,1.9401,1.9253,1.893,1.885,1.849,1.7742,1.7469,1.7669,1.8358,1.8508,1.8657,1.8869,1.9402,2.0181,2.1183,2.2144,2.3365,2.4778,2.2333,2.1389,0.0,0.0,0.0,0.0,0.0,0.0,0.0,0.0,0.0,0.0,0.0,2.241,2.3279,0.0,2.4531,2.5847,2.6426,2.7012,2.7878,2.8177,2.8627,2.95,3.0366,3.1245,3.212,3.293,3.3402,3.3402,3.3402,3.3226,3.2812,3.2613,3.2413,3.2198,3.2413,3.2593,3.2793,3.3187,3.3402,3.3402,3.3402,3.3402,3.3402,3.3402,3.3402,3.3402,3.3402,3.3402,3.3402,3.3402,3.3402,3.3363,3.2969,3.2793,3.2773,3.2574,3.2496,3.2476,3.2276,3.2198,3.2159,3.1929,3.1699,3.1333,3.0503,2.995,2.9461,2.8789,2.8457,2.8353,2.8555,2.9096,2.9657,2.9838,3.0229,3.0371,2.9707,2.9394,2.9062,2.8418,2.849,2.8352,2.7365,2.5833,2.4231,2.2732,2.1095,1.9989,1.9832,1.9827,1.9793,1.962,1.9595,1.9539,1.9359,1.9495,1.9278,1.8505,1.8954,1.9421,1.9794,2.0285,2.054,2.0505,2.1287,2.2017,2.2696,2.3811,2.5043,2.631,2.5054,2.4152,0.0,0.0,0.0,0.0,0.0,0.0,0.0,2.1279,2.1688,2.2168,2.293,2.363,2.4082,2.4816,2.563,2.6497,2.6992,2.7539,2.8301,2.8509,2.8842,2.9623,3.0424,3.1245,3.212,3.293,3.3402,3.3402,3.3402,3.3265,3.293,3.291,3.2769,3.2437,3.275,3.291,3.291,3.3226,3.3402,3.3402,3.3402,3.3402,3.3402,3.3402,3.3402,3.3402,3.3402,3.3402,3.3402,3.3402,3.3402,3.3402,3.3402,3.3402,3.3363,3.3047,3.291,3.2871,3.2535,3.2437,3.2433,3.2355,3.2007,3.1528,3.1055,3.0346,2.9623,2.916,2.8809,2.8627,2.8951,2.9375,2.9813,3.0117,3.0561,3.0762,3.0293,3.0195,3.0092,2.9676,2.9598,2.9294,2.833,2.7183,2.5761,2.3883,2.2456,2.1455,2.1057,2.0744,2.0428,2.0108,1.9918,1.9914,2.0194,2.0544,2.0551,2.0118,2.1005,2.1596,2.1695,2.2425,2.2725,2.2501,2.3306,2.3865,2.4169,2.5205,2.6249,2.7253,2.7253,2.6602,2.0615,2.0723,2.1005,2.1044,2.1416,2.1846,0.0,2.2596,2.3014,2.3496,2.4269,2.4992,2.5406,2.5918,2.6536,2.7409,2.7884,2.832,2.8775,2.9193,2.9623,3.0092,3.06,3.1245,3.212,3.293,3.3402,3.3402,3.3402,3.3383,3.3344,3.3344,3.3304,3.3265,3.3304,3.3344,3.3344,3.3383,3.3402,3.3402,3.3402,3.3402,3.3402,3.3402,3.3402,3.3402,3.3402,3.3402,3.3402,3.3402,3.3402,3.3402,3.3402,3.3402,3.3386,3.3363,3.3344,3.3324,3.3285,3.3265,3.3207,3.2851,3.2457,3.1983,3.1147,3.0542,3.0053,2.9637,2.95,2.9461,2.952,2.9819,3.0137,3.0176,3.0561,3.0762,3.0293,3.0195,3.0092,2.9676,2.9598,2.935,2.8597,2.7899,2.6742,2.4686,2.3578,2.277,2.2192,2.173,2.1362,2.1059,2.0305,2.0321,2.1642,2.212,2.2509,2.2928,2.3274,2.38,2.4506,2.464,2.4785,2.4987,2.517,2.5433,2.5838,2.6498,2.7289,2.8144,2.8144,2.7656,2.1093,2.1259,2.1669,2.1893,2.25,2.3058,2.3223,2.3769,2.4394,2.4812,2.541,2.5989,2.6381,2.6608,2.7031,2.7904,2.8379,2.8795,2.9252,2.9682,2.9916,2.9872,3.0229,3.084,3.1699,3.2559,3.3066,3.3066,3.3265,3.3402,3.3402,3.3402,3.3402,3.3402,3.3402,3.3402,3.3402,3.3402,3.3402,3.3402,3.3402,3.3402,3.3402,3.3402,3.3402,3.3402,3.3402,3.3402,3.3402,3.3402,3.3402,3.3402,3.3402,3.3402,3.3402,3.3402,3.3402,3.3402,3.3402,3.3402,3.3383,3.3207,3.2871,3.2476,3.2124,3.1714,3.1265,3.082,3.0703,3.0644,3.0424,3.0483,3.062,3.062,3.0776,3.0854,3.0659,3.062,3.0561,3.0385,3.0346,3.0167,2.9577,2.887,2.8065,2.7183,2.5687,2.4439,2.3834,2.3101,2.2396,2.1788,2.1935,2.2512,2.3657,2.4246,2.4631,2.4789,2.5181,2.5445,2.5456,2.5839,2.6003,2.5926,2.637,2.6614,2.6626,2.7228,2.7785,2.8314,2.8314,2.8105,2.1445,2.1728,2.2178,2.2578,2.3242,2.3859,2.4093,2.4652,2.5207,2.562,2.6081,2.6523,2.6921,2.7194,2.7585,2.834,2.901,2.957,2.9897,3.0293,3.0449,3.0151,3.0273,3.0644,3.1274,3.2109,3.2691,3.2793,3.3168,3.3402,3.3402,3.3402,3.3402,3.3402,3.3402,3.3402,3.3402,3.3402,3.3402,3.3402,3.3402,3.3402,3.3402,3.3402,3.3402,3.3402,3.3402,3.3402,3.3402,3.3402,3.3402,3.3402,3.3402,3.3402,3.3402,3.3402,3.3402,3.3402,3.3402,3.3402,3.3402,3.3402,3.3144,3.2793,3.2793,3.2515,3.214,3.1777,3.1606,3.143,3.1133,3.0976,3.0913,3.0913,3.0913,3.0913,3.0913,3.0913,3.0913,3.0913,3.0913,3.0757,3.0273,2.9687,2.9224,2.9121,2.7773,2.6531,2.5797,2.4918,2.4025,2.3169,2.3993,2.4922,2.5711,2.6387,2.679,2.6834,2.709,2.7053,2.6676,2.7005,2.7106,2.6861,2.7378,2.7543,2.7355,2.7799,2.8107,2.8314,2.8314,2.8314,2.1758,2.2168,2.2587,2.3049,2.3499,2.4015,2.4867,2.5094,2.5207,2.562,2.6081,2.6523,2.6921,2.7695,2.8398,2.8814,2.998,3.084,3.0874,3.1211,3.145,3.145,3.1113,3.0893,3.0932,3.171,3.2394,3.2773,3.3168,3.3402,3.3402,3.3402,3.3402,3.3402,3.3402,3.3402,3.3402,3.3402,3.3402,3.3402,3.3402,3.3402,3.3402,3.3402,3.3402,3.3402,3.3402,3.3402,3.3402,3.3402,3.3402,3.3402,3.3402,3.3402,3.3402,3.3402,3.3402,3.3402,3.3402,3.3402,3.3402,3.3402,3.3144,3.2793,3.2793,3.2515,3.2198,3.2179,3.1836,3.1489,3.1489,3.1177,3.0913,3.0913,3.0913,3.0913,3.0913,3.0913,3.0913,3.0913,3.0913,3.0757,3.0273,3.0176,3.0034,2.9637,2.9517,2.9111,2.8126,2.7297,2.6457,2.5587,2.6339,2.7113,2.7663,2.8333,2.8945,2.9453,2.9066,2.8818,2.8813,2.845,2.8235,2.8254,2.8254,2.8274,2.8274,2.8287,2.8281,2.8314,2.8314,2.8314,2.2498,2.3016,2.3457,2.3887,2.4328,2.473,2.5024,2.5305,2.5535,2.5667,2.5835,2.6069,2.6523,2.7318,2.8119,2.8795,3.024,3.1309,3.1309,3.1899,3.2148,3.1567,3.1372,3.1177,3.0932,3.1406,3.1797,3.1934,3.2598,3.3008,3.3008,3.3246,3.3402,3.3402,3.3402,3.3402,3.3402,3.3402,3.3402,3.3402,3.3402,3.3402,3.3402,3.3402,3.3402,3.3402,3.3402,3.3402,3.3402,3.3402,3.3402,3.3402,3.3402,3.3402,3.3402,3.3402,3.3402,3.3402,3.3402,3.3402,3.3402,3.3402,3.3304,3.3187,3.3187,3.309,3.2949,3.2656,3.248,3.2305,3.2046,3.1851,3.1753,3.1753,3.1753,3.1675,3.1367,3.1309,3.123,3.0952,3.0913,3.0854,3.0684,3.0424,3.0156,3.0014,2.9577,2.9008,2.8328,2.8032,2.7633,2.6929,2.7739,2.8468,2.8825,2.949,2.9901,2.9991,2.9844,2.9648,2.9369,2.9232,2.9154,2.9154,2.9154,2.9154,2.9154,2.9154,2.8998,2.8697,2.8697,2.8555,2.3357,2.3767,2.4121,2.4551,2.4887,2.5141,2.5285,2.5503,2.5647,2.5515,2.5496,2.5649,2.6178,2.724,2.8272,2.9088,3.0839,3.2038,3.1903,3.242,3.2598,3.2016,3.1836,3.1641,3.1382,3.1445,3.1508,3.1508,3.2168,3.2652,3.2793,3.3168,3.3402,3.3402,3.3402,3.3402,3.3402,3.3402,3.3402,3.3402,3.3402,3.3402,3.3402,3.3402,3.3402,3.3402,3.3402,3.3402,3.3402,3.3402,3.3402,3.3402,3.3402,3.3402,3.3402,3.3402,3.3402,3.3402,3.3402,3.3402,3.3402,3.3402,3.3402,3.3402,3.3402,3.3402,3.3344,3.3105,3.291,3.2734,3.2476,3.2316,3.2198,3.2198,3.2198,3.212,3.1816,3.1758,3.166,3.1421,3.1226,3.1113,3.1113,3.0742,3.0449,3.0449,3.0043,2.9612,2.927,2.9267,2.9198,2.895,2.9505,2.9971,3.0145,3.0563,3.0679,3.0454,3.0293,3.0078,2.9833,2.9676,2.9598,2.9598,2.9598,2.9598,2.9598,2.9598,2.9447,2.9141,2.9141,2.9004,2.4227,2.4449,2.4578,2.5024,2.5121,2.5227,2.5608,2.5706,2.5581,2.5149,2.5063,2.5263,2.5928,2.744,2.8858,2.9695,3.1684,3.3015,3.2689,3.2754,3.2832,3.2851,3.2531,3.2296,3.2257,3.1836,3.1567,3.1548,3.1949,3.2374,3.2734,3.3168,3.3402,3.3402,3.3402,3.3402,3.3402,3.3402,3.3422,3.3441,3.3422,3.3402,3.3402,3.3402,3.3402,3.3402,3.3402,3.3402,3.3402,3.3402,3.3402,3.3402,3.3402,3.3402,3.3402,3.3402,3.3402,3.3402,3.3402,3.3402,3.3402,3.3402,3.3402,3.3402,3.3402,3.3402,3.3402,3.3402,3.3144,3.2832,3.2832,3.2554,3.2257,3.2257,3.2257,3.2257,3.2237,3.2237,3.2218,3.2198,3.1851,3.1548,3.1548,3.123,3.0972,3.0972,3.0952,3.0918,3.0913,3.0913,3.1055,3.143,3.1469,3.1469,3.1469,3.1469,3.1313,3.0918,3.0469,3.0249,3.0249,2.9858,2.9676,2.9676,2.9676,2.9676,2.9676,2.9676,2.9657,2.9637,2.9637,2.9618,2.4758,2.5144,2.5406,2.5523,2.5554,2.5581,2.5667,2.5706,2.5491,2.4734,2.459,2.4749,2.5331,2.7085,2.8857,3.005,3.2029,3.3373,3.3274,3.3252,3.3379,3.3727,3.3684,3.3473,3.3125,3.2715,3.2344,3.2046,3.214,3.2237,3.2355,3.3027,3.3402,3.3402,3.3402,3.3402,3.3402,3.3402,3.3594,3.3922,3.3574,3.3402,3.3402,3.3402,3.3402,3.3402,3.3402,3.3402,3.3402,3.3402,3.3402,3.3402,3.3402,3.3402,3.3402,3.3402,3.3402,3.3402,3.3402,3.3402,3.3402,3.3402,3.3402,3.3402,3.3402,3.3402,3.3402,3.3402,3.3324,3.3246,3.3246,3.3168,3.309,3.309,3.309,3.3008,3.2695,3.2652,3.2554,3.2257,3.2085,3.2027,3.2027,3.1944,3.1866,3.1866,3.1562,3.125,3.0952,3.0913,3.0952,3.1035,3.1055,3.1055,3.1055,3.1055,3.0996,3.0913,3.0796,3.0718,3.0718,3.062,3.0561,3.0561,3.0561,3.0561,3.0561,3.0561,3.0385,3.0053,3.0053,2.9877,2.5234,2.5684,2.5952,2.5745,2.5854,2.5952,2.5757,2.5562,2.5278,2.4698,2.4506,2.4734,2.5687,2.764,2.9528,3.0871,3.2666,3.3894,3.3924,3.3694,3.3709,3.4176,3.4235,3.4152,3.3949,3.3591,3.3277,3.3058,3.2511,3.2276,3.2457,3.3066,3.3402,3.3402,3.3402,3.35,3.3711,3.3887,3.4004,3.4114,3.3828,3.3613,3.3402,3.3402,3.3402,3.3402,3.3402,3.3402,3.3402,3.3402,3.3519,3.3711,3.3711,3.3828,3.3968,3.3968,3.3968,3.3968,3.3968,3.3968,3.391,3.3519,3.3402,3.3402,3.3402,3.3402,3.3402,3.3402,3.3402,3.3402,3.3402,3.3402,3.3402,3.3402,3.3402,3.3344,3.3109,3.3051,3.2949,3.2535,3.2457,3.2413,3.2237,3.2198,3.2198,3.2198,3.1968,3.1641,3.123,3.0996,3.0972,3.1152,3.1172,3.1172,3.1172,3.1172,3.1094,3.0913,3.0913,3.0913,3.0913,3.0913,3.0913,3.0913,3.0913,3.0913,3.0913,3.0913,3.0762,3.0508,3.0508,3.0385,2.5679,2.6081,2.6321,2.5971,2.614,2.6269,2.5815,2.5391,2.5028,2.4822,2.4687,2.5071,2.6564,2.8671,3.0618,3.1998,3.3475,3.4504,3.4578,3.4116,3.3962,3.4534,3.4604,3.4705,3.4871,3.4631,3.4407,3.4274,3.3254,3.2726,3.2965,3.3344,3.3578,3.3578,3.3578,3.3809,3.4271,3.4567,3.4567,3.4271,3.4196,3.3981,3.3578,3.3578,3.3578,3.3578,3.3578,3.3539,3.35,3.3558,3.3789,3.4114,3.4173,3.4391,3.4707,3.4707,3.4707,3.4707,3.4707,3.4707,3.457,3.3812,3.3578,3.3558,3.3519,3.35,3.348,3.3422,3.3402,3.3402,3.3402,3.3402,3.3402,3.3402,3.3402,3.3402,3.3402,3.3402,3.3304,3.2949,3.2871,3.2769,3.2433,3.2374,3.2374,3.2374,3.23,3.2124,3.1723,3.1328,3.1172,3.1469,3.1548,3.1587,3.1587,3.1587,3.1445,3.1089,3.1069,3.1069,3.1069,3.1069,3.1069,3.1069,3.1069,3.1069,3.1069,3.1011,3.0976,3.0991,3.0918,3.0913,2.614,2.634,2.6465,2.6706,2.6602,2.6269,2.5815,2.5391,2.4996,2.4628,2.4934,2.5713,2.7239,2.9517,3.1643,3.3098,3.4167,3.4855,3.4977,3.4492,3.4475,3.5432,3.5707,3.5981,3.6383,3.6321,3.5935,3.5231,3.4977,3.4567,3.3903,3.4274,3.4473,3.4473,3.4473,3.4707,3.5173,3.4863,3.4863,3.5173,3.4766,3.4551,3.4473,3.4473,3.4473,3.4473,3.4473,3.4293,3.4,3.4336,3.4333,3.4118,3.4469,3.4629,3.4707,3.4707,3.4707,3.4707,3.4707,3.4707,3.4668,3.4531,3.4473,3.4414,3.4079,3.3981,3.3903,3.35,3.3402,3.3402,3.3402,3.3402,3.3402,3.3402,3.3402,3.3402,3.3402,3.3402,3.3383,3.3304,3.3304,3.3265,3.3207,3.3187,3.3187,3.3187,3.291,3.2672,3.2578,3.2222,3.1851,3.1528,3.1836,3.2081,3.2081,3.2081,3.2061,3.1983,3.1983,3.1983,3.1983,3.1983,3.1983,3.1983,3.1983,3.1983,3.1983,3.1582,3.1391,3.1391,3.1055,3.0913,2.6817,2.7204,2.7462,2.7355,2.7259,2.6991,2.6283,2.5611,2.5209,2.535,2.5603,2.6376,2.8236,3.0092,3.192,3.3688,3.4269,3.4632,3.5095,3.4451,3.438,3.5595,3.6147,3.6682,3.731,3.7489,3.7337,3.6752,3.6311,3.5583,3.4469,3.4606,3.4707,3.4707,3.4941,3.5176,3.5391,3.5374,3.5374,3.5391,3.5176,3.4941,3.4707,3.4707,3.4707,3.4707,3.4707,3.459,3.443,3.4609,3.4726,3.4802,3.498,3.5195,3.5374,3.5374,3.5374,3.5374,3.5374,3.5374,3.5374,3.5374,3.5078,3.4609,3.4215,3.4114,3.4,3.3519,3.3402,3.3402,3.3402,3.3594,3.375,3.375,3.391,3.4082,3.4082,3.4082,3.4082,3.4082,3.3906,3.375,3.375,3.3558,3.3402,3.3402,3.3226,3.3047,3.2832,3.2812,3.2578,3.1914,3.2081,3.2198,3.2198,3.2198,3.2296,3.2496,3.2316,3.2296,3.2496,3.2316,3.2198,3.2198,3.2198,3.2198,3.2198,3.1968,3.1855,3.187,3.1675,3.1592,2.7677,2.8321,2.8768,2.8309,2.8256,2.81,2.7154,2.6249,2.5762,2.6281,2.6514,2.72,2.9083,3.0581,3.2058,3.3779,3.4083,3.4273,3.4803,3.409,3.4066,3.5489,3.6456,3.7373,3.8297,3.8763,3.8803,3.8305,3.7383,3.6287,3.5039,3.498,3.498,3.498,3.5332,3.5527,3.5527,3.5842,3.5842,3.5527,3.5527,3.5332,3.498,3.498,3.498,3.498,3.498,3.4922,3.4863,3.4941,3.5137,3.541,3.5488,3.5706,3.5999,3.5999,3.5999,3.5999,3.5999,3.5999,3.5999,3.5999,3.553,3.4902,3.4508,3.4388,3.4274,3.3812,3.3675,3.3675,3.3675,3.3945,3.4235,3.4235,3.4469,3.4707,3.4707,3.4707,3.4707,3.4707,3.445,3.4196,3.4098,3.3789,3.3519,3.3422,3.3402,3.3285,3.2969,3.3207,3.3148,3.2515,3.2457,3.2457,3.2457,3.255,3.2746,3.3062,3.2769,3.2765,3.3082,3.2672,3.2457,3.2457,3.2457,3.2457,3.2457,3.2374,3.2335,3.2335,3.2237,3.2198,2.88,2.9536,3.0113,3.0065,2.9925,2.9551,2.8632,2.7645,2.6951,2.6991,2.7497,2.8264,2.9373,3.0962,3.2364,3.3092,3.3706,3.4031,3.3865,3.3338,3.3612,3.5329,3.7022,3.8566,3.9866,4.0622,4.0595,3.9519,3.8078,3.6855,3.592,3.5881,3.5881,3.5881,3.592,3.594,3.594,3.5979,3.5979,3.594,3.594,3.592,3.5881,3.5881,3.5881,3.5881,3.5881,3.5667,3.5351,3.5725,3.5686,3.543,3.5803,3.5979,3.5999,3.5999,3.5999,3.5999,3.5999,3.5999,3.5999,3.5999,3.594,3.5803,3.5391,3.5273,3.5176,3.4707,3.459,3.459,3.459,3.4609,3.4648,3.4648,3.4668,3.4707,3.4707,3.4707,3.4707,3.4707,3.4668,3.4531,3.4157,3.4059,3.3903,3.3461,3.3402,3.3402,3.3363,3.3383,3.3383,3.3304,3.3285,3.3285,3.3285,3.3688,3.3938,3.3977,3.3958,3.3938,3.3977,3.3535,3.3285,3.3285,3.3285,3.3285,3.3285,3.293,3.2734,3.275,3.2374,3.2198,3.0271,3.1394,3.2136,3.1728,3.1317,3.0686,2.9384,2.8267,2.7607,2.7867,2.8241,2.8778,2.9682,3.0639,3.1644,3.2739,3.3155,3.3409,3.3669,3.3274,3.3422,3.4696,3.6245,3.7524,3.827,3.9613,3.9843,3.8334,3.7866,3.7305,3.6482,3.6641,3.6777,3.6777,3.6777,3.6777,3.6777,3.6543,3.6423,3.6423,3.6135,3.5999,3.5999,3.5999,3.5999,3.5999,3.5999,3.5901,3.5764,3.594,3.5901,3.5781,3.594,3.5999,3.5999,3.5999,3.5999,3.5999,3.5999,3.5999,3.5999,3.5999,3.5999,3.592,3.5527,3.5391,3.5293,3.4824,3.4707,3.4707,3.4707,3.4902,3.5176,3.5413,3.5471,3.5471,3.5471,3.5471,3.5471,3.5471,3.5293,3.5059,3.4919,3.4466,3.4055,3.3864,3.3594,3.3402,3.3402,3.3652,3.3809,3.3809,3.3574,3.3402,3.3402,3.3828,3.4196,3.445,3.4235,3.4196,3.445,3.3773,3.3402,3.3402,3.3402,3.3402,3.3402,3.3246,3.3148,3.3148,3.3008,3.293,3.1538,3.3166,3.4247,3.3496,3.2936,3.2218,3.0812,2.9659,2.8972,2.9288,2.9468,2.9701,3.0138,3.042,3.0939,3.1967,3.2255,3.2507,3.2979,3.2736,3.2846,3.3735,3.5056,3.6156,3.6759,3.8389,3.8851,3.7408,3.756,3.748,3.6912,3.7166,3.7305,3.7305,3.7305,3.7246,3.7109,3.6834,3.6619,3.6502,3.6172,3.5999,3.5999,3.5999,3.5999,3.5999,3.5999,3.5999,3.5999,3.5999,3.5999,3.5999,3.5999,3.5999,3.5999,3.5999,3.5999,3.5999,3.5999,3.5999,3.5999,3.5999,3.5999,3.594,3.5664,3.5586,3.5508,3.5176,3.5081,3.5081,3.5081,3.5332,3.5664,3.594,3.5999,3.5999,3.5999,3.5999,3.5999,3.5999,3.5764,3.5547,3.541,3.4899,3.443,3.4293,3.4004,3.3773,3.3773,3.4062,3.4274,3.4274,3.4101,3.3929,3.3793,3.4199,3.4606,3.4883,3.4645,3.4547,3.4687,3.4105,3.3734,3.3613,3.3714,3.3773,3.3773,3.3773,3.3773,3.3773,3.3773,3.3773,3.2402,3.4634,3.6428,3.5417,3.4924,3.4391,3.3319,3.219,3.1351,3.1361,3.1361,3.1243,3.077,3.0521,3.0432,3.0508,3.0959,3.1358,3.1504,3.1458,3.169,3.2434,3.3593,3.4784,3.5993,3.7451,3.8024,3.7354,3.7305,3.7305,3.7285,3.7305,3.7305,3.7305,3.7305,3.7107,3.6714,3.6714,3.6462,3.6018,3.5999,3.5999,3.5999,3.5999,3.5999,3.5999,3.5999,3.5999,3.5999,3.5999,3.5999,3.5999,3.5999,3.5999,3.5999,3.5999,3.5999,3.5999,3.5999,3.5999,3.5999,3.5999,3.5999,3.5999,3.5999,3.5999,3.5999,3.5999,3.5999,3.5999,3.5999,3.5999,3.5999,3.5999,3.5999,3.5999,3.5999,3.5999,3.5999,3.5999,3.5999,3.5862,3.5469,3.5391,3.5234,3.4766,3.4687,3.4687,3.4687,3.4687,3.4687,3.4687,3.5098,3.5176,3.4726,3.5134,3.5391,3.5391,3.5391,3.5176,3.4726,3.4687,3.4508,3.4114,3.4473,3.4687,3.4687,3.4687,3.4687,3.4687,3.4687,3.4687,3.2582,3.4877,3.6433,3.5388,3.4919,3.4301,3.2807,3.1924,3.1396,3.1396,3.1396,3.1212,3.0604,3.0182,2.995,2.9999,3.0331,3.0777,3.1404,3.1805,3.2281,3.3037,3.4196,3.5604,3.7356,3.7622,3.766,3.7573,3.7619,3.7413,3.6929,3.7148,3.7305,3.7305,3.7305,3.7226,3.7107,3.6834,3.6636,3.6465,3.6135,3.5999,3.5999,3.5999,3.5999,3.5999,3.5999,3.5999,3.5999,3.5999,3.5999,3.5999,3.5999,3.5999,3.5999,3.5999,3.5999,3.5999,3.5999,3.5999,3.5999,3.5999,3.5999,3.5999,3.5999,3.5999,3.5999,3.5999,3.5999,3.5999,3.5999,3.5999,3.5999,3.5999,3.5999,3.5999,3.5999,3.5999,3.5999,3.5999,3.5999,3.5959,3.5823,3.5586,3.5351,3.5195,3.4902,3.4707,3.4707,3.498,3.5176,3.5176,3.5566,3.5644,3.5215,3.5857,3.6287,3.6287,3.5996,3.5625,3.5195,3.4863,3.4508,3.4114,3.4508,3.4707,3.4707,3.4707,3.4863,3.5192,3.5452,3.5589,3.2495,3.476,3.637,3.5456,3.4967,3.4377,3.3133,3.2416,3.2035,3.2035,3.2035,3.1805,3.1036,3.0186,2.9545,2.9407,2.9415,2.9774,3.0681,3.1629,3.2698,3.4014,3.5203,3.6618,3.8416,3.8354,3.8163,3.806,3.7842,3.7353,3.648,3.668,3.6816,3.6816,3.7129,3.7226,3.7088,3.6832,3.6599,3.6426,3.6135,3.5999,3.5999,3.5999,3.5999,3.5999,3.5999,3.5999,0.0,3.5999,3.6096,3.6269,3.6269,3.6367,3.6487,3.6487,3.6487,3.6467,3.6328,3.6269,3.623,3.6057,3.5999,3.5999,3.5999,3.5999,3.5999,3.5999,3.5999,3.5999,3.5999,3.5999,3.5999,3.5999,3.5999,3.5999,3.5999,3.5999,3.5999,3.5999,3.5999,3.5999,3.5999,3.5784,3.5625,3.5625,3.5391,3.5195,3.5195,3.5449,3.5625,3.5625,3.6016,3.6152,3.5915,3.6384,3.6714,3.6714,3.6443,3.6074,3.5628,3.5351,3.5,3.4587,3.498,3.5195,3.5195,3.5371,3.5681,3.6113,3.6369,3.6487,0.0,3.438,3.613,3.5556,3.5018,3.4502,3.3972,3.3456,0.0,3.309,3.309,3.282,3.1904,3.0486,2.9303,2.8884,2.8512,2.864,2.9736,3.1401,3.3286,3.5452,3.6725,3.797,3.9326,3.9583,3.9395,3.8725,3.8021,3.7159,3.605,3.5999,3.5999,3.5999,3.6797,3.7029,3.6638,3.6638,3.6426,3.5999,3.5999,3.5999,3.5999,3.5999,3.5999,3.5999,3.5999,3.5999,3.5999,3.6038,3.6309,3.6697,3.6716,3.697,3.7305,3.7305,3.7305,3.7246,3.6873,3.6736,3.6677,3.6233,3.6096,3.6096,3.6096,3.6057,3.5999,3.5999,3.6018,3.6057,3.6057,3.6077,3.6096,3.6096,3.6096,3.6096,3.6096,3.6096,3.6096,3.6096,3.6096,3.6096,3.6096,3.6096,3.6096,3.6096,3.6096,3.6096,3.6096,3.6096,3.6096,3.6096,3.6462,3.6714,3.6714,3.6734,3.6736,3.6736,3.6714,3.6502,3.6018,3.5999,3.5803,3.5427,3.5801,3.6018,3.6057,3.6521,3.6951,3.7344,3.7383,3.7383,3.1937,0.0,3.4965,3.4413,3.4187,3.3947,0.0,3.319,3.309,3.309,3.309,3.2864,3.2078,3.0879,2.9988,2.9861,2.9308,2.9529,3.1418,3.4303,3.6803,3.8348,3.9772,4.0946,4.1798,4.1546,4.0793,3.9464,3.8503,3.7411,3.6067,3.5999,3.5999,3.5999,3.6194,3.6252,3.6172,3.6155,3.6096,3.5999,3.5999,3.5999,3.5999,3.5999,3.5999,3.5999,3.5999,3.5999,3.6018,3.6387,3.6599,3.6716,3.7049,3.7207,3.7305,3.7305,3.7305,3.7285,3.7187,3.7166,3.7129,3.7031,3.6992,3.6992,3.6992,3.6543,3.5999,3.5999,3.6269,3.6541,3.6541,3.6758,3.6992,3.6992,3.6992,3.6992,3.6992,3.6992,3.6992,3.6992,3.6992,3.6992,3.6992,3.6992,3.6992,3.6992,3.6992,3.6992,3.6992,3.6992,3.6992,3.6992,3.6814,3.6714,3.6714,3.699,3.7166,3.7166,3.6873,3.6502,3.6018,3.5999,3.5803,3.5427,3.5801,3.6191,3.6541,3.697,3.7363,3.7775,3.8143,3.8299,3.2174,3.3135,3.3897,3.3607,3.3531,3.3456,3.3165,3.309,3.309,3.309,3.309,3.2907,3.231,3.1572,3.1077,3.1109,3.0861,3.1604,3.4342,3.7221,3.9748,4.1611,4.3028,4.4062,4.4651,4.3899,4.2515,4.0494,3.9261,3.7846,3.6084,3.5999,3.5999,3.5999,3.5999,3.5999,3.5999,3.5999,3.5999,3.5999,3.5999,3.5999,3.5999,3.5999,3.5999,3.6018,3.623,3.6309,3.6348,3.6795,3.7088,3.7266,3.75,3.7715,3.7908,3.7908,3.7908,3.7869,3.7656,3.7461,3.7305,3.7305,3.7305,3.7305,3.7305,3.6973,3.6601,3.6601,3.6777,3.697,3.697,3.7146,3.7344,3.7539,3.7578,3.7619,3.7851,3.7908,3.7908,3.7908,3.7908,3.7908,3.7908,3.7908,3.7908,3.7908,3.7908,3.7812,3.7599,3.7578,3.7502,3.7324,3.6931,3.6714,3.6714,3.6699,3.6797,3.701,3.6814,3.658,3.6328,3.6116,3.5901,3.5684,3.5881,3.6311,3.697,3.7187,3.7617,3.8223,3.8475,3.8592,3.2633,3.2978,3.3215,3.3215,3.3366,3.3431,3.3355,3.3416,3.3431,3.3355,3.3291,3.3136,3.2764,3.257,3.2529,3.2724,3.321,3.4678,3.7816,4.0058,4.2226,4.4555,4.5797,4.6602,4.7013,4.5925,4.4158,4.1611,4.023,3.8587,3.6484,3.6313,3.6262,3.6194,3.6194,3.6194,3.6194,3.6077,3.5999,3.5999,3.5999,3.5999,3.5999,3.5999,3.6038,3.6116,3.6521,3.6716,3.6814,3.7244,3.758,3.7912,3.797,3.8242,3.8592,3.8592,3.8592,3.8534,3.8144,3.7775,3.75,3.75,3.75,3.75,3.75,3.75,3.75,3.75,3.7441,3.7402,3.7402,3.7441,3.7578,3.7931,3.8048,3.8205,3.8612,3.8749,3.8788,3.8788,3.8788,3.8788,3.8788,3.8788,3.8788,3.8788,3.8788,3.8631,3.8165,3.8107,3.7931,3.7539,3.7127,3.6853,3.6795,3.6367,3.625,3.656,3.658,3.658,3.658,3.6211,3.5999,3.5999,3.5999,3.6428,3.7305,3.7363,3.7832,3.869,3.8768,3.8768,3.3015,3.3398,3.3771,3.3771,3.4463,3.5018,3.4564,3.4803,3.4993,3.4552,3.4087,3.3845,3.4051,3.4114,3.4363,3.5039,3.7046,3.9179,4.1071,4.2553,4.4072,4.5737,4.6365,4.6689,4.6762,4.6057,4.474,4.2641,4.1449,4.0002,3.8116,3.7756,3.7442,3.7109,3.7109,3.7109,3.7109,3.6369,3.5999,3.5999,3.5999,3.5999,3.5999,3.5999,3.623,3.6599,3.6675,3.6892,3.7226,3.7638,3.7853,3.7951,3.834,3.8534,3.8592,3.8592,3.8592,3.8573,3.8514,3.8456,3.8397,3.8397,3.8397,3.8397,3.8397,3.8397,3.8397,3.8397,3.8105,3.7814,3.7814,3.8105,3.8416,3.8475,3.875,3.9023,3.9082,3.9414,3.9687,3.9687,3.9687,3.9687,3.9687,3.9687,3.9687,3.9687,3.9687,3.9531,3.9062,3.9004,3.8848,3.8436,3.7988,3.7598,3.7244,3.6834,3.6462,3.6116,3.6096,3.6096,3.6096,3.6038,3.5999,3.5999,3.5999,3.6428,3.7305,3.7638,3.8244,3.9121,3.9512,3.9473,3.309,3.3707,3.4338,3.4338,3.5155,3.6008,3.6056,3.6471,3.6685,3.6145,3.5616,3.5392,3.5827,3.6448,3.758,3.9728,4.1601,4.3145,4.4172,4.5002,4.5652,4.6039,4.6156,4.5862,4.496,4.462,4.3963,4.2738,4.1886,4.0899,3.9702,3.9114,3.8569,3.8024,3.7754,3.7619,3.7619,3.7014,3.6701,3.6699,3.6484,3.6384,3.6384,3.6384,3.6502,3.6734,3.7166,3.7461,3.7658,3.8105,3.8281,3.8301,3.8514,3.8592,3.8592,3.8592,3.8592,3.8592,3.8592,3.8592,3.8592,3.8592,3.8592,3.8592,3.8592,3.8592,3.8592,3.8592,3.8437,3.8281,3.8281,3.8436,3.8651,3.8885,3.9062,3.9277,3.9512,3.9922,4.0215,4.0215,4.043,4.0605,4.0605,4.0605,4.0605,4.0605,4.0605,4.043,3.9961,3.9707,3.9414,3.8965,3.8302,3.7834,3.7638,3.7246,3.6853,3.6423,3.6384,3.6465,3.6682,3.6701,3.6701,3.6701,3.6701,3.7012,3.7619,3.7814,3.8341,3.9199,3.9414,3.9551,3.309,3.3796,3.4527,3.4678,3.5743,3.6873,3.7287,3.8015,3.8442,3.7902,3.7462,3.7298,3.7701,3.8818,4.0678,4.3689,4.5035,4.5974,4.6778,4.7,4.6866,4.6293,4.5966,4.5219,4.3674,4.3719,4.3658,4.3252,4.2838,4.2191,4.1319,4.0604,3.9816,3.8922,3.8457,3.8205,3.8205,3.7812,3.75,3.7285,3.699,3.6834,3.6834,3.6834,3.6892,3.7029,3.7619,3.797,3.8087,3.8456,3.8592,3.8592,3.8592,3.8592,3.8592,3.8592,3.8592,3.8592,3.8592,3.8592,3.8592,3.8592,3.8592,3.8592,3.8592,3.8592,3.8592,3.8592,3.8592,3.8592,3.8592,3.8592,3.8671,3.9003,3.9121,3.9297,3.9668,4.0059,4.0391,4.0489,4.0801,4.1074,4.1172,4.1191,4.1191,4.1191,4.1113,4.0859,4.041,4.0,3.9551,3.9101,3.8457,3.8009,3.7912,3.7539,3.7207,3.699,3.6892,3.697,3.7285,3.7402,3.7402,3.7305,3.7402,3.758,3.7912,3.8009,3.8516,3.9375,3.9473,3.9707,3.309,3.3506,3.4073,3.4589,3.6321,3.7877,3.7927,3.9182,4.0161,3.9622,3.9496,3.9471,3.9496,4.0853,4.2713,4.501,4.5874,4.6803,4.8416,4.8057,4.7426,4.6905,4.6281,4.5443,4.4343,4.4801,4.5153,4.5107,4.5181,4.4561,4.3006,4.2414,4.1403,3.9861,3.9355,3.9101,3.9101,3.871,3.8104,3.7305,3.7266,3.7246,3.7246,3.7246,3.7461,3.7814,3.7873,3.8164,3.8553,3.8573,3.8592,3.8592,3.8592,3.8592,3.8592,3.8592,3.8592,3.8592,3.8592,3.8592,3.8592,3.8592,3.8592,3.8592,3.8592,3.8592,3.8592,3.8592,3.8592,3.8592,3.8592,3.8592,3.8611,3.8631,3.8944,3.9219,3.9238,3.9609,4.0059,4.043,4.0528,4.0684,4.1113,4.1191,4.1191,4.1191,4.084,4.0391,4.0,3.9531,3.9082,3.869,3.8573,3.8359,3.7951,3.7539,3.7461,3.7795,3.7461,3.7266,3.7305,3.7658,3.7677,3.7305,3.7658,3.7873,3.7912,3.834,3.9003,3.9863,4.0235,4.043,3.309,3.3481,3.4022,3.4564,3.6095,3.7776,3.8818,4.0601,4.2082,4.2208,4.2495,4.2534,4.187,4.2824,4.4192,4.5748,4.6728,4.7757,4.9104,4.8669,4.7873,4.6962,4.6258,4.5397,4.4281,4.4835,4.5509,4.6177,4.6199,4.5704,4.4573,4.3781,4.2542,4.076,4.0254,3.9902,3.9629,3.918,3.869,3.8104,3.7812,3.7658,3.7658,3.7658,3.7756,3.7931,3.8203,3.8436,3.8592,3.8592,3.8592,3.8592,3.8592,3.8592,3.8592,3.8592,3.8592,3.8592,3.8592,3.8592,3.8592,3.8592,3.8592,3.8592,3.8592,3.8592,3.8592,3.8592,3.8788,3.8925,3.8651,3.8592,3.8592,3.8592,3.871,3.8827,3.8827,3.916,3.9512,3.9649,3.9941,4.0176,4.0371,4.039,4.039,4.039,4.0234,4.0078,3.9922,3.9492,3.9141,3.9003,3.8749,3.8534,3.834,3.8202,3.8182,3.832,3.793,3.7812,3.8104,3.8242,3.8262,3.8104,3.826,3.8457,3.8693,3.8887,3.9414,4.0274,4.043,4.0645,3.309,3.3481,3.4022,3.4564,3.5956,3.7675,3.9521,4.1656,4.3388,4.394,4.4503,4.4604,4.3678,4.4267,4.5181,4.6135,4.7189,4.8309,4.9439,4.9064,4.8297,4.7294,4.667,4.5955,4.4926,4.5492,4.6268,4.7129,4.7299,4.6912,4.5856,4.5176,4.3938,4.2024,4.1375,4.0806,4.0278,3.9694,3.9133,3.8611,3.8281,3.8107,3.8107,3.8107,3.8107,3.8144,3.8456,3.8592,3.8592,3.8592,3.8592,3.8592,3.8592,3.8592,3.8592,3.8592,3.8592,3.8592,3.8592,3.8592,3.8592,3.8592,3.8592,3.8592,3.8592,3.8592,3.8631,3.8749,3.9003,3.916,3.9042,3.9003,3.9003,3.9003,3.9003,3.8964,3.8827,3.9121,3.9414,3.9414,3.9785,4.0137,4.0273,4.0312,4.0312,4.0312,4.0176,4.0098,4.0098,3.9707,3.9355,3.9219,3.8945,3.8729,3.8612,3.8592,3.8592,3.8592,3.8301,3.8262,3.8573,3.871,3.8729,3.8592,3.8866,3.9062,3.9199,3.9355,3.9805,4.0508,4.0508,4.0762,3.3115,3.3506,3.4048,3.4577,3.5981,3.7801,4.001,4.2219,4.3966,4.4529,4.5121,4.5321,4.4729,4.5095,4.5673,4.621,4.7189,4.8309,4.9439,4.9315,4.882,4.8092,4.7721,4.7224,4.6493,4.7091,4.7663,4.7994,4.8638,4.8284,4.6707,4.6617,4.5698,4.371,4.278,4.1936,4.1137,4.027,3.9408,3.8611,3.8592,3.8592,3.8592,3.8592,3.8592,3.8592,3.8592,3.8592,3.8592,3.8592,3.8592,3.8592,3.8592,3.8592,3.8592,3.8592,3.8592,3.8592,3.8592,3.8611,3.8611,3.8612,3.8612,3.8611,3.8611,3.8611,3.869,3.9082,3.9199,3.9316,3.9785,3.9902,3.9902,3.9902,3.9902,3.9766,3.9297,3.957,3.9902,3.9902,4.0215,4.0664,4.1113,4.1191,4.1191,4.1191,4.0801,4.0508,4.0489,4.0156,3.9726,3.9258,3.9199,3.9043,3.865,3.8612,3.8612,3.8612,3.8612,3.8612,3.8611,3.9003,3.9004,3.8612,3.9472,3.9668,3.9219,3.9668,4.0117,4.0508,4.0508,4.0762,3.3556,3.4048,3.479,3.6132,3.7726,3.9434,4.1281,4.3087,4.5081,4.7606,4.7631,4.6888,4.5959,4.5934,4.611,4.6261,4.7189,4.8309,4.9439,4.9509,4.9364,4.9145,4.904,4.8894,4.8673,4.8861,4.9024,4.9112,4.9174,4.8797,4.7851,4.7669,4.7119,4.6041,4.5246,4.4164,4.2791,4.1674,4.0417,3.9004,3.8729,3.8592,3.8592,3.8592,3.8592,3.8592,3.8592,3.8592,3.8592,3.8592,3.8592,3.8592,3.8592,3.8592,3.8592,3.8592,3.8592,3.8631,3.8925,3.9004,3.9062,3.9413,3.9296,3.9004,3.9004,3.9004,3.9043,3.916,3.9648,4.0137,4.0274,4.0566,4.0664,4.0039,3.9902,3.9766,3.9297,3.957,3.9902,3.9902,4.0215,4.0664,4.1113,4.1191,4.1094,4.0762,4.0586,4.0391,4.0117,3.998,3.9844,3.9707,3.9687,3.9648,3.9512,3.9512,3.9512,3.9512,3.9512,3.9374,3.9023,3.9141,3.9297,3.9511,3.9766,3.998,4.0118,4.0254,4.0566,4.0996,4.0996,4.1074,3.4022,3.4776,3.583,3.7726,3.9434,4.1292,4.3628,4.4895,4.6361,4.9038,4.8887,4.7983,4.7089,4.6954,4.6954,4.6954,4.7682,4.856,4.9464,4.959,4.959,4.959,4.959,4.959,4.959,4.959,4.959,4.959,4.9561,4.9333,4.8803,4.8723,4.8484,4.7999,4.7243,4.6084,4.446,4.3078,4.1465,3.968,3.9118,3.8738,3.8592,3.8592,3.8592,3.8592,3.8592,3.8592,3.8592,3.8592,3.8592,3.8592,3.8592,3.8592,3.8592,3.8592,3.871,3.8885,3.9121,3.9316,3.9531,3.9805,3.9707,3.9473,3.9473,3.9473,3.9512,3.9687,4.0098,4.0547,4.0742,4.0996,4.1074,4.0546,4.0429,4.0292,3.9824,4.0078,4.0351,4.0176,4.0488,4.0859,4.1152,4.1191,4.1094,4.082,4.0781,4.0684,4.0449,4.0429,4.0351,4.0156,4.0156,4.0078,3.9902,3.9902,3.9902,3.9902,3.9902,3.9844,3.9708,3.957,3.9687,4.0137,4.0312,4.0605,4.1035,4.1172,4.1387,4.168,4.168,4.168,3.4463,3.5604,3.7021,3.927,4.123,4.3391,4.6486,4.7224,4.7716,4.9264,4.9204,4.8718,4.8159,4.8043,4.8043,4.8043,4.8526,4.9028,4.9531,4.959,4.959,4.959,4.959,4.959,4.959,4.959,4.959,4.959,4.9782,4.9784,4.9587,4.9797,4.9876,4.9742,4.9008,4.7862,4.6283,4.454,4.2634,4.0622,3.9721,3.9067,3.8592,3.8592,3.8592,3.8592,3.8592,3.8592,3.8592,3.8592,3.8592,3.8592,3.8631,3.8651,3.8651,3.869,3.8964,3.9277,3.9316,3.9609,3.9961,4.0,3.998,3.9961,3.9961,3.9961,4.0039,4.0391,4.0528,4.0645,4.1094,4.1191,4.1191,4.1191,4.1191,4.1074,4.0606,4.0859,4.1074,4.0664,4.0937,4.1269,4.1308,4.1308,4.1289,4.125,4.1211,4.1191,4.1191,4.1191,4.1035,4.0606,4.0567,4.043,4.0039,4.0019,4.0019,4.0019,4.0019,4.0176,4.0547,4.0176,4.0176,4.0606,4.1054,4.1445,4.1855,4.2226,4.2402,4.2402,4.2402,4.2402,3.4917,3.6145,3.765,4.0299,4.3198,4.5824,4.7365,4.8083,4.8652,4.9439,4.9515,4.9405,4.9264,4.9238,4.9238,4.9238,4.9339,4.9464,4.9565,4.959,4.959,4.959,4.959,4.959,4.959,4.959,4.959,4.959,4.9651,4.9821,5.0182,5.0688,5.1135,5.1527,5.1213,5.0422,4.912,4.6834,4.4515,4.2275,4.0763,3.9552,3.8592,3.8592,3.8592,3.8592,3.8592,3.8592,3.8592,3.8592,3.8592,3.8631,3.8964,3.9062,3.9121,3.9473,3.9668,3.9785,4.0098,4.0293,4.043,4.08,4.0664,4.0371,4.0371,4.0371,4.0391,4.0489,4.0781,4.1074,4.1172,4.1191,4.1191,4.1191,4.1191,4.1074,4.0606,4.0859,4.1172,4.1074,4.1406,4.1777,4.2089,4.2128,4.2031,4.1719,4.1406,4.1191,4.1191,4.1191,4.1152,4.1054,4.1054,4.1015,4.0918,4.0918,4.0918,4.0918,4.0918,4.0957,4.1054,4.0625,4.0723,4.1504,4.1621,4.1875,4.2265,4.2363,4.2402,4.2402,4.2402,4.2402,3.5429,3.6947,3.8856,4.242,4.5206,4.7305,4.8149,4.8962,4.9715,5.0309,5.0167,5.0067,5.036,5.0393,5.0393,5.0393,5.0393,5.0393,5.0393,5.0393,5.0393,5.0393,5.0393,5.0293,5.0017,5.0243,5.0293,5.0017,5.0243,5.0645,5.1197,5.1523,5.1925,5.246,5.222,5.1467,5.0197,4.7989,4.5558,4.2975,4.137,3.9894,3.8592,3.8592,3.8592,3.8592,3.8592,3.8592,3.8592,3.8592,3.871,3.8905,3.9121,3.9336,3.957,3.9805,4.0019,4.0234,4.043,4.0664,4.0879,4.1113,4.1035,4.084,4.084,4.084,4.084,4.084,4.1015,4.1191,4.1191,4.1191,4.1191,4.1191,4.1191,4.1133,4.0879,4.1035,4.1191,4.1191,4.1367,4.1562,4.1797,4.1836,4.1758,4.1523,4.1328,4.1191,4.1191,4.1191,4.1191,4.1191,4.1191,4.1191,4.1191,4.1191,4.1191,4.1191,4.1191,4.1191,4.1191,4.0976,4.123,4.207,4.2089,4.2402,4.3007,4.3007,4.3007,4.3007,4.3007,4.3007,3.579,3.7976,4.0552,4.4507,4.6702,4.8058,4.8652,4.9615,5.0603,5.1272,5.0971,5.072,5.1214,5.1289,5.1339,5.1414,5.144,5.144,5.144,5.144,5.144,5.144,5.1364,5.1113,5.0603,5.1013,5.1071,5.0578,5.1096,5.1674,5.2209,5.2251,5.2385,5.2762,5.2487,5.1765,5.0563,4.8629,4.6257,4.3473,4.1462,3.9842,3.8592,3.8592,3.8592,3.8592,3.8671,3.871,3.871,3.8788,3.9022,3.9336,3.9394,3.9668,4.0019,4.0078,4.0332,4.0625,4.0625,4.0879,4.1191,4.1191,4.1191,4.1191,4.1191,4.1191,4.1191,4.1191,4.1191,4.1191,4.1191,4.1191,4.1191,4.1191,4.1191,4.1191,4.1191,4.1191,4.1191,4.1191,4.1191,4.1191,4.1191,4.1191,4.1191,4.1191,4.1191,4.1191,4.1191,4.1191,4.1191,4.1191,4.1191,4.1191,4.1191,4.1191,4.1191,4.1191,4.1191,4.1191,4.1191,4.1191,4.1562,4.2285,4.2343,4.2831,4.3711,4.3711,4.3711,4.3711,4.3711,4.3711,3.579,3.9346,4.2939,4.4985,4.6702,4.8058,4.8652,4.9615,5.0703,5.1774,5.1548,5.1214,5.1289,5.1289,5.1465,5.1925,5.2,5.2,5.2,5.2,5.2,5.2,5.159,5.1264,5.1188,5.1264,5.1264,5.1188,5.1674,5.2226,5.2744,5.2795,5.2611,5.2226,5.215,5.1832,5.1197,4.9193,4.7017,4.4623,4.0758,3.8793,3.8592,3.8592,3.8592,3.8612,3.8965,3.9121,3.9141,3.9551,3.9746,3.9844,4.0176,4.0371,4.0469,4.0879,4.1054,4.1113,4.1113,4.1152,4.1191,4.1191,4.1191,4.1191,4.1191,4.1191,4.1191,4.1191,4.1191,4.1191,4.1191,4.1191,4.1191,4.1191,4.1191,4.1191,4.1191,4.1191,4.1191,4.1191,4.1191,4.1191,4.1191,4.1191,4.1191,4.1191,4.1191,4.1191,4.1191,4.1191,4.1191,4.1191,4.1191,4.1191,4.1191,4.1191,4.1191,4.1191,4.1191,4.1191,4.1191,4.1191,4.1406,4.1875,4.2226,4.2831,4.3711,4.3711,4.3711,4.3711,4.3711,4.3711,3.7311,4.0564,4.3478,4.5447,4.6928,4.8134,4.9053,5.0108,5.1222,5.231,5.236,5.2201,5.2201,5.2201,5.236,5.2904,5.3005,5.3105,5.3449,5.3499,5.3499,5.3499,5.2997,5.2528,5.2226,5.2201,5.2201,5.2201,5.2703,5.3256,5.3808,5.3532,5.3239,5.3005,5.2427,5.185,5.1314,4.9298,4.6601,4.3236,4.0324,3.8944,3.8964,3.9218,3.9198,3.8964,3.9121,3.9355,3.9609,3.9805,4.0039,4.0254,4.043,4.0645,4.0918,4.1113,4.1191,4.1191,4.1191,4.1191,4.1191,4.1191,4.1191,4.1191,4.1191,4.1191,4.1191,4.1191,4.1191,4.1191,4.1191,4.1191,4.1191,4.1191,4.1191,4.1191,4.1191,4.1191,4.1191,4.1191,4.1191,4.1191,4.1191,4.1191,4.1191,4.1191,4.1191,4.1191,4.1191,4.1191,4.1191,4.1191,4.1191,4.1191,4.1191,4.1191,4.1191,4.1191,4.1191,4.1191,4.1191,4.1191,4.1387,4.1797,4.1953,4.2363,4.2968,4.2968,4.2968,4.2968,4.2968,4.2968,3.8253,4.0777,4.29,4.5121,4.6461,4.7631,4.8887,5.0159,5.1373,5.246,5.2812,5.2895,5.2895,5.2895,5.3138,5.3808,5.3926,5.4127,5.4705,5.4798,5.4798,5.4798,5.4278,5.3758,5.3364,5.3314,5.3314,5.3314,5.3833,5.4403,5.4981,5.4454,5.4009,5.3708,5.2804,5.1925,5.1071,4.8517,4.5525,4.2128,4.0142,3.9258,3.9394,3.9746,3.9766,3.9531,3.9531,3.9746,4.0059,4.0176,4.041,4.0684,4.0684,4.0879,4.1191,4.1191,4.1191,4.1191,4.1191,4.1191,4.1191,4.1191,4.1191,4.1191,4.1191,4.1191,4.1191,4.1191,4.1191,4.1191,4.1191,4.1191,4.1191,4.1191,4.1191,4.1191,4.1191,4.1191,4.1191,4.1191,4.1191,4.1191,4.1191,4.1191,4.1191,4.1191,4.1191,4.1191,4.1191,4.1191,4.1191,4.1191,4.1191,4.1191,4.1191,4.1191,4.1191,4.1191,4.1191,4.1191,4.1191,4.1191,4.1348,4.1641,4.1641,4.1894,4.2402,4.2402,4.2402,4.2402,4.2402,4.246,3.7601,3.9333,4.1165,4.3388,4.4769,4.6039,4.7631,4.9248,5.0754,5.1925,5.2561,5.2895,5.2895,5.2895,5.3264,5.4353,5.4547,5.4748,5.5282,5.5358,5.5358,5.5358,5.4881,5.4547,5.4522,5.4522,5.4522,5.4522,5.5006,5.5541,5.6093,5.5591,5.483,5.3733,5.3163,5.2067,5.0452,4.6374,4.3726,4.2542,4.0283,3.9434,3.9863,3.9883,4.0079,4.043,4.043,4.045,4.0508,4.0957,4.1133,4.1152,4.1152,4.1172,4.1191,4.1191,4.1191,4.1191,4.1191,4.1191,4.1191,4.1191,4.1191,4.1191,4.1191,4.1191,4.1191,4.1191,4.1191,4.1191,4.1191,4.1191,4.1191,4.1191,4.1191,4.1191,4.1191,4.1191,4.1191,4.1191,4.1191,4.1191,4.1191,4.1191,4.1191,4.1191,4.1191,4.1191,4.1191,4.1191,4.1191,4.1191,4.1191,4.1191,4.1191,4.1191,4.1191,4.1191,4.1191,4.1191,4.1191,4.1191,4.1211,4.123,4.123,4.1621,4.2402,4.2402,4.2402,4.2402,4.2402,4.2656,3.6621,3.7914,3.9333,4.1215,4.2785,4.4432,4.6426,4.8159,4.9907,5.1724,5.2234,5.2485,5.2837,5.2895,5.3264,5.4403,5.4597,5.4924,5.5792,5.5917,5.5917,5.5917,5.5458,5.5107,5.5107,5.4798,5.4748,5.5082,5.5282,5.5616,5.615,5.5691,5.5056,5.4303,5.3364,5.1744,4.9395,4.6685,4.4669,4.3356,4.1627,4.076,4.0673,4.072,4.082,4.0937,4.0937,4.0937,4.0957,4.1133,4.1191,4.1191,4.1191,4.1191,4.1191,4.1191,4.1191,4.1191,4.1191,4.1191,4.1191,4.1191,4.1191,4.1191,4.1191,4.1191,4.1191,4.1191,4.1191,4.125,4.1523,4.1602,4.1641,4.1914,4.1973,4.1973,4.1973,4.1758,4.166,4.1933,4.1973,4.1973,4.1973,4.1973,4.1973,4.1973,4.1973,4.1973,4.1973,4.1973,4.1973,4.1973,4.1973,4.1973,4.1973,4.1973,4.1973,4.1973,4.1973,4.1973,4.1973,4.1973,4.1973,4.1973,4.1973,4.1855,4.1621,4.1621,4.1621,4.1621,4.1621,4.1875,3.5566,3.6483,3.7563,3.9232,4.0777,4.2473,4.4694,4.6642,4.8551,5.0569,5.1423,5.2,5.2536,5.2787,5.3264,5.4403,5.4597,5.4956,5.6068,5.62,5.62,5.62,5.5892,5.5591,5.5433,5.5232,5.5207,5.5383,5.5566,5.5817,5.6175,5.5867,5.5358,5.4622,5.3155,5.1451,4.9549,4.7549,4.6,4.4852,4.3136,4.2107,4.1738,4.1364,4.1191,4.1191,4.1191,4.1191,4.1191,4.1191,4.1191,4.1191,4.1191,4.1191,4.1191,4.1191,4.1191,4.1191,4.1191,4.1191,4.1191,4.1191,4.1191,4.123,4.1367,4.1406,4.1406,4.1406,4.1504,4.1621,4.1758,4.1894,4.207,4.2343,4.2402,4.2441,4.2597,4.2285,4.207,4.2343,4.2402,4.2402,4.2402,4.2402,4.2402,4.2402,4.2402,4.2402,4.2402,4.2402,4.2402,4.2402,4.2402,4.2402,4.2402,4.2402,4.2402,4.2402,4.2402,4.2402,4.2402,4.2402,4.2402,4.2402,4.2402,4.2128,4.1601,4.1601,4.1601,4.1601,4.1601,4.1816,0.0,0.0,0.0,3.75,3.8768,4.0187,4.2397,4.4618,4.6702,4.8416,5.0083,5.1414,5.2,5.2536,5.3264,5.4403,5.4597,5.4956,5.6068,5.62,5.62,5.62,5.62,5.5993,5.5465,5.5892,5.5993,5.544,5.5917,5.62,5.62,5.615,5.5666,5.4629,5.2452,5.1179,5.0977,4.8799,4.7455,4.6937,4.4608,4.3323,4.2925,4.1734,4.1191,4.1191,4.1191,4.1191,4.1191,4.1191,4.1191,4.1191,4.1191,4.1191,4.1191,4.1191,4.1191,4.1191,4.1191,4.1191,4.1191,4.1191,4.1211,4.1289,4.168,4.1816,4.1816,4.1816,4.2089,4.2324,4.1953,4.2148,4.2441,4.2441,4.2441,4.2558,4.3028,4.2754,4.2441,4.2441,4.2441,4.2441,4.2441,4.2441,4.2441,4.2441,4.2441,4.2441,4.2441,4.2441,4.2441,4.2441,4.2441,4.2441,4.2441,4.2441,4.2441,4.2441,4.2441,4.2441,4.2441,4.2441,4.2441,4.2441,4.2441,4.2441,4.2441,4.2421,4.2402,4.2402,4.2421,4.2656,3.3506,0.0,0.0,0.0,0.0,0.0,4.0112,4.2322,4.4593,4.7064,4.8912,5.0485,5.185,5.2536,5.3264,5.4403,5.4597,5.4956,5.6068,5.62,5.62,5.62,5.62,5.6125,5.5993,5.61,5.6143,5.5993,5.61,5.62,5.62,5.544,5.4781,5.4195,5.2114,5.0744,5.0201,4.8718,4.7364,4.6098,4.4699,4.3485,4.2543,4.1618,4.1191,4.1191,4.1191,4.1191,4.1191,4.1191,4.1191,4.1191,4.1191,4.1191,4.1191,4.1191,4.1191,4.1191,4.1191,4.1191,4.1191,4.1191,4.1406,4.1641,4.1758,4.1992,4.2226,4.2226,4.2324,4.246,4.2676,4.3027,4.3359,4.3359,4.3359,4.3379,4.3496,4.3437,4.3359,4.3359,4.3359,4.3359,4.3359,4.3359,4.3359,4.3359,4.3359,4.3359,4.3359,4.3359,4.3359,4.3359,4.3359,4.3359,4.3359,4.3359,4.3359,4.3359,4.3359,4.3359,4.3359,4.3359,4.3359,4.3359,4.3359,4.3359,4.3359,4.2714,4.2402,4.2421,4.2754,4.2989,3.309,0.0,3.3316,3.4137,0.0,0.0,3.8253,4.0363,4.261,4.492,4.6888,4.8661,5.0092,5.0979,5.1808,5.2703,5.3248,5.4177,5.5949,5.62,5.62,5.62,5.62,5.61,5.5892,5.6068,5.6,5.5566,5.5942,5.62,5.62,5.5182,5.4348,5.3753,5.1404,4.992,4.9457,4.8035,4.6816,4.5841,4.4707,4.3629,4.262,4.1637,4.1191,4.1191,4.1191,4.1191,4.1191,4.1191,4.1191,4.1191,4.1191,4.1308,4.1445,4.1445,4.1562,4.1699,4.1699,4.1699,4.1699,4.1699,4.1855,4.209,4.2266,4.25,4.2695,4.2695,4.2695,4.2793,4.3243,4.3516,4.3711,4.3711,4.3711,4.3711,4.3711,4.3711,4.3711,4.3711,4.3711,4.3711,4.3711,4.3711,4.3711,4.3711,4.3711,4.3711,4.3711,4.3711,4.3711,4.3711,4.3711,4.3711,4.3711,4.3711,4.3711,4.3711,4.3711,4.3711,4.3711,4.3711,4.3711,4.3711,4.3711,4.3711,4.3711,4.3183,4.2948,4.2948,4.3223,4.336,3.309,3.309,0.0,3.3782,3.4628,0.0,3.6759,3.8642,4.0626,4.2272,4.4392,4.6261,4.7355,4.846,4.9414,4.995,5.0979,5.2729,5.5541,5.6025,5.6125,5.6175,5.62,5.6,5.5559,5.5917,5.5817,5.4848,5.5666,5.62,5.62,5.5232,5.4299,5.345,5.0655,4.9033,4.8694,4.6938,4.5896,4.5639,4.4511,4.3608,4.2829,4.1715,4.1191,4.1191,4.1191,4.1191,4.1191,4.1191,4.1191,4.1191,4.1191,4.1445,4.1797,4.1797,4.205,4.2402,4.2402,4.2402,4.2402,4.2402,4.2441,4.2558,4.2969,4.3126,4.3165,4.3165,4.3165,4.3243,4.3613,4.3711,4.3711,4.3711,4.3711,4.3711,4.3711,4.3711,4.3711,4.3711,4.3711,4.3711,4.3711,4.3711,4.3711,4.3711,4.3711,4.3711,4.3711,4.3711,4.3711,4.3711,4.3711,4.3711,4.3711,4.3711,4.3711,4.3711,4.3711,4.3711,4.3711,4.3711,4.3711,4.3711,4.3711,4.3711,4.3711,4.3711,4.3711,4.3711,4.3711,4.3711,3.309,3.309,3.3241,3.3782,3.4073,0.0,3.557,3.6873,3.8329,4.0011,4.2096,4.3966,4.5056,4.6185,4.7114,4.7651,4.8711,5.0561,5.3733,5.4963,5.5717,5.615,5.62,5.615,5.605,5.6143,5.61,5.5917,5.6093,5.62,5.62,5.5591,5.4728,5.3595,5.0952,4.9101,4.8076,4.6083,4.4731,4.4046,4.3477,4.2791,4.2024,4.1463,4.1191,4.1191,4.1191,4.1191,4.1191,4.1191,4.1191,4.1191,4.1191,4.1445,4.1797,4.1797,4.205,4.2402,4.2402,4.2402,4.2402,4.2402,4.2656,4.2989,4.3067,4.3341,4.3574,4.3574,4.3574,4.3594,4.3691,4.3711,4.3711,4.3711,4.3711,4.3711,4.3711,4.3711,4.3711,4.3711,4.3711,4.3711,4.3711,4.3711,4.3711,4.3711,4.3711,4.3711,4.3711,4.3711,4.3711,4.3711,4.3711,4.3711,4.3711,4.3711,4.3711,4.3711,4.3711,4.3711,4.3711,4.3711,4.3711,4.3711,4.3711,4.3711,4.3711,4.3711,4.3711,4.3711,4.3711,4.3711,3.3897,3.3897,3.3897,3.3897,3.4098,0.0,0.0,3.578,3.711,3.8228,3.9986,4.1681,4.2758,4.3664,4.4432,4.497,4.624,4.7923,5.0101,5.2804,5.4963,5.6068,5.62,5.62,5.62,5.62,5.62,5.62,5.5691,5.5659,5.615,5.5458,5.4496,5.3374,5.0382,4.8133,4.6717,4.424,4.2791,4.2408,4.2197,4.1889,4.1482,4.1288,4.1191,4.1191,4.1191,4.1191,4.1191,4.1191,4.1328,4.1504,4.1504,4.1895,4.2461,4.2461,4.2695,4.3046,4.3046,4.3046,4.3046,4.3046,4.3223,4.3398,4.3398,4.3535,4.3711,4.3711,4.3711,4.3711,4.3711,4.3711,4.3711,4.3711,4.3711,4.3711,4.3711,4.3711,4.3711,4.3711,4.3711,4.3711,4.3711,4.3711,4.3711,4.3711,4.3711,4.3711,4.3711,4.3711,4.3711,4.3711,4.3711,4.3711,4.3711,4.3711,4.3711,4.3711,4.3711,4.3711,4.3711,4.3711,4.3711,4.3711,4.3711,4.3711,4.3711,4.3711,4.3711,4.3711,4.3711,4.3711,3.4703,3.4703,3.4577,3.4037,3.4237,3.4427,0.0,0.0,0.0,3.6759,3.8115,3.9471,4.0349,4.0978,4.1532,4.197,4.3452,4.4945,4.6135,4.9649,5.2929,5.5164,5.5498,5.5648,5.5867,5.5993,5.6068,5.6068,5.5232,5.5132,5.6018,5.5333,5.4381,5.3284,4.9946,4.7408,4.5799,4.2892,4.1426,4.1426,4.1348,4.1308,4.1308,4.125,4.123,4.1308,4.1308,4.1367,4.1426,4.1426,4.168,4.2031,4.1875,4.2324,4.3106,4.3106,4.334,4.3711,4.3711,4.3711,4.3711,4.3711,4.3711,4.3711,4.3711,4.3711,4.3711,4.3711,4.3711,4.3711,4.3711,4.3711,4.3711,4.3711,4.3711,4.3711,4.3711,4.3711,4.3711,4.3711,4.3711,4.3711,4.3711,4.3711,4.3711,4.3711,4.3711,4.3711,4.3711,4.3711,4.3711,4.3711,4.3711,4.3711,4.3711,4.3711,4.3711,4.3711,4.3711,4.3711,4.3711,4.3711,4.3711,4.3711,4.3711,4.3711,4.3711,4.3711,4.3711,4.3711,4.3711,4.3711,3.4703,3.4703,3.4577,3.4037,3.3947,3.3972,3.3922,0.0,3.5054,3.5595,0.0,3.7525,3.765,0.0,0.0,3.8567,3.996,4.1617,4.3226,4.5185,4.7973,5.2076,5.2988,5.3665,5.468,5.5207,5.5509,5.5509,5.5383,5.5358,5.5465,5.5817,5.5311,5.3763,5.0741,4.8383,4.6777,4.3758,4.2265,4.2265,4.1914,4.1738,4.1719,4.1367,4.1406,4.1738,4.1738,4.1914,4.2265,4.2265,4.2539,4.2872,4.209,4.2324,4.3106,4.3106,4.334,4.3711,4.3711,4.3711,4.3711,4.3711,4.3711,4.3711,4.3711,4.3711,4.3711,4.3711,4.3711,4.3711,4.3711,4.3711,4.3711,4.3711,4.3711,4.3711,4.3711,4.3711,4.3711,4.3711,4.3711,4.3711,4.3711,4.3711,4.3711,4.3711,4.3711,4.3711,4.3711,4.3711,4.3711,4.3711,4.3711,4.3711,4.3711,4.3711,4.3711,4.3711,4.3711,4.3711,4.3711,4.3711,4.3711,4.3711,4.3711,4.3711,4.3711,4.3711,4.3711,4.3711,4.3711,4.3711,3.6622,3.6396,3.6006,3.5465,3.5102,3.4753,3.4438,3.4778,3.533,3.5906,0.0,0.0,0.0,0.0,0.0,0.0,3.9371,4.04,4.1404,4.2724,4.51,4.9188,5.0728,5.2134,5.3926,5.4278,5.4579,5.4906,5.431,5.4386,5.5358,5.5616,5.5138,5.3836,5.086,4.8537,4.6926,4.3899,4.2402,4.2402,4.1992,4.1797,4.1777,4.1387,4.1426,4.1797,4.1797,4.2031,4.2402,4.2402,4.2676,4.3067,4.2696,4.291,4.3437,4.3437,4.3555,4.3711,4.3711,4.3711,4.3711,4.3711,4.3711,4.3711,4.3711,4.3711,4.3773,4.4041,4.4268,4.4514,4.478,4.5026,4.5209,4.5209,4.5209,4.5148,4.4903,4.4637,4.4391,4.4164,4.3897,4.3711,4.3711,4.3711,4.3711,4.3711,4.3711,4.3711,4.3711,4.3711,4.3711,4.3711,4.3711,4.3711,4.3711,4.3711,4.3711,4.3711,4.3711,4.3711,4.3711,4.3711,4.3711,4.3711,4.3711,4.3711,4.3711,4.3711,4.3711,4.3711,4.3711,4.3711,3.8002,3.7726,3.7248,3.6569,3.6068,3.5556,3.4853,3.5255,3.5869,3.6318,3.6934,0.0,0.0,0.0,3.809,3.8391,0.0,3.9559,3.9785,4.079,4.2824,4.6351,4.8661,5.0645,5.2402,5.2854,5.3173,5.3424,5.2829,5.308,5.4411,5.4931,5.471,5.36,5.091,4.8717,4.7118,4.4201,4.2753,4.2753,4.2344,4.2168,4.2129,4.1719,4.1758,4.2168,4.2168,4.2383,4.2753,4.2753,4.2969,4.3263,4.3263,4.3437,4.3711,4.3711,4.3711,4.3711,4.3711,4.3711,4.3711,4.3711,4.3711,4.3711,4.3711,4.3711,4.3835,4.4411,4.5026,4.5637,4.6224,4.6828,4.731,4.731,4.731,4.7169,4.6668,4.6084,4.5494,4.4841,4.4284,4.3848,4.373,4.3711,4.3711,4.3711,4.3711,4.3711,4.3711,4.3711,4.3711,4.3711,4.3711,4.3711,4.3711,4.3711,4.3711,4.3711,4.3711,4.3711,4.3711,4.3711,4.3711,4.3711,4.3711,4.3711,4.3711,4.3711,4.3711,4.3711,4.3711,4.3711,3.8002,3.799,3.7713,3.6658,3.6393,3.608,3.4965,3.5566,3.6368,3.6393,3.7248,3.799,3.8015,0.0,0.0,0.0,0.0,0.0,0.0,3.9069,4.0802,4.3589,4.6843,4.9079,4.9665,5.0736,5.1122,5.0578,5.1046,5.1615,5.2176,5.375,5.414,5.3047,5.1033,4.9204,4.7588,4.4965,4.3672,4.3652,4.3263,4.3067,4.3048,4.2558,4.2617,4.3067,4.3067,4.3302,4.3672,4.3672,4.3672,4.3691,4.3691,4.3691,4.3711,4.3711,4.3711,4.3711,4.3711,4.3711,4.3711,4.3711,4.3711,4.3711,4.3711,4.3711,4.3897,4.474,4.584,4.6947,4.7804,4.8951,4.9892,4.9892,4.9892,4.9657,4.8875,4.8029,4.7046,4.58,4.4914,4.4238,4.3789,4.3711,4.3711,4.3711,4.3711,4.3711,4.3711,4.3711,4.3711,4.3711,4.3711,4.3711,4.3711,4.3711,4.3711,4.3711,4.3711,4.3711,4.3711,4.3711,4.3711,4.3711,4.3711,4.3711,4.3711,4.3711,4.3711,4.3711,4.3711,4.3711,4.0198,3.9922,3.9559,3.9195,3.858,3.7939,3.7575,3.7475,3.7575,3.7964,3.8341,3.8705,3.9044,0.0,0.0,0.0,0.0,0.0,0.0,3.9233,4.0174,4.1466,4.3915,4.5999,4.7305,4.8093,4.857,4.872,4.8595,4.9248,5.0879,5.2561,5.3162,5.2494,5.0872,4.9227,4.7609,4.5006,4.3711,4.3691,4.3302,4.3106,4.3087,4.2597,4.2656,4.3106,4.3106,4.3341,4.3711,4.3711,4.3711,4.3711,4.3711,4.3711,4.3711,4.3711,4.3711,4.3733,4.4061,4.4329,4.4617,4.4924,4.5189,4.5434,4.5434,4.5434,4.5657,4.6788,4.7807,4.8776,4.9934,5.0962,5.1735,5.1735,5.1735,5.1597,5.1087,5.0087,4.9081,4.8443,4.7113,4.6063,4.5901,4.5637,4.5026,4.3856,4.3711,4.3711,4.3711,4.3711,4.3711,4.3711,4.3711,4.3711,4.3711,4.3711,4.3711,4.3711,4.3711,4.3711,4.3711,4.3711,4.3711,4.3711,4.3711,4.3711,4.3711,4.3711,4.3711,4.3711,4.3711,4.3711,4.1289,4.1215,4.1053,4.0839,4.0261,3.9697,3.9509,3.917,3.8994,3.9383,3.9635,3.9848,4.0224,0.0,0.0,0.0,0.0,0.0,0.0,3.9132,3.9371,4.0136,4.1982,4.3653,4.4733,4.5482,4.5984,4.615,4.601,4.6827,4.8946,5.0647,5.1634,5.1699,5.0616,4.933,4.783,4.5373,4.4164,4.4164,4.3908,4.3872,4.4015,4.3858,4.3959,4.4238,4.4238,4.4378,4.4617,4.4617,4.4617,4.4617,4.4617,4.4617,4.4555,4.3918,4.3711,4.3793,4.4391,4.5046,4.5738,4.6345,4.7049,4.7608,4.7608,4.7608,4.7847,4.8976,5.0126,5.1252,5.2398,5.3576,5.4484,5.4484,5.4484,5.4352,5.3842,5.2838,5.1852,5.1186,4.9887,4.882,4.8648,4.8391,4.7387,4.4984,4.4617,4.4617,4.4617,4.4617,4.4617,4.4617,4.4617,4.4494,4.4186,4.4021,4.3876,4.3711,4.3711,4.3711,4.3711,4.3711,4.3711,4.3711,4.3711,4.3711,4.3711,4.3711,4.3711,4.3711,4.3711,4.3711]}]]